<?xml version='1.0' encoding='UTF-8'?><gpx version="1.1" creator="JPX - https://github.com/jenetics/jpx" xmlns="http://www.topografix.com/GPX/1/1"><trk><trkseg><trkpt lat="43.964146620136965" lon="11.219400484861293"><ele>299.99999999999994</ele><time>2026-04-05T15:48:01.999Z</time></trkpt><trkpt lat="43.96407775249269" lon="11.219405121631194"><ele>300.0</ele><time>2026-04-05T15:48:09.999Z</time></trkpt><trkpt lat="43.96401195749898" lon="11.219403299941266"><ele>300.0</ele><time>2026-04-05T15:48:18Z</time></trkpt><trkpt lat="43.963942138179135" lon="11.219407748444358"><ele>300.0</ele><time>2026-04-05T15:48:26Z</time></trkpt><trkpt lat="43.96387734699259" lon="11.219407745284082"><ele>300.0</ele><time>2026-04-05T15:48:45Z</time></trkpt><trkpt lat="43.96380044702691" lon="11.219385521113203"><ele>299.99999999999994</ele><time>2026-04-05T15:50:21Z</time></trkpt><trkpt lat="43.96373607067463" lon="11.219377466666165"><ele>300.0</ele><time>2026-04-05T15:50:28Z</time></trkpt><trkpt lat="43.96367176820192" lon="11.219379557241078"><ele>300.0</ele><time>2026-04-05T15:50:36Z</time></trkpt><trkpt lat="43.963632686624564" lon="11.219271475234354"><ele>300.0</ele><time>2026-04-05T15:54:34Z</time></trkpt><trkpt lat="43.96356555865087" lon="11.219273433626228"><ele>300.0</ele><time>2026-04-05T15:54:36Z</time></trkpt><trkpt lat="43.963428589391135" lon="11.219306725343635"><ele>300.0</ele><time>2026-04-05T15:54:38Z</time></trkpt><trkpt lat="43.96334629786153" lon="11.219338433471027"><ele>300.0</ele><time>2026-04-05T15:54:39Z</time></trkpt><trkpt lat="43.963266530878066" lon="11.219370027857622"><ele>300.2</ele><time>2026-04-05T15:54:40Z</time></trkpt><trkpt lat="43.96319217386948" lon="11.21939037061886"><ele>300.4</ele><time>2026-04-05T15:54:41Z</time></trkpt><trkpt lat="43.96310782314291" lon="11.219405364117064"><ele>300.6</ele><time>2026-04-05T15:54:42Z</time></trkpt><trkpt lat="43.9630121758685" lon="11.219422161165006"><ele>300.8</ele><time>2026-04-05T15:54:43Z</time></trkpt><trkpt lat="43.96291210968474" lon="11.21945280631331"><ele>301.0</ele><time>2026-04-05T15:54:44Z</time></trkpt><trkpt lat="43.96281714704384" lon="11.219488481682017"><ele>301.0</ele><time>2026-04-05T15:54:45Z</time></trkpt><trkpt lat="43.9627241288144" lon="11.219524836258639"><ele>301.0</ele><time>2026-04-05T15:54:46Z</time></trkpt><trkpt lat="43.96263283581153" lon="11.219557594889936"><ele>301.0</ele><time>2026-04-05T15:54:47Z</time></trkpt><trkpt lat="43.96255274248241" lon="11.219586177520252"><ele>301.0</ele><time>2026-04-05T15:54:48Z</time></trkpt><trkpt lat="43.96247420254776" lon="11.219610112785023"><ele>301.0</ele><time>2026-04-05T15:54:49Z</time></trkpt><trkpt lat="43.962394912169614" lon="11.219635045769161"><ele>301.0</ele><time>2026-04-05T15:54:50Z</time></trkpt><trkpt lat="43.96231535538397" lon="11.219669409489155"><ele>300.5</ele><time>2026-04-05T15:54:51Z</time></trkpt><trkpt lat="43.962237996558855" lon="11.21971124926349"><ele>300.0</ele><time>2026-04-05T15:54:52Z</time></trkpt><trkpt lat="43.96210152718075" lon="11.21982223160997"><ele>299.5</ele><time>2026-04-05T15:54:53Z</time></trkpt><trkpt lat="43.96200388963846" lon="11.219905198009497"><ele>299.0</ele><time>2026-04-05T15:54:54Z</time></trkpt><trkpt lat="43.96191458017696" lon="11.2199953837546"><ele>299.59999999999997</ele><time>2026-04-05T15:54:55Z</time></trkpt><trkpt lat="43.96183402843424" lon="11.220089567579683"><ele>300.2</ele><time>2026-04-05T15:54:56Z</time></trkpt><trkpt lat="43.9617700574233" lon="11.22018455981684"><ele>300.79999999999995</ele><time>2026-04-05T15:54:57Z</time></trkpt><trkpt lat="43.96172733160527" lon="11.22028543474711"><ele>301.4</ele><time>2026-04-05T15:54:58Z</time></trkpt><trkpt lat="43.96169604653584" lon="11.220395052914817"><ele>302.0</ele><time>2026-04-05T15:54:59Z</time></trkpt><trkpt lat="43.96166325435828" lon="11.220508373318829"><ele>302.0</ele><time>2026-04-05T15:55:00Z</time></trkpt><trkpt lat="43.961622620563894" lon="11.220622128918345"><ele>302.0</ele><time>2026-04-05T15:55:01Z</time></trkpt><trkpt lat="43.96162836432997" lon="11.220729859321397"><ele>302.0</ele><time>2026-04-05T15:55:02Z</time></trkpt><trkpt lat="43.96159095199174" lon="11.220844062479058"><ele>302.0</ele><time>2026-04-05T15:55:04Z</time></trkpt><trkpt lat="43.961583081945896" lon="11.220977525324637"><ele>302.0</ele><time>2026-04-05T15:55:07Z</time></trkpt><trkpt lat="43.96161704767623" lon="11.221097384309973"><ele>302.0</ele><time>2026-04-05T15:55:09Z</time></trkpt><trkpt lat="43.9613402669293" lon="11.221216046759082"><ele>302.28571428571433</ele><time>2026-04-05T15:55:10Z</time></trkpt><trkpt lat="43.961300523269124" lon="11.22129684246893"><ele>302.57142857142856</ele><time>2026-04-05T15:55:11Z</time></trkpt><trkpt lat="43.961261854906965" lon="11.22138517519139"><ele>302.8571428571429</ele><time>2026-04-05T15:55:12Z</time></trkpt><trkpt lat="43.96122695551789" lon="11.221486324780914"><ele>303.14285714285717</ele><time>2026-04-05T15:55:13Z</time></trkpt><trkpt lat="43.9612054457234" lon="11.221568523042654"><ele>303.42857142857144</ele><time>2026-04-05T15:55:14Z</time></trkpt><trkpt lat="43.96115156389019" lon="11.221650772443182"><ele>303.7142857142857</ele><time>2026-04-05T15:55:16Z</time></trkpt><trkpt lat="43.96107915033747" lon="11.22168770721304"><ele>304.0</ele><time>2026-04-05T15:55:28Z</time></trkpt><trkpt lat="43.96101458934333" lon="11.221719380274127"><ele>304.16666666666663</ele><time>2026-04-05T15:55:30Z</time></trkpt><trkpt lat="43.96093893870229" lon="11.221731211731324"><ele>304.3333333333333</ele><time>2026-04-05T15:55:32Z</time></trkpt><trkpt lat="43.96085894777382" lon="11.221743817583354"><ele>304.5</ele><time>2026-04-05T15:55:34Z</time></trkpt><trkpt lat="43.960764410480614" lon="11.221760538087214"><ele>304.6666666666667</ele><time>2026-04-05T15:55:36Z</time></trkpt><trkpt lat="43.960684662555316" lon="11.221808117023384"><ele>304.83333333333337</ele><time>2026-04-05T15:55:38Z</time></trkpt><trkpt lat="43.960598724759876" lon="11.221888585670865"><ele>305.0</ele><time>2026-04-05T15:55:40Z</time></trkpt><trkpt lat="43.96054241194428" lon="11.221939097075778"><ele>305.0</ele><time>2026-04-05T15:55:41Z</time></trkpt><trkpt lat="43.9604829398144" lon="11.221989805205498"><ele>305.0</ele><time>2026-04-05T15:55:42Z</time></trkpt><trkpt lat="43.96042432335825" lon="11.222045780945253"><ele>305.0</ele><time>2026-04-05T15:55:43Z</time></trkpt><trkpt lat="43.96037476548458" lon="11.222100051745462"><ele>305.0</ele><time>2026-04-05T15:55:44Z</time></trkpt><trkpt lat="43.96029825865491" lon="11.222188270336288"><ele>305.0</ele><time>2026-04-05T15:55:46.001Z</time></trkpt><trkpt lat="43.9602009085873" lon="11.22227536185511"><ele>305.0</ele><time>2026-04-05T15:55:48.001Z</time></trkpt><trkpt lat="43.96014835438463" lon="11.222323616331732"><ele>306.5</ele><time>2026-04-05T15:55:49.001Z</time></trkpt><trkpt lat="43.96007116614689" lon="11.222390325308496"><ele>308.0</ele><time>2026-04-05T15:55:51.001Z</time></trkpt><trkpt lat="43.96000613185809" lon="11.222451231384873"><ele>309.5</ele><time>2026-04-05T15:55:53.001Z</time></trkpt><trkpt lat="43.95994079472703" lon="11.22251414101195"><ele>311.0</ele><time>2026-04-05T15:55:55.001Z</time></trkpt><trkpt lat="43.95988171332247" lon="11.222550156408758"><ele>312.5</ele><time>2026-04-05T15:55:57.001Z</time></trkpt><trkpt lat="43.95979478004245" lon="11.222558785534032"><ele>314.0</ele><time>2026-04-05T15:56:19Z</time></trkpt><trkpt lat="43.95987238549444" lon="11.222570537339756"><ele>314.0</ele><time>2026-04-05T15:56:46Z</time></trkpt><trkpt lat="43.95993394724062" lon="11.22251266114125"><ele>314.0</ele><time>2026-04-05T15:56:57Z</time></trkpt><trkpt lat="43.96003363211982" lon="11.22242557771459"><ele>314.0</ele><time>2026-04-05T15:56:59Z</time></trkpt><trkpt lat="43.9600877777217" lon="11.222371202769583"><ele>314.0</ele><time>2026-04-05T15:57:00Z</time></trkpt><trkpt lat="43.960143585443326" lon="11.222322035900268"><ele>314.0</ele><time>2026-04-05T15:57:01Z</time></trkpt><trkpt lat="43.96020606031758" lon="11.222269010026961"><ele>314.0</ele><time>2026-04-05T15:57:02Z</time></trkpt><trkpt lat="43.96026644812104" lon="11.22221692643604"><ele>312.2</ele><time>2026-04-05T15:57:03Z</time></trkpt><trkpt lat="43.96034274686331" lon="11.22214010974793"><ele>310.4</ele><time>2026-04-05T15:57:05Z</time></trkpt><trkpt lat="43.96040420852881" lon="11.222069104185758"><ele>308.6</ele><time>2026-04-05T15:57:07Z</time></trkpt><trkpt lat="43.960483127654854" lon="11.221984640169339"><ele>306.8</ele><time>2026-04-05T15:57:09Z</time></trkpt><trkpt lat="43.96057445342891" lon="11.221910787775641"><ele>305.0</ele><time>2026-04-05T15:57:11Z</time></trkpt><trkpt lat="43.9606667434925" lon="11.221831109637234"><ele>305.0</ele><time>2026-04-05T15:57:13Z</time></trkpt><trkpt lat="43.960735446913326" lon="11.221776699159307"><ele>305.0</ele><time>2026-04-05T15:57:16Z</time></trkpt><trkpt lat="43.960838194490705" lon="11.22174804471519"><ele>305.0</ele><time>2026-04-05T15:57:19Z</time></trkpt><trkpt lat="43.960942916330325" lon="11.221735388142514"><ele>305.0</ele><time>2026-04-05T15:57:21Z</time></trkpt><trkpt lat="43.96103251047824" lon="11.221714324169447"><ele>305.0</ele><time>2026-04-05T15:57:23Z</time></trkpt><trkpt lat="43.96109708773709" lon="11.221685139318586"><ele>305.0</ele><time>2026-04-05T15:57:26Z</time></trkpt><trkpt lat="43.96116181787408" lon="11.221630177483293"><ele>304.8</ele><time>2026-04-05T15:57:29Z</time></trkpt><trkpt lat="43.96123006497397" lon="11.221525470793932"><ele>304.6</ele><time>2026-04-05T15:57:32Z</time></trkpt><trkpt lat="43.961278652363696" lon="11.22141415207605"><ele>304.4</ele><time>2026-04-05T15:57:34Z</time></trkpt><trkpt lat="43.96132280322167" lon="11.22130502490171"><ele>304.2</ele><time>2026-04-05T15:57:36Z</time></trkpt><trkpt lat="43.961367862109945" lon="11.221206504302843"><ele>304.0</ele><time>2026-04-05T15:57:38Z</time></trkpt><trkpt lat="43.96141802864874" lon="11.221106282060472"><ele>304.0</ele><time>2026-04-05T15:57:40Z</time></trkpt><trkpt lat="43.9614702135771" lon="11.221008017746499"><ele>304.0</ele><time>2026-04-05T15:57:42Z</time></trkpt><trkpt lat="43.961514598917404" lon="11.220920727687417"><ele>304.0</ele><time>2026-04-05T15:57:44Z</time></trkpt><trkpt lat="43.96157438123038" lon="11.220845339990706"><ele>304.0</ele><time>2026-04-05T15:57:47Z</time></trkpt><trkpt lat="43.96164853105218" lon="11.220868646399612"><ele>304.0</ele><time>2026-04-05T15:58:00Z</time></trkpt><trkpt lat="43.96165649655155" lon="11.220974191972457"><ele>304.0</ele><time>2026-04-05T15:58:02Z</time></trkpt><trkpt lat="43.96166209061584" lon="11.221147273254815"><ele>304.0</ele><time>2026-04-05T15:58:04Z</time></trkpt><trkpt lat="43.96168343935748" lon="11.221241501990411"><ele>304.0</ele><time>2026-04-05T15:58:05Z</time></trkpt><trkpt lat="43.96170742253467" lon="11.221334566343444"><ele>304.0</ele><time>2026-04-05T15:58:06Z</time></trkpt><trkpt lat="43.96175930028009" lon="11.22149303715659"><ele>304.0</ele><time>2026-04-05T15:58:08Z</time></trkpt><trkpt lat="43.96178983578122" lon="11.221655102381186"><ele>304.0</ele><time>2026-04-05T15:58:10Z</time></trkpt><trkpt lat="43.96181279249106" lon="11.221756245796776"><ele>304.0</ele><time>2026-04-05T15:58:12Z</time></trkpt><trkpt lat="43.96177854020709" lon="11.221653864207632"><ele>304.0</ele><time>2026-04-05T15:58:28Z</time></trkpt><trkpt lat="43.96175003127027" lon="11.221520687417899"><ele>304.0</ele><time>2026-04-05T15:58:30Z</time></trkpt><trkpt lat="43.9617176025714" lon="11.221369200284187"><ele>304.0</ele><time>2026-04-05T15:58:31Z</time></trkpt><trkpt lat="43.961695285470434" lon="11.221276933192986"><ele>304.0</ele><time>2026-04-05T15:58:32Z</time></trkpt><trkpt lat="43.96166920935864" lon="11.221185899949276"><ele>304.0</ele><time>2026-04-05T15:58:33Z</time></trkpt><trkpt lat="43.96163106993292" lon="11.220992441604647"><ele>304.0</ele><time>2026-04-05T15:58:35Z</time></trkpt><trkpt lat="43.961612852143574" lon="11.220901511604355"><ele>304.0</ele><time>2026-04-05T15:58:36Z</time></trkpt><trkpt lat="43.961602170470506" lon="11.220811067943659"><ele>304.0</ele><time>2026-04-05T15:58:37Z</time></trkpt><trkpt lat="43.961599854552446" lon="11.220642157602757"><ele>304.0</ele><time>2026-04-05T15:58:39Z</time></trkpt><trkpt lat="43.96161325085321" lon="11.220541944120905"><ele>304.0</ele><time>2026-04-05T15:58:40Z</time></trkpt><trkpt lat="43.961635321555484" lon="11.220434596245978"><ele>304.0</ele><time>2026-04-05T15:58:41Z</time></trkpt><trkpt lat="43.96166757923845" lon="11.220331585133815"><ele>304.2</ele><time>2026-04-05T15:58:42Z</time></trkpt><trkpt lat="43.9617004812519" lon="11.220193683916436"><ele>304.4</ele><time>2026-04-05T15:58:44Z</time></trkpt><trkpt lat="43.96181338547312" lon="11.220156961292828"><ele>304.6</ele><time>2026-04-05T15:58:45Z</time></trkpt><trkpt lat="43.96187755975088" lon="11.220051595537466"><ele>304.8</ele><time>2026-04-05T15:58:47Z</time></trkpt><trkpt lat="43.96197658311613" lon="11.219947158806853"><ele>305.0</ele><time>2026-04-05T15:58:49Z</time></trkpt><trkpt lat="43.96204054828009" lon="11.219890705866279"><ele>305.0</ele><time>2026-04-05T15:58:50Z</time></trkpt><trkpt lat="43.96210622143741" lon="11.219840224867689"><ele>305.0</ele><time>2026-04-05T15:58:51Z</time></trkpt><trkpt lat="43.96217108402536" lon="11.219797472569569"><ele>305.0</ele><time>2026-04-05T15:58:52Z</time></trkpt><trkpt lat="43.962270824145" lon="11.21973417086995"><ele>305.0</ele><time>2026-04-05T15:58:54Z</time></trkpt><trkpt lat="43.96236323270122" lon="11.219682162636756"><ele>305.0</ele><time>2026-04-05T15:58:56Z</time></trkpt><trkpt lat="43.962429292823934" lon="11.219650419047609"><ele>305.0</ele><time>2026-04-05T15:58:58Z</time></trkpt><trkpt lat="43.96248603219277" lon="11.219609668910254"><ele>305.0</ele><time>2026-04-05T15:59:04Z</time></trkpt><trkpt lat="43.96240849747655" lon="11.219667611716039"><ele>305.0</ele><time>2026-04-05T15:59:17Z</time></trkpt><trkpt lat="43.96234346307686" lon="11.219660682724724"><ele>305.0</ele><time>2026-04-05T15:59:18Z</time></trkpt><trkpt lat="43.962274242465874" lon="11.219712985576532"><ele>305.0</ele><time>2026-04-05T15:59:19Z</time></trkpt><trkpt lat="43.962200211072535" lon="11.219764027283452"><ele>305.0</ele><time>2026-04-05T15:59:20Z</time></trkpt><trkpt lat="43.96212880661945" lon="11.219821716746909"><ele>305.0</ele><time>2026-04-05T15:59:21Z</time></trkpt><trkpt lat="43.96205118676307" lon="11.219859705328709"><ele>305.0</ele><time>2026-04-05T15:59:22Z</time></trkpt><trkpt lat="43.961975857277146" lon="11.219921506338721"><ele>305.0</ele><time>2026-04-05T15:59:23Z</time></trkpt><trkpt lat="43.96191734531135" lon="11.22000334989074"><ele>305.0</ele><time>2026-04-05T15:59:24Z</time></trkpt><trkpt lat="43.9618604531327" lon="11.220057455871233"><ele>305.0</ele><time>2026-04-05T15:59:25Z</time></trkpt><trkpt lat="43.96181300454565" lon="11.220123332876057"><ele>305.0</ele><time>2026-04-05T15:59:26Z</time></trkpt><trkpt lat="43.96177243252856" lon="11.22020101295161"><ele>305.0</ele><time>2026-04-05T15:59:27Z</time></trkpt><trkpt lat="43.96173875011201" lon="11.220287526438181"><ele>305.0</ele><time>2026-04-05T15:59:28Z</time></trkpt><trkpt lat="43.961697084563134" lon="11.220365393426347"><ele>304.83333333333337</ele><time>2026-04-05T15:59:29Z</time></trkpt><trkpt lat="43.96166975548208" lon="11.220448509587843"><ele>304.6666666666667</ele><time>2026-04-05T15:59:30Z</time></trkpt><trkpt lat="43.96164558966149" lon="11.22053304215521"><ele>304.5</ele><time>2026-04-05T15:59:31Z</time></trkpt><trkpt lat="43.96162056178318" lon="11.220676210609899"><ele>304.3333333333333</ele><time>2026-04-05T15:59:33Z</time></trkpt><trkpt lat="43.96162681802554" lon="11.220790821762796"><ele>304.16666666666663</ele><time>2026-04-05T15:59:36Z</time></trkpt><trkpt lat="43.96160268004283" lon="11.220684308651318"><ele>304.0</ele><time>2026-04-05T15:59:50Z</time></trkpt><trkpt lat="43.96162063723161" lon="11.220564458043986"><ele>303.59999999999997</ele><time>2026-04-05T15:59:53Z</time></trkpt><trkpt lat="43.96163162528716" lon="11.220449721143588"><ele>303.2</ele><time>2026-04-05T15:59:56Z</time></trkpt><trkpt lat="43.96149676743732" lon="11.220311203223911"><ele>302.79999999999995</ele><time>2026-04-05T15:59:57Z</time></trkpt><trkpt lat="43.96146631015127" lon="11.22020018414372"><ele>302.4</ele><time>2026-04-05T15:59:59Z</time></trkpt><trkpt lat="43.961446508754946" lon="11.220097776487169"><ele>302.0</ele><time>2026-04-05T16:00:03Z</time></trkpt><trkpt lat="43.961404121577594" lon="11.220005444963764"><ele>302.0</ele><time>2026-04-05T16:00:10.001Z</time></trkpt><trkpt lat="43.96135241912257" lon="11.219908605588238"><ele>302.0</ele><time>2026-04-05T16:00:13.001Z</time></trkpt><trkpt lat="43.961303686089934" lon="11.219842076032599"><ele>302.0</ele><time>2026-04-05T16:00:16.001Z</time></trkpt><trkpt lat="43.96126471167641" lon="11.219762918422399"><ele>302.0</ele><time>2026-04-05T16:00:19.001Z</time></trkpt><trkpt lat="43.96119411301446" lon="11.219681744476134"><ele>302.0</ele><time>2026-04-05T16:00:21.001Z</time></trkpt><trkpt lat="43.9611291472258" lon="11.219592842366083"><ele>302.0</ele><time>2026-04-05T16:00:23Z</time></trkpt><trkpt lat="43.961039966788476" lon="11.219481972883639"><ele>301.6</ele><time>2026-04-05T16:00:25Z</time></trkpt><trkpt lat="43.96095999321063" lon="11.219377343255143"><ele>301.2</ele><time>2026-04-05T16:00:27Z</time></trkpt><trkpt lat="43.96088919503136" lon="11.219268544765756"><ele>300.8</ele><time>2026-04-05T16:00:29Z</time></trkpt><trkpt lat="43.96084962132141" lon="11.219174870408994"><ele>300.4</ele><time>2026-04-05T16:00:31Z</time></trkpt><trkpt lat="43.960829581608245" lon="11.219050088688345"><ele>300.0</ele><time>2026-04-05T16:00:33Z</time></trkpt><trkpt lat="43.96080153437776" lon="11.218911888143808"><ele>301.8</ele><time>2026-04-05T16:00:35Z</time></trkpt><trkpt lat="43.960770724770846" lon="11.218747640531996"><ele>303.6</ele><time>2026-04-05T16:00:37Z</time></trkpt><trkpt lat="43.96074465512161" lon="11.218618982127419"><ele>305.4</ele><time>2026-04-05T16:00:39Z</time></trkpt><trkpt lat="43.96070685470332" lon="11.21853255611252"><ele>307.2</ele><time>2026-04-05T16:00:41Z</time></trkpt><trkpt lat="43.960670633278156" lon="11.218383179284823"><ele>309.0</ele><time>2026-04-05T16:00:43Z</time></trkpt><trkpt lat="43.96064359360003" lon="11.218302478644567"><ele>309.0</ele><time>2026-04-05T16:00:44Z</time></trkpt><trkpt lat="43.96059645048353" lon="11.218176299676108"><ele>309.0</ele><time>2026-04-05T16:00:46Z</time></trkpt><trkpt lat="43.96052482980868" lon="11.21808230204465"><ele>309.0</ele><time>2026-04-05T16:00:48Z</time></trkpt><trkpt lat="43.96041055346508" lon="11.218014051614093"><ele>309.0</ele><time>2026-04-05T16:00:50Z</time></trkpt><trkpt lat="43.960347728673334" lon="11.217998248360468"><ele>309.0</ele><time>2026-04-05T16:00:51Z</time></trkpt><trkpt lat="43.9602787922496" lon="11.21800146385216"><ele>308.5</ele><time>2026-04-05T16:00:52Z</time></trkpt><trkpt lat="43.96020044500332" lon="11.218015985885998"><ele>308.0</ele><time>2026-04-05T16:00:53Z</time></trkpt><trkpt lat="43.96012975035156" lon="11.218023288300468"><ele>307.5</ele><time>2026-04-05T16:00:54Z</time></trkpt><trkpt lat="43.96005190236261" lon="11.217978035141519"><ele>307.0</ele><time>2026-04-05T16:00:56Z</time></trkpt><trkpt lat="43.96001812019728" lon="11.217891480436796"><ele>306.5</ele><time>2026-04-05T16:00:58Z</time></trkpt><trkpt lat="43.96004317299476" lon="11.217800737034011"><ele>306.0</ele><time>2026-04-05T16:01:00Z</time></trkpt><trkpt lat="43.96012167603456" lon="11.217644701729043"><ele>306.0</ele><time>2026-04-05T16:01:02Z</time></trkpt><trkpt lat="43.96016096267228" lon="11.217537132546907"><ele>306.0</ele><time>2026-04-05T16:01:03Z</time></trkpt><trkpt lat="43.96020214638271" lon="11.21743782064801"><ele>306.0</ele><time>2026-04-05T16:01:04Z</time></trkpt><trkpt lat="43.96024327075152" lon="11.21736014863487"><ele>306.0</ele><time>2026-04-05T16:01:05Z</time></trkpt><trkpt lat="43.960300175050065" lon="11.217275558744236"><ele>306.0</ele><time>2026-04-05T16:01:06Z</time></trkpt><trkpt lat="43.96035635443242" lon="11.217202537393598"><ele>306.0</ele><time>2026-04-05T16:01:07Z</time></trkpt><trkpt lat="43.960404416726696" lon="11.217133463913383"><ele>306.1666666666667</ele><time>2026-04-05T16:01:08Z</time></trkpt><trkpt lat="43.96044293192273" lon="11.217058160984214"><ele>306.3333333333333</ele><time>2026-04-05T16:01:09Z</time></trkpt><trkpt lat="43.9604858518797" lon="11.216975311418986"><ele>306.5</ele><time>2026-04-05T16:01:10Z</time></trkpt><trkpt lat="43.96053112744616" lon="11.216886023189282"><ele>306.66666666666663</ele><time>2026-04-05T16:01:11Z</time></trkpt><trkpt lat="43.960573383635165" lon="11.216792697198082"><ele>306.8333333333333</ele><time>2026-04-05T16:01:12Z</time></trkpt><trkpt lat="43.96061444961551" lon="11.21670306541988"><ele>307.0</ele><time>2026-04-05T16:01:13Z</time></trkpt><trkpt lat="43.96066246188841" lon="11.216608325148542"><ele>307.0</ele><time>2026-04-05T16:01:14Z</time></trkpt><trkpt lat="43.96072397663559" lon="11.21652110825026"><ele>307.0</ele><time>2026-04-05T16:01:15Z</time></trkpt><trkpt lat="43.96076993348847" lon="11.216435370590853"><ele>307.0</ele><time>2026-04-05T16:01:16Z</time></trkpt><trkpt lat="43.96080680567116" lon="11.216329387808782"><ele>307.0</ele><time>2026-04-05T16:01:17Z</time></trkpt><trkpt lat="43.96087098925435" lon="11.216233481541552"><ele>307.0</ele><time>2026-04-05T16:01:18Z</time></trkpt><trkpt lat="43.96093795184857" lon="11.216149618706169"><ele>307.0</ele><time>2026-04-05T16:01:19Z</time></trkpt><trkpt lat="43.961020860809924" lon="11.216092682702497"><ele>306.4</ele><time>2026-04-05T16:01:20Z</time></trkpt><trkpt lat="43.961104355330264" lon="11.216010071278466"><ele>305.79999999999995</ele><time>2026-04-05T16:01:21Z</time></trkpt><trkpt lat="43.96117357791607" lon="11.21593804559588"><ele>305.2</ele><time>2026-04-05T16:01:22Z</time></trkpt><trkpt lat="43.961237848183394" lon="11.215849818671465"><ele>304.59999999999997</ele><time>2026-04-05T16:01:23Z</time></trkpt><trkpt lat="43.96132316949969" lon="11.215785809906247"><ele>304.0</ele><time>2026-04-05T16:01:24Z</time></trkpt><trkpt lat="43.96138969953324" lon="11.215718437336228"><ele>304.3333333333333</ele><time>2026-04-05T16:01:25Z</time></trkpt><trkpt lat="43.961438197292374" lon="11.215643260227077"><ele>304.66666666666663</ele><time>2026-04-05T16:01:26Z</time></trkpt><trkpt lat="43.96152879285025" lon="11.215550969530572"><ele>305.0</ele><time>2026-04-05T16:01:28Z</time></trkpt><trkpt lat="43.961585809827646" lon="11.215473192866527"><ele>305.3333333333333</ele><time>2026-04-05T16:01:30Z</time></trkpt><trkpt lat="43.961552212513574" lon="11.21536632233291"><ele>305.6666666666667</ele><time>2026-04-05T16:01:35Z</time></trkpt><trkpt lat="43.961496891383895" lon="11.215305434651162"><ele>306.0</ele><time>2026-04-05T16:01:36Z</time></trkpt><trkpt lat="43.96142620385211" lon="11.215257634173822"><ele>306.0</ele><time>2026-04-05T16:01:37Z</time></trkpt><trkpt lat="43.961345942282676" lon="11.215208358544157"><ele>306.0</ele><time>2026-04-05T16:01:38Z</time></trkpt><trkpt lat="43.96126952768669" lon="11.215157591494428"><ele>306.0</ele><time>2026-04-05T16:01:39Z</time></trkpt><trkpt lat="43.96118948767425" lon="11.21510176362771"><ele>306.0</ele><time>2026-04-05T16:01:40Z</time></trkpt><trkpt lat="43.96110347084524" lon="11.215040566688831"><ele>306.0</ele><time>2026-04-05T16:01:41Z</time></trkpt><trkpt lat="43.96101475390319" lon="11.214970535636386"><ele>306.0</ele><time>2026-04-05T16:01:42Z</time></trkpt><trkpt lat="43.960922749957184" lon="11.214897500140067"><ele>306.0</ele><time>2026-04-05T16:01:43.001Z</time></trkpt><trkpt lat="43.96082574434263" lon="11.214821736730103"><ele>306.0</ele><time>2026-04-05T16:01:44.001Z</time></trkpt><trkpt lat="43.96074056382827" lon="11.214759919162693"><ele>306.0</ele><time>2026-04-05T16:01:45.001Z</time></trkpt><trkpt lat="43.96065689793787" lon="11.214694873705659"><ele>306.0</ele><time>2026-04-05T16:01:46.001Z</time></trkpt><trkpt lat="43.96056100813849" lon="11.214622173414645"><ele>306.25</ele><time>2026-04-05T16:01:47.001Z</time></trkpt><trkpt lat="43.96045905937795" lon="11.214552347436848"><ele>306.5</ele><time>2026-04-05T16:01:48.001Z</time></trkpt><trkpt lat="43.96034309024227" lon="11.214494156300484"><ele>306.75</ele><time>2026-04-05T16:01:49.001Z</time></trkpt><trkpt lat="43.96021171089189" lon="11.214456813650632"><ele>307.0</ele><time>2026-04-05T16:01:50.001Z</time></trkpt><trkpt lat="43.96006950531888" lon="11.214439582510426"><ele>308.0</ele><time>2026-04-05T16:01:51.001Z</time></trkpt><trkpt lat="43.95992338923171" lon="11.214444448518126"><ele>309.0</ele><time>2026-04-05T16:01:52.001Z</time></trkpt><trkpt lat="43.959772289852374" lon="11.214456967228786"><ele>310.0</ele><time>2026-04-05T16:01:53.001Z</time></trkpt><trkpt lat="43.959623891603755" lon="11.214470194854684"><ele>311.0</ele><time>2026-04-05T16:01:54.001Z</time></trkpt><trkpt lat="43.9594841574942" lon="11.214470310353896"><ele>311.0</ele><time>2026-04-05T16:01:55.001Z</time></trkpt><trkpt lat="43.959341785161484" lon="11.214453888575134"><ele>311.0</ele><time>2026-04-05T16:01:56.001Z</time></trkpt><trkpt lat="43.959201218733206" lon="11.214425320811273"><ele>311.0</ele><time>2026-04-05T16:01:57.001Z</time></trkpt><trkpt lat="43.95906143348398" lon="11.214377587898447"><ele>311.0</ele><time>2026-04-05T16:01:58.001Z</time></trkpt><trkpt lat="43.95891134704957" lon="11.214334189764543"><ele>311.0</ele><time>2026-04-05T16:01:59.001Z</time></trkpt><trkpt lat="43.958765995283635" lon="11.214214665592893"><ele>311.0</ele><time>2026-04-05T16:02:00.001Z</time></trkpt><trkpt lat="43.9586232727178" lon="11.214094546624406"><ele>311.0</ele><time>2026-04-05T16:02:01.001Z</time></trkpt><trkpt lat="43.9584788937064" lon="11.213963038999829"><ele>314.0</ele><time>2026-04-05T16:02:02.001Z</time></trkpt><trkpt lat="43.958332970762555" lon="11.213850689325653"><ele>317.0</ele><time>2026-04-05T16:02:03.001Z</time></trkpt><trkpt lat="43.95821017010529" lon="11.213713102055326"><ele>320.0</ele><time>2026-04-05T16:02:04.001Z</time></trkpt><trkpt lat="43.95808522550319" lon="11.21360045969694"><ele>320.0</ele><time>2026-04-05T16:02:05.001Z</time></trkpt><trkpt lat="43.95796664271142" lon="11.213503999883303"><ele>320.0</ele><time>2026-04-05T16:02:06.001Z</time></trkpt><trkpt lat="43.95786155763991" lon="11.213432716924464"><ele>320.0</ele><time>2026-04-05T16:02:07.001Z</time></trkpt><trkpt lat="43.95776235383163" lon="11.21338425831294"><ele>320.0</ele><time>2026-04-05T16:02:08.001Z</time></trkpt><trkpt lat="43.9576594588034" lon="11.21330890521614"><ele>324.6666666666667</ele><time>2026-04-05T16:02:09.001Z</time></trkpt><trkpt lat="43.957528620165256" lon="11.213276950192775"><ele>329.3333333333333</ele><time>2026-04-05T16:02:10.001Z</time></trkpt><trkpt lat="43.95737723372966" lon="11.213285520719296"><ele>334.0</ele><time>2026-04-05T16:02:11.001Z</time></trkpt><trkpt lat="43.95721091186582" lon="11.213317098766577"><ele>334.0</ele><time>2026-04-05T16:02:12.001Z</time></trkpt><trkpt lat="43.957031730636444" lon="11.213344318046133"><ele>334.0</ele><time>2026-04-05T16:02:13.001Z</time></trkpt><trkpt lat="43.956848059617414" lon="11.213348566502752"><ele>334.0</ele><time>2026-04-05T16:02:14.001Z</time></trkpt><trkpt lat="43.956661822312114" lon="11.21333917429404"><ele>338.0</ele><time>2026-04-05T16:02:15.001Z</time></trkpt><trkpt lat="43.95647954568097" lon="11.213317928740667"><ele>342.0</ele><time>2026-04-05T16:02:16.001Z</time></trkpt><trkpt lat="43.95629582157179" lon="11.21328836877808"><ele>346.0</ele><time>2026-04-05T16:02:17.001Z</time></trkpt><trkpt lat="43.956116607759064" lon="11.213263146744668"><ele>346.0</ele><time>2026-04-05T16:02:18.001Z</time></trkpt><trkpt lat="43.95594673384224" lon="11.213240660018544"><ele>346.0</ele><time>2026-04-05T16:02:19.001Z</time></trkpt><trkpt lat="43.95578435956961" lon="11.213220226992826"><ele>346.0</ele><time>2026-04-05T16:02:20.001Z</time></trkpt><trkpt lat="43.95562959084501" lon="11.213218055899661"><ele>349.0</ele><time>2026-04-05T16:02:21.001Z</time></trkpt><trkpt lat="43.95546846611135" lon="11.213247017643358"><ele>352.0</ele><time>2026-04-05T16:02:22.001Z</time></trkpt><trkpt lat="43.95530364102576" lon="11.213300617253404"><ele>355.0</ele><time>2026-04-05T16:02:23.001Z</time></trkpt><trkpt lat="43.95513591241032" lon="11.213361913043643"><ele>359.3333333333333</ele><time>2026-04-05T16:02:24.001Z</time></trkpt><trkpt lat="43.95496340510031" lon="11.213420654346649"><ele>363.6666666666667</ele><time>2026-04-05T16:02:25.001Z</time></trkpt><trkpt lat="43.954797098685646" lon="11.213487304740834"><ele>368.0</ele><time>2026-04-05T16:02:26.001Z</time></trkpt><trkpt lat="43.95463425874523" lon="11.213544320452348"><ele>368.0</ele><time>2026-04-05T16:02:27.001Z</time></trkpt><trkpt lat="43.95447806121529" lon="11.213582306571082"><ele>368.0</ele><time>2026-04-05T16:02:28.001Z</time></trkpt><trkpt lat="43.9543300817528" lon="11.213588190786313"><ele>368.0</ele><time>2026-04-05T16:02:29Z</time></trkpt><trkpt lat="43.95418461156867" lon="11.213504448644787"><ele>371.33333333333337</ele><time>2026-04-05T16:02:30Z</time></trkpt><trkpt lat="43.954040329888535" lon="11.213416238727484"><ele>374.6666666666667</ele><time>2026-04-05T16:02:31Z</time></trkpt><trkpt lat="43.95389346114716" lon="11.213314119680003"><ele>378.0</ele><time>2026-04-05T16:02:32Z</time></trkpt><trkpt lat="43.95372938170961" lon="11.213275454303655"><ele>378.0</ele><time>2026-04-05T16:02:33Z</time></trkpt><trkpt lat="43.95356837360661" lon="11.21329763446484"><ele>378.0</ele><time>2026-04-05T16:02:34Z</time></trkpt><trkpt lat="43.953398678061035" lon="11.213362125700584"><ele>378.0</ele><time>2026-04-05T16:02:35Z</time></trkpt><trkpt lat="43.953219525897985" lon="11.213399243775214"><ele>377.3333333333333</ele><time>2026-04-05T16:02:36Z</time></trkpt><trkpt lat="43.95303463920557" lon="11.213377012895734"><ele>376.66666666666663</ele><time>2026-04-05T16:02:37Z</time></trkpt><trkpt lat="43.95286190100643" lon="11.213286962798279"><ele>376.0</ele><time>2026-04-05T16:02:38Z</time></trkpt><trkpt lat="43.95270540177946" lon="11.213206824813252"><ele>379.66666666666663</ele><time>2026-04-05T16:02:39Z</time></trkpt><trkpt lat="43.95254783897336" lon="11.21308983075341"><ele>383.3333333333333</ele><time>2026-04-05T16:02:40Z</time></trkpt><trkpt lat="43.952387597432775" lon="11.212963083355673"><ele>387.0</ele><time>2026-04-05T16:02:41Z</time></trkpt><trkpt lat="43.95223056343783" lon="11.212824469253697"><ele>387.0</ele><time>2026-04-05T16:02:42Z</time></trkpt><trkpt lat="43.9520639419196" lon="11.212696927852832"><ele>387.0</ele><time>2026-04-05T16:02:43Z</time></trkpt><trkpt lat="43.95190350749959" lon="11.212551298114207"><ele>387.0</ele><time>2026-04-05T16:02:44Z</time></trkpt><trkpt lat="43.95177564863538" lon="11.21235619292542"><ele>391.33333333333337</ele><time>2026-04-05T16:02:45Z</time></trkpt><trkpt lat="43.9516206593912" lon="11.212167606157502"><ele>395.6666666666667</ele><time>2026-04-05T16:02:46Z</time></trkpt><trkpt lat="43.951486306674404" lon="11.211941070628999"><ele>400.0</ele><time>2026-04-05T16:02:47Z</time></trkpt><trkpt lat="43.95134378740354" lon="11.211724595616294"><ele>400.0</ele><time>2026-04-05T16:02:48Z</time></trkpt><trkpt lat="43.951198476060135" lon="11.211517653792658"><ele>400.0</ele><time>2026-04-05T16:02:49Z</time></trkpt><trkpt lat="43.951068193281515" lon="11.211339951146268"><ele>400.0</ele><time>2026-04-05T16:02:50Z</time></trkpt><trkpt lat="43.95098098540606" lon="11.211148079261708"><ele>399.33333333333337</ele><time>2026-04-05T16:02:51Z</time></trkpt><trkpt lat="43.9509278795015" lon="11.21095247752024"><ele>398.66666666666663</ele><time>2026-04-05T16:02:52Z</time></trkpt><trkpt lat="43.95088735395025" lon="11.210722516377533"><ele>398.0</ele><time>2026-04-05T16:02:53Z</time></trkpt><trkpt lat="43.95084606289288" lon="11.21048096393275"><ele>398.0</ele><time>2026-04-05T16:02:54Z</time></trkpt><trkpt lat="43.95079359997111" lon="11.210237042518337"><ele>398.0</ele><time>2026-04-05T16:02:55Z</time></trkpt><trkpt lat="43.95077491328048" lon="11.209968761861079"><ele>398.0</ele><time>2026-04-05T16:02:56Z</time></trkpt><trkpt lat="43.9507367212428" lon="11.209742482000689"><ele>399.5</ele><time>2026-04-05T16:02:57Z</time></trkpt><trkpt lat="43.95070299766536" lon="11.209556796863582"><ele>401.0</ele><time>2026-04-05T16:02:58Z</time></trkpt><trkpt lat="43.950659342951404" lon="11.20940663241589"><ele>402.5</ele><time>2026-04-05T16:02:59Z</time></trkpt><trkpt lat="43.950582905386305" lon="11.20928091182608"><ele>404.0</ele><time>2026-04-05T16:03:00Z</time></trkpt><trkpt lat="43.95055596184636" lon="11.209104060709695"><ele>404.0</ele><time>2026-04-05T16:03:01Z</time></trkpt><trkpt lat="43.9503427032157" lon="11.209207035637895"><ele>404.0</ele><time>2026-04-05T16:03:02.001Z</time></trkpt><trkpt lat="43.95022138933939" lon="11.209256187865332"><ele>404.0</ele><time>2026-04-05T16:03:03.001Z</time></trkpt><trkpt lat="43.950121865657444" lon="11.209365058759557"><ele>403.66666666666663</ele><time>2026-04-05T16:03:04.001Z</time></trkpt><trkpt lat="43.95004169179988" lon="11.209524824253666"><ele>403.33333333333337</ele><time>2026-04-05T16:03:05.001Z</time></trkpt><trkpt lat="43.94998703586735" lon="11.209741372766967"><ele>403.0</ele><time>2026-04-05T16:03:06.001Z</time></trkpt><trkpt lat="43.94994007204998" lon="11.209958025416405"><ele>403.0</ele><time>2026-04-05T16:03:07.001Z</time></trkpt><trkpt lat="43.9498794510301" lon="11.21016988084883"><ele>403.0</ele><time>2026-04-05T16:03:08.001Z</time></trkpt><trkpt lat="43.94977606167197" lon="11.210393403347279"><ele>403.0</ele><time>2026-04-05T16:03:09.001Z</time></trkpt><trkpt lat="43.94964134695558" lon="11.210573756378846"><ele>402.6666666666667</ele><time>2026-04-05T16:03:10.001Z</time></trkpt><trkpt lat="43.949485614809745" lon="11.210689739920586"><ele>402.33333333333337</ele><time>2026-04-05T16:03:11.001Z</time></trkpt><trkpt lat="43.949326887393056" lon="11.210764591352572"><ele>402.0</ele><time>2026-04-05T16:03:12.001Z</time></trkpt><trkpt lat="43.94914914038953" lon="11.210782946788262"><ele>402.0</ele><time>2026-04-05T16:03:13.001Z</time></trkpt><trkpt lat="43.94897268142246" lon="11.210758631064419"><ele>402.0</ele><time>2026-04-05T16:03:14.001Z</time></trkpt><trkpt lat="43.948794779784556" lon="11.210663983890198"><ele>402.0</ele><time>2026-04-05T16:03:15.001Z</time></trkpt><trkpt lat="43.94863931201834" lon="11.210530101690157"><ele>405.25</ele><time>2026-04-05T16:03:16.001Z</time></trkpt><trkpt lat="43.94850676058644" lon="11.210416724491177"><ele>408.5</ele><time>2026-04-05T16:03:17.001Z</time></trkpt><trkpt lat="43.948370571832676" lon="11.210382461681322"><ele>411.75</ele><time>2026-04-05T16:03:18.001Z</time></trkpt><trkpt lat="43.948244925442985" lon="11.21042490479973"><ele>415.0</ele><time>2026-04-05T16:03:19.001Z</time></trkpt><trkpt lat="43.94813506508401" lon="11.210527825542862"><ele>415.0</ele><time>2026-04-05T16:03:20.001Z</time></trkpt><trkpt lat="43.94800115556405" lon="11.210628827001088"><ele>415.0</ele><time>2026-04-05T16:03:21.001Z</time></trkpt><trkpt lat="43.94791368969025" lon="11.21082456745311"><ele>415.0</ele><time>2026-04-05T16:03:22.001Z</time></trkpt><trkpt lat="43.947871940905216" lon="11.21103527801"><ele>410.33333333333337</ele><time>2026-04-05T16:03:23.001Z</time></trkpt><trkpt lat="43.94786152615574" lon="11.211274917847302"><ele>405.66666666666663</ele><time>2026-04-05T16:03:24.001Z</time></trkpt><trkpt lat="43.94783006945211" lon="11.211501016915319"><ele>401.0</ele><time>2026-04-05T16:03:25.001Z</time></trkpt><trkpt lat="43.947779151217944" lon="11.211710268928744"><ele>400.66666666666663</ele><time>2026-04-05T16:03:26.001Z</time></trkpt><trkpt lat="43.947682965990694" lon="11.211883903397569"><ele>400.33333333333337</ele><time>2026-04-05T16:03:27.001Z</time></trkpt><trkpt lat="43.94754575801571" lon="11.212007280057652"><ele>400.0</ele><time>2026-04-05T16:03:28.001Z</time></trkpt><trkpt lat="43.947381521307555" lon="11.21210507003383"><ele>403.0</ele><time>2026-04-05T16:03:29.001Z</time></trkpt><trkpt lat="43.947248213583194" lon="11.21224594326896"><ele>406.0</ele><time>2026-04-05T16:03:30.001Z</time></trkpt><trkpt lat="43.94714758066459" lon="11.212430870967799"><ele>409.0</ele><time>2026-04-05T16:03:31.001Z</time></trkpt><trkpt lat="43.94707553915114" lon="11.212654136787865"><ele>409.0</ele><time>2026-04-05T16:03:32.001Z</time></trkpt><trkpt lat="43.94701425381755" lon="11.212860221535912"><ele>409.0</ele><time>2026-04-05T16:03:33.001Z</time></trkpt><trkpt lat="43.94691591836296" lon="11.212984102109472"><ele>409.0</ele><time>2026-04-05T16:03:34.001Z</time></trkpt><trkpt lat="43.94680971862867" lon="11.213092835721607"><ele>409.0</ele><time>2026-04-05T16:03:35.001Z</time></trkpt><trkpt lat="43.94664235142972" lon="11.213134135362415"><ele>412.0</ele><time>2026-04-05T16:03:36.001Z</time></trkpt><trkpt lat="43.94646817231033" lon="11.213170071760212"><ele>415.0</ele><time>2026-04-05T16:03:37.001Z</time></trkpt><trkpt lat="43.94629698703661" lon="11.213207292390246"><ele>418.0</ele><time>2026-04-05T16:03:38.001Z</time></trkpt><trkpt lat="43.94612492449874" lon="11.213267555380272"><ele>418.0</ele><time>2026-04-05T16:03:39.001Z</time></trkpt><trkpt lat="43.945959906558045" lon="11.213347461789693"><ele>418.0</ele><time>2026-04-05T16:03:40.001Z</time></trkpt><trkpt lat="43.945805343176495" lon="11.213446660553569"><ele>418.0</ele><time>2026-04-05T16:03:41.001Z</time></trkpt><trkpt lat="43.94566111996636" lon="11.21354593344825"><ele>420.75</ele><time>2026-04-05T16:03:42.001Z</time></trkpt><trkpt lat="43.94552412857001" lon="11.213640584670177"><ele>423.5</ele><time>2026-04-05T16:03:43.001Z</time></trkpt><trkpt lat="43.94539335074142" lon="11.213713511136863"><ele>426.25</ele><time>2026-04-05T16:03:44.001Z</time></trkpt><trkpt lat="43.94526452185506" lon="11.213752831051295"><ele>429.0</ele><time>2026-04-05T16:03:45.001Z</time></trkpt><trkpt lat="43.945137251246464" lon="11.213758608914926"><ele>427.5</ele><time>2026-04-05T16:03:46.001Z</time></trkpt><trkpt lat="43.94501060001023" lon="11.213739078022037"><ele>426.0</ele><time>2026-04-05T16:03:47.001Z</time></trkpt><trkpt lat="43.94489445991709" lon="11.213739095413256"><ele>424.5</ele><time>2026-04-05T16:03:48.001Z</time></trkpt><trkpt lat="43.94479185122389" lon="11.21378799524648"><ele>423.0</ele><time>2026-04-05T16:03:49.001Z</time></trkpt><trkpt lat="43.94470630893849" lon="11.213911483853714"><ele>424.33333333333337</ele><time>2026-04-05T16:03:50.001Z</time></trkpt><trkpt lat="43.944626537062405" lon="11.214062167590402"><ele>425.6666666666667</ele><time>2026-04-05T16:03:51.001Z</time></trkpt><trkpt lat="43.94453135699095" lon="11.214237174828254"><ele>427.0</ele><time>2026-04-05T16:03:52.001Z</time></trkpt><trkpt lat="43.944429727485016" lon="11.214405429369192"><ele>427.0</ele><time>2026-04-05T16:03:53.001Z</time></trkpt><trkpt lat="43.94433394505612" lon="11.214568424971667"><ele>427.0</ele><time>2026-04-05T16:03:54.001Z</time></trkpt><trkpt lat="43.94424435104656" lon="11.21470762564647"><ele>427.0</ele><time>2026-04-05T16:03:55.001Z</time></trkpt><trkpt lat="43.94416271656419" lon="11.21484150731344"><ele>427.0</ele><time>2026-04-05T16:03:56.001Z</time></trkpt><trkpt lat="43.94408681340315" lon="11.214967410225391"><ele>425.8</ele><time>2026-04-05T16:03:57.001Z</time></trkpt><trkpt lat="43.9440110547002" lon="11.215093371862057"><ele>424.6</ele><time>2026-04-05T16:03:58.001Z</time></trkpt><trkpt lat="43.9439399153791" lon="11.215219955213874"><ele>423.40000000000003</ele><time>2026-04-05T16:03:59.001Z</time></trkpt><trkpt lat="43.94387457824872" lon="11.215332722274283"><ele>422.20000000000005</ele><time>2026-04-05T16:04:00.001Z</time></trkpt><trkpt lat="43.94380695565272" lon="11.215434389476675"><ele>421.0</ele><time>2026-04-05T16:04:01.001Z</time></trkpt><trkpt lat="43.943746053031674" lon="11.215532260811553"><ele>421.0</ele><time>2026-04-05T16:04:02.001Z</time></trkpt><trkpt lat="43.94369321366539" lon="11.21561602097728"><ele>421.0</ele><time>2026-04-05T16:04:03.001Z</time></trkpt><trkpt lat="43.94361005685957" lon="11.215713885341545"><ele>421.0</ele><time>2026-04-05T16:04:05.001Z</time></trkpt><trkpt lat="43.94366225048214" lon="11.215870528733317"><ele>421.0</ele><time>2026-04-05T16:04:06.001Z</time></trkpt><trkpt lat="43.943676652599805" lon="11.215982306118745"><ele>421.0</ele><time>2026-04-05T16:04:07.001Z</time></trkpt><trkpt lat="43.943641517958056" lon="11.216088379514888"><ele>421.0</ele><time>2026-04-05T16:04:08.001Z</time></trkpt><trkpt lat="43.9435574309863" lon="11.216172001764152"><ele>421.0</ele><time>2026-04-05T16:04:09.001Z</time></trkpt><trkpt lat="43.94349516948689" lon="11.216298130439558"><ele>421.0</ele><time>2026-04-05T16:04:10.001Z</time></trkpt><trkpt lat="43.943411030986226" lon="11.216417647809555"><ele>421.0</ele><time>2026-04-05T16:04:11.001Z</time></trkpt><trkpt lat="43.94332549609984" lon="11.21655374131403"><ele>421.0</ele><time>2026-04-05T16:04:12.001Z</time></trkpt><trkpt lat="43.943250911215436" lon="11.216692980179246"><ele>421.0</ele><time>2026-04-05T16:04:13.001Z</time></trkpt><trkpt lat="43.94319289970791" lon="11.216850967473114"><ele>421.0</ele><time>2026-04-05T16:04:14.001Z</time></trkpt><trkpt lat="43.94316512353623" lon="11.217035065702383"><ele>421.0</ele><time>2026-04-05T16:04:15.001Z</time></trkpt><trkpt lat="43.943149715813554" lon="11.21722296677678"><ele>423.0</ele><time>2026-04-05T16:04:16.001Z</time></trkpt><trkpt lat="43.94313771403049" lon="11.217392082549713"><ele>425.0</ele><time>2026-04-05T16:04:17.001Z</time></trkpt><trkpt lat="43.94313796809056" lon="11.217534523212093"><ele>427.0</ele><time>2026-04-05T16:04:18.001Z</time></trkpt><trkpt lat="43.94318405131238" lon="11.217663838663539"><ele>429.0</ele><time>2026-04-05T16:04:19.001Z</time></trkpt><trkpt lat="43.94325543894989" lon="11.217788697862401"><ele>431.0</ele><time>2026-04-05T16:04:20.001Z</time></trkpt><trkpt lat="43.94334377184595" lon="11.217904651146885"><ele>433.3333333333333</ele><time>2026-04-05T16:04:21.001Z</time></trkpt><trkpt lat="43.94342009237853" lon="11.217991398872847"><ele>435.66666666666663</ele><time>2026-04-05T16:04:22.001Z</time></trkpt><trkpt lat="43.94347957123457" lon="11.218062267085582"><ele>438.0</ele><time>2026-04-05T16:04:23.001Z</time></trkpt><trkpt lat="43.94354026584269" lon="11.218128246787304"><ele>440.33333333333337</ele><time>2026-04-05T16:04:24.001Z</time></trkpt><trkpt lat="43.94361023262605" lon="11.218190250055677"><ele>442.6666666666667</ele><time>2026-04-05T16:04:25.001Z</time></trkpt><trkpt lat="43.94366375183264" lon="11.218289819642338"><ele>445.0</ele><time>2026-04-05T16:04:26.001Z</time></trkpt><trkpt lat="43.943728370147255" lon="11.218397051110095"><ele>446.75</ele><time>2026-04-05T16:04:27.001Z</time></trkpt><trkpt lat="43.943784798749924" lon="11.218517244994684"><ele>448.5</ele><time>2026-04-05T16:04:28.001Z</time></trkpt><trkpt lat="43.94385068463247" lon="11.218658764929271"><ele>450.25</ele><time>2026-04-05T16:04:29.001Z</time></trkpt><trkpt lat="43.94392956676182" lon="11.218799464513047"><ele>452.0</ele><time>2026-04-05T16:04:30.001Z</time></trkpt><trkpt lat="43.94397551433883" lon="11.218950097846985"><ele>453.0</ele><time>2026-04-05T16:04:31.001Z</time></trkpt><trkpt lat="43.94404449294758" lon="11.219051038365764"><ele>454.00000000000006</ele><time>2026-04-05T16:04:32.001Z</time></trkpt><trkpt lat="43.944076882841145" lon="11.219148287191812"><ele>455.00000000000006</ele><time>2026-04-05T16:04:33.001Z</time></trkpt><trkpt lat="43.944126061339745" lon="11.219230119117773"><ele>456.0</ele><time>2026-04-05T16:04:34.001Z</time></trkpt><trkpt lat="43.94419317468195" lon="11.219318419082754"><ele>457.0</ele><time>2026-04-05T16:04:35.001Z</time></trkpt><trkpt lat="43.94427123190062" lon="11.21941965490735"><ele>458.0</ele><time>2026-04-05T16:04:36.001Z</time></trkpt><trkpt lat="43.9443535900982" lon="11.21953598273322"><ele>459.0</ele><time>2026-04-05T16:04:37.001Z</time></trkpt><trkpt lat="43.944438509227766" lon="11.219669768887673"><ele>460.0</ele><time>2026-04-05T16:04:38.001Z</time></trkpt><trkpt lat="43.94451354968375" lon="11.219803744486198"><ele>461.0</ele><time>2026-04-05T16:04:39.001Z</time></trkpt><trkpt lat="43.944554809048924" lon="11.219939400116871"><ele>461.0</ele><time>2026-04-05T16:04:40.001Z</time></trkpt><trkpt lat="43.94457045641284" lon="11.220079403543224"><ele>461.0</ele><time>2026-04-05T16:04:41.001Z</time></trkpt><trkpt lat="43.94456309577798" lon="11.220228450097203"><ele>461.0</ele><time>2026-04-05T16:04:42.001Z</time></trkpt><trkpt lat="43.9445302130289" lon="11.220358981650289"><ele>461.0</ele><time>2026-04-05T16:04:43.001Z</time></trkpt><trkpt lat="43.94449829740491" lon="11.220453205224013"><ele>461.0</ele><time>2026-04-05T16:04:44.001Z</time></trkpt><trkpt lat="43.94446820677381" lon="11.22054584207954"><ele>460.3333333333333</ele><time>2026-04-05T16:04:45.001Z</time></trkpt><trkpt lat="43.94444780908436" lon="11.220657223891385"><ele>459.66666666666663</ele><time>2026-04-05T16:04:46.001Z</time></trkpt><trkpt lat="43.944401371899474" lon="11.220773299210718"><ele>459.0</ele><time>2026-04-05T16:04:47.001Z</time></trkpt><trkpt lat="43.944368055257875" lon="11.22088604195315"><ele>458.33333333333337</ele><time>2026-04-05T16:04:48.001Z</time></trkpt><trkpt lat="43.94435903625803" lon="11.220991624282771"><ele>457.6666666666667</ele><time>2026-04-05T16:04:49.001Z</time></trkpt><trkpt lat="43.94438092502356" lon="11.221095405610939"><ele>457.0</ele><time>2026-04-05T16:04:50.001Z</time></trkpt><trkpt lat="43.944394467547596" lon="11.221239083993119"><ele>457.0</ele><time>2026-04-05T16:04:51.001Z</time></trkpt><trkpt lat="43.94442206287216" lon="11.2213821124749"><ele>457.0</ele><time>2026-04-05T16:04:52.001Z</time></trkpt><trkpt lat="43.94445687344771" lon="11.221550643564445"><ele>457.0</ele><time>2026-04-05T16:04:53.001Z</time></trkpt><trkpt lat="43.94449202041068" lon="11.221720802182267"><ele>457.0</ele><time>2026-04-05T16:04:54.001Z</time></trkpt><trkpt lat="43.944532441060005" lon="11.221889711158564"><ele>455.5</ele><time>2026-04-05T16:04:55.001Z</time></trkpt><trkpt lat="43.94452591656768" lon="11.222060533205237"><ele>454.0</ele><time>2026-04-05T16:04:56.001Z</time></trkpt><trkpt lat="43.944537964148935" lon="11.222226824369757"><ele>452.5</ele><time>2026-04-05T16:04:57.001Z</time></trkpt><trkpt lat="43.94452083086684" lon="11.222390836002408"><ele>451.0</ele><time>2026-04-05T16:04:58.001Z</time></trkpt><trkpt lat="43.94448619989789" lon="11.222557893171356"><ele>450.5</ele><time>2026-04-05T16:04:59.001Z</time></trkpt><trkpt lat="43.94446039983125" lon="11.222727891362542"><ele>450.0</ele><time>2026-04-05T16:05:00.001Z</time></trkpt><trkpt lat="43.944408063506806" lon="11.22289034421152"><ele>449.5</ele><time>2026-04-05T16:05:01.001Z</time></trkpt><trkpt lat="43.944363494189616" lon="11.22305878378894"><ele>449.0</ele><time>2026-04-05T16:05:02.001Z</time></trkpt><trkpt lat="43.94432319614377" lon="11.223219556366837"><ele>448.5</ele><time>2026-04-05T16:05:03.001Z</time></trkpt><trkpt lat="43.944292458778705" lon="11.223379417316258"><ele>448.0</ele><time>2026-04-05T16:05:04.001Z</time></trkpt><trkpt lat="43.94426010535993" lon="11.223534679475375"><ele>447.5</ele><time>2026-04-05T16:05:05.001Z</time></trkpt><trkpt lat="43.944238894067745" lon="11.223688054660181"><ele>447.0</ele><time>2026-04-05T16:05:06.001Z</time></trkpt><trkpt lat="43.94421618279325" lon="11.223841028211803"><ele>448.6</ele><time>2026-04-05T16:05:07.001Z</time></trkpt><trkpt lat="43.94418560274632" lon="11.223992398947209"><ele>450.20000000000005</ele><time>2026-04-05T16:05:08.001Z</time></trkpt><trkpt lat="43.94415050972433" lon="11.224137066055144"><ele>451.8</ele><time>2026-04-05T16:05:09.001Z</time></trkpt><trkpt lat="43.94411635665745" lon="11.224267255212617"><ele>453.4</ele><time>2026-04-05T16:05:10.001Z</time></trkpt><trkpt lat="43.94410237938384" lon="11.224382671877407"><ele>455.0</ele><time>2026-04-05T16:05:11.001Z</time></trkpt><trkpt lat="43.94408446805756" lon="11.224477426062773"><ele>454.99999999999994</ele><time>2026-04-05T16:05:12.001Z</time></trkpt><trkpt lat="43.94407214199141" lon="11.224580098103589"><ele>455.0</ele><time>2026-04-05T16:05:13.001Z</time></trkpt><trkpt lat="43.94405635484973" lon="11.224683533704313"><ele>455.0</ele><time>2026-04-05T16:05:14.001Z</time></trkpt><trkpt lat="43.94404680782776" lon="11.224786483880406"><ele>455.0</ele><time>2026-04-05T16:05:15.001Z</time></trkpt><trkpt lat="43.944020383610805" lon="11.224916460093725"><ele>454.99999999999994</ele><time>2026-04-05T16:05:16.001Z</time></trkpt><trkpt lat="43.94402015120427" lon="11.225040254067913"><ele>455.0</ele><time>2026-04-05T16:05:17.001Z</time></trkpt><trkpt lat="43.94402015120551" lon="11.225161968745583"><ele>455.66666666666663</ele><time>2026-04-05T16:05:18.001Z</time></trkpt><trkpt lat="43.944021348849105" lon="11.225263871065703"><ele>456.3333333333333</ele><time>2026-04-05T16:05:19.001Z</time></trkpt><trkpt lat="43.944031424593426" lon="11.225371089130492"><ele>457.0</ele><time>2026-04-05T16:05:20.001Z</time></trkpt><trkpt lat="43.94403620092502" lon="11.225467623655497"><ele>457.66666666666663</ele><time>2026-04-05T16:05:21.001Z</time></trkpt><trkpt lat="43.94403657691482" lon="11.225565879740545"><ele>458.3333333333333</ele><time>2026-04-05T16:05:23.001Z</time></trkpt><trkpt lat="43.94402238823481" lon="11.22566507439884"><ele>459.0</ele><time>2026-04-05T16:05:27.001Z</time></trkpt><trkpt lat="43.944018967760684" lon="11.225834245668494"><ele>459.3333333333333</ele><time>2026-04-05T16:05:29.001Z</time></trkpt><trkpt lat="43.94400819061877" lon="11.225935226201697"><ele>459.66666666666663</ele><time>2026-04-05T16:05:30.001Z</time></trkpt><trkpt lat="43.94399177883006" lon="11.226056743095592"><ele>460.0</ele><time>2026-04-05T16:05:31.001Z</time></trkpt><trkpt lat="43.943944145928775" lon="11.226168019416942"><ele>460.3333333333333</ele><time>2026-04-05T16:05:32.001Z</time></trkpt><trkpt lat="43.94388443950859" lon="11.226258385708567"><ele>460.66666666666663</ele><time>2026-04-05T16:05:33.001Z</time></trkpt><trkpt lat="43.94383562337384" lon="11.226341719077348"><ele>461.0</ele><time>2026-04-05T16:05:34.001Z</time></trkpt><trkpt lat="43.94374858452365" lon="11.226499699085453"><ele>461.49999999999994</ele><time>2026-04-05T16:05:36.001Z</time></trkpt><trkpt lat="43.943700423285115" lon="11.226567690519138"><ele>462.0</ele><time>2026-04-05T16:05:37.001Z</time></trkpt><trkpt lat="43.943670634113296" lon="11.226672328778823"><ele>462.5</ele><time>2026-04-05T16:05:38.001Z</time></trkpt><trkpt lat="43.94363079663503" lon="11.226749523130662"><ele>463.0</ele><time>2026-04-05T16:05:39.001Z</time></trkpt><trkpt lat="43.94358253161692" lon="11.226837767162815"><ele>463.49999999999994</ele><time>2026-04-05T16:05:40.001Z</time></trkpt><trkpt lat="43.94357045283854" lon="11.226979154311458"><ele>464.0</ele><time>2026-04-05T16:05:41.001Z</time></trkpt><trkpt lat="43.94354820706361" lon="11.227096768239962"><ele>463.99999999999994</ele><time>2026-04-05T16:05:42.001Z</time></trkpt><trkpt lat="43.94351069319883" lon="11.227185445555099"><ele>464.0</ele><time>2026-04-05T16:05:43.001Z</time></trkpt><trkpt lat="43.94348929436621" lon="11.227275224859616"><ele>464.0</ele><time>2026-04-05T16:05:44.001Z</time></trkpt><trkpt lat="43.94344829212706" lon="11.227435929339624"><ele>464.0</ele><time>2026-04-05T16:05:46.001Z</time></trkpt><trkpt lat="43.943428857812194" lon="11.22752227488583"><ele>463.99999999999994</ele><time>2026-04-05T16:05:47Z</time></trkpt><trkpt lat="43.943412156708185" lon="11.22760805859623"><ele>464.0</ele><time>2026-04-05T16:05:48Z</time></trkpt><trkpt lat="43.94340389278716" lon="11.227714053357294"><ele>465.49999999999994</ele><time>2026-04-05T16:05:49Z</time></trkpt><trkpt lat="43.943407154431775" lon="11.227804157304194"><ele>467.0</ele><time>2026-04-05T16:05:50Z</time></trkpt><trkpt lat="43.943424375247126" lon="11.227959929380019"><ele>468.5</ele><time>2026-04-05T16:05:52Z</time></trkpt><trkpt lat="43.94343358177546" lon="11.228061578279236"><ele>470.0</ele><time>2026-04-05T16:05:53Z</time></trkpt><trkpt lat="43.94344247825059" lon="11.228185565101235"><ele>471.49999999999994</ele><time>2026-04-05T16:05:54Z</time></trkpt><trkpt lat="43.94345077040028" lon="11.228303269948071"><ele>473.0</ele><time>2026-04-05T16:05:55Z</time></trkpt><trkpt lat="43.9434593872468" lon="11.228414396104448"><ele>473.66666666666663</ele><time>2026-04-05T16:05:56Z</time></trkpt><trkpt lat="43.9434696237065" lon="11.228529563297627"><ele>474.3333333333333</ele><time>2026-04-05T16:05:57Z</time></trkpt><trkpt lat="43.943496870260496" lon="11.228637964481942"><ele>475.0</ele><time>2026-04-05T16:05:58Z</time></trkpt><trkpt lat="43.94348381137628" lon="11.228746064279363"><ele>475.66666666666663</ele><time>2026-04-05T16:05:59Z</time></trkpt><trkpt lat="43.943503448881444" lon="11.228873875895623"><ele>476.3333333333333</ele><time>2026-04-05T16:06:00Z</time></trkpt><trkpt lat="43.94350306030849" lon="11.228998112509043"><ele>477.0</ele><time>2026-04-05T16:06:01Z</time></trkpt><trkpt lat="43.94349268290193" lon="11.229125582832749"><ele>475.20000000000005</ele><time>2026-04-05T16:06:02Z</time></trkpt><trkpt lat="43.94348281787189" lon="11.229256239874388"><ele>473.40000000000003</ele><time>2026-04-05T16:06:03Z</time></trkpt><trkpt lat="43.94347502500341" lon="11.229390687768424"><ele>471.59999999999997</ele><time>2026-04-05T16:06:04Z</time></trkpt><trkpt lat="43.9434698623606" lon="11.229519328337794"><ele>469.79999999999995</ele><time>2026-04-05T16:06:05Z</time></trkpt><trkpt lat="43.94346672404067" lon="11.229636127095665"><ele>468.0</ele><time>2026-04-05T16:06:06Z</time></trkpt><trkpt lat="43.94345098625896" lon="11.229750672398643"><ele>468.79999999999995</ele><time>2026-04-05T16:06:07Z</time></trkpt><trkpt lat="43.94344108629549" lon="11.229857730695496"><ele>469.59999999999997</ele><time>2026-04-05T16:06:08Z</time></trkpt><trkpt lat="43.943416531282814" lon="11.229966918846529"><ele>470.40000000000003</ele><time>2026-04-05T16:06:09Z</time></trkpt><trkpt lat="43.94338767964032" lon="11.23006440858839"><ele>471.20000000000005</ele><time>2026-04-05T16:06:10Z</time></trkpt><trkpt lat="43.94336044522941" lon="11.230191551397416"><ele>472.0</ele><time>2026-04-05T16:06:12Z</time></trkpt><trkpt lat="43.94332239774939" lon="11.230348442917816"><ele>472.0</ele><time>2026-04-05T16:06:14Z</time></trkpt><trkpt lat="43.94329736572582" lon="11.230477371667956"><ele>472.0</ele><time>2026-04-05T16:06:15Z</time></trkpt><trkpt lat="43.943268616220884" lon="11.230619530204589"><ele>472.0</ele><time>2026-04-05T16:06:16Z</time></trkpt><trkpt lat="43.943243323788245" lon="11.23078360048327"><ele>472.0</ele><time>2026-04-05T16:06:17Z</time></trkpt><trkpt lat="43.94319962759712" lon="11.230949934275612"><ele>472.5</ele><time>2026-04-05T16:06:18Z</time></trkpt><trkpt lat="43.943155318611275" lon="11.2311142120359"><ele>473.0</ele><time>2026-04-05T16:06:19Z</time></trkpt><trkpt lat="43.94310799166598" lon="11.23127709930486"><ele>473.5</ele><time>2026-04-05T16:06:20Z</time></trkpt><trkpt lat="43.94306966519399" lon="11.231445734775496"><ele>474.0</ele><time>2026-04-05T16:06:21Z</time></trkpt><trkpt lat="43.943020687609874" lon="11.231602823157964"><ele>475.0</ele><time>2026-04-05T16:06:22Z</time></trkpt><trkpt lat="43.942993316448266" lon="11.231757564537665"><ele>476.0</ele><time>2026-04-05T16:06:23Z</time></trkpt><trkpt lat="43.943003903490954" lon="11.231906573987454"><ele>477.0</ele><time>2026-04-05T16:06:24Z</time></trkpt><trkpt lat="43.943000351100665" lon="11.232072788845082"><ele>478.0</ele><time>2026-04-05T16:06:25Z</time></trkpt><trkpt lat="43.94302164671263" lon="11.232229756298032"><ele>478.5</ele><time>2026-04-05T16:06:26Z</time></trkpt><trkpt lat="43.94302760298793" lon="11.23240358825648"><ele>479.0</ele><time>2026-04-05T16:06:27Z</time></trkpt><trkpt lat="43.94301708704181" lon="11.232558197627354"><ele>479.5</ele><time>2026-04-05T16:06:28Z</time></trkpt><trkpt lat="43.94296833191666" lon="11.232703099229504"><ele>480.0</ele><time>2026-04-05T16:06:29Z</time></trkpt><trkpt lat="43.94292261730658" lon="11.232856737306406"><ele>480.0</ele><time>2026-04-05T16:06:30Z</time></trkpt><trkpt lat="43.94290750882871" lon="11.23301331680035"><ele>480.0</ele><time>2026-04-05T16:06:31Z</time></trkpt><trkpt lat="43.94289315127638" lon="11.233161330542904"><ele>480.0</ele><time>2026-04-05T16:06:32Z</time></trkpt><trkpt lat="43.942905057257356" lon="11.233330734488161"><ele>480.0</ele><time>2026-04-05T16:06:33Z</time></trkpt><trkpt lat="43.942921779683836" lon="11.233503380367718"><ele>480.25</ele><time>2026-04-05T16:06:34Z</time></trkpt><trkpt lat="43.942933493693474" lon="11.23368272807886"><ele>480.5</ele><time>2026-04-05T16:06:35Z</time></trkpt><trkpt lat="43.942923488372784" lon="11.23384986433013"><ele>480.75</ele><time>2026-04-05T16:06:36Z</time></trkpt><trkpt lat="43.94289675475602" lon="11.234001702825747"><ele>481.0</ele><time>2026-04-05T16:06:37Z</time></trkpt><trkpt lat="43.94286822189007" lon="11.234150239283007"><ele>481.6666666666667</ele><time>2026-04-05T16:06:38Z</time></trkpt><trkpt lat="43.942845005954695" lon="11.234271096872384"><ele>482.33333333333337</ele><time>2026-04-05T16:06:39Z</time></trkpt><trkpt lat="43.94282727103141" lon="11.234363420962897"><ele>483.0</ele><time>2026-04-05T16:06:40Z</time></trkpt><trkpt lat="43.94280988363067" lon="11.234453935423957"><ele>483.66666666666663</ele><time>2026-04-05T16:06:41Z</time></trkpt><trkpt lat="43.94290049059633" lon="11.234568127144092"><ele>484.3333333333333</ele><time>2026-04-05T16:06:42Z</time></trkpt><trkpt lat="43.942941029106365" lon="11.234669566984413"><ele>485.0</ele><time>2026-04-05T16:06:43Z</time></trkpt><trkpt lat="43.94294111707004" lon="11.234758616486028"><ele>485.4</ele><time>2026-04-05T16:06:44Z</time></trkpt><trkpt lat="43.942945371790486" lon="11.234899815797053"><ele>485.8</ele><time>2026-04-05T16:06:47Z</time></trkpt><trkpt lat="43.94296451813755" lon="11.235076224638126"><ele>486.20000000000005</ele><time>2026-04-05T16:06:49Z</time></trkpt><trkpt lat="43.94298287653932" lon="11.23521018612514"><ele>486.6</ele><time>2026-04-05T16:06:50Z</time></trkpt><trkpt lat="43.943003372766924" lon="11.23535564281917"><ele>487.0</ele><time>2026-04-05T16:06:51Z</time></trkpt><trkpt lat="43.9430312085556" lon="11.23551541522434"><ele>488.40000000000003</ele><time>2026-04-05T16:06:52Z</time></trkpt><trkpt lat="43.943056794338474" lon="11.235650453651964"><ele>489.80000000000007</ele><time>2026-04-05T16:06:53Z</time></trkpt><trkpt lat="43.9430766719973" lon="11.235749904341144"><ele>491.2</ele><time>2026-04-05T16:06:54Z</time></trkpt><trkpt lat="43.9431078926543" lon="11.235892288432577"><ele>492.6</ele><time>2026-04-05T16:06:56Z</time></trkpt><trkpt lat="43.94314994768834" lon="11.236039555848983"><ele>494.0</ele><time>2026-04-05T16:06:58Z</time></trkpt><trkpt lat="43.94318866932777" lon="11.236154815644543"><ele>493.99999999999994</ele><time>2026-04-05T16:07:00Z</time></trkpt><trkpt lat="43.943225943155724" lon="11.236260617053615"><ele>494.0</ele><time>2026-04-05T16:07:03Z</time></trkpt><trkpt lat="43.943257302015475" lon="11.23633935937885"><ele>494.0</ele><time>2026-04-05T16:07:05Z</time></trkpt><trkpt lat="43.94329496401809" lon="11.236431215765986"><ele>494.0</ele><time>2026-04-05T16:07:08Z</time></trkpt><trkpt lat="43.94333248901363" lon="11.236518247710222"><ele>493.99999999999994</ele><time>2026-04-05T16:07:11Z</time></trkpt><trkpt lat="43.943386939794884" lon="11.236632449028441"><ele>494.0</ele><time>2026-04-05T16:07:14Z</time></trkpt><trkpt lat="43.94343443996062" lon="11.236717848460055"><ele>494.0</ele><time>2026-04-05T16:07:16Z</time></trkpt><trkpt lat="43.94347293864111" lon="11.236791152726852"><ele>494.0</ele><time>2026-04-05T16:07:18Z</time></trkpt><trkpt lat="43.943433235029985" lon="11.23671571023948"><ele>494.0</ele><time>2026-04-05T16:07:31Z</time></trkpt><trkpt lat="43.94337461975341" lon="11.236609223582619"><ele>494.0</ele><time>2026-04-05T16:07:34Z</time></trkpt><trkpt lat="43.94328844653088" lon="11.236418268808771"><ele>494.0</ele><time>2026-04-05T16:07:36Z</time></trkpt><trkpt lat="43.943256899834026" lon="11.236342400286132"><ele>494.0</ele><time>2026-04-05T16:07:37Z</time></trkpt><trkpt lat="43.943207134501925" lon="11.236206187822416"><ele>494.0</ele><time>2026-04-05T16:07:39Z</time></trkpt><trkpt lat="43.94316580994457" lon="11.236088236747051"><ele>494.0</ele><time>2026-04-05T16:07:41Z</time></trkpt><trkpt lat="43.943126105889604" lon="11.235957449465333"><ele>494.0</ele><time>2026-04-05T16:07:43Z</time></trkpt><trkpt lat="43.943099106521146" lon="11.2358497746182"><ele>494.0</ele><time>2026-04-05T16:07:46Z</time></trkpt><trkpt lat="43.94313517979541" lon="11.235926047660769"><ele>494.0</ele><time>2026-04-05T16:07:56Z</time></trkpt><trkpt lat="43.94315972963386" lon="11.23601387930143"><ele>494.0</ele><time>2026-04-05T16:07:57Z</time></trkpt><trkpt lat="43.94318967405266" lon="11.236105425089892"><ele>494.0</ele><time>2026-04-05T16:07:58Z</time></trkpt><trkpt lat="43.94322273032285" lon="11.236197843139195"><ele>494.0</ele><time>2026-04-05T16:07:59Z</time></trkpt><trkpt lat="43.943253985891275" lon="11.236283297906144"><ele>494.0</ele><time>2026-04-05T16:08:00Z</time></trkpt><trkpt lat="43.94328978324272" lon="11.236373185547036"><ele>494.0</ele><time>2026-04-05T16:08:01Z</time></trkpt><trkpt lat="43.94333093378315" lon="11.236469978726992"><ele>494.0</ele><time>2026-04-05T16:08:02Z</time></trkpt><trkpt lat="43.94337338060663" lon="11.236564991259213"><ele>493.66666666666663</ele><time>2026-04-05T16:08:03Z</time></trkpt><trkpt lat="43.943421878397636" lon="11.23665937868173"><ele>493.3333333333333</ele><time>2026-04-05T16:08:04Z</time></trkpt><trkpt lat="43.943482512270705" lon="11.23674612372592"><ele>493.0</ele><time>2026-04-05T16:08:05Z</time></trkpt><trkpt lat="43.94352063686946" lon="11.236841577039783"><ele>492.66666666666663</ele><time>2026-04-05T16:08:06Z</time></trkpt><trkpt lat="43.9435562676497" lon="11.236947498450718"><ele>492.3333333333333</ele><time>2026-04-05T16:08:07Z</time></trkpt><trkpt lat="43.94356125268721" lon="11.237059375223497"><ele>492.0</ele><time>2026-04-05T16:08:08Z</time></trkpt><trkpt lat="43.94358971495452" lon="11.237177295061722"><ele>492.0</ele><time>2026-04-05T16:08:09Z</time></trkpt><trkpt lat="43.94363537397723" lon="11.237276632039856"><ele>492.0</ele><time>2026-04-05T16:08:10Z</time></trkpt><trkpt lat="43.94366519482292" lon="11.237379814571925"><ele>492.0</ele><time>2026-04-05T16:08:11Z</time></trkpt><trkpt lat="43.94374136602886" lon="11.237440614231701"><ele>492.0</ele><time>2026-04-05T16:08:12Z</time></trkpt><trkpt lat="43.94381578631096" lon="11.237497272248982"><ele>492.0</ele><time>2026-04-05T16:08:13Z</time></trkpt><trkpt lat="43.94388465068533" lon="11.237532365791845"><ele>492.0</ele><time>2026-04-05T16:08:14Z</time></trkpt><trkpt lat="43.94395782325854" lon="11.23760090324589"><ele>492.4285714285715</ele><time>2026-04-05T16:08:15Z</time></trkpt><trkpt lat="43.944021492660205" lon="11.237640566841"><ele>492.8571428571429</ele><time>2026-04-05T16:08:16Z</time></trkpt><trkpt lat="43.9440910409323" lon="11.237660647757343"><ele>493.2857142857143</ele><time>2026-04-05T16:08:17Z</time></trkpt><trkpt lat="43.944145210875384" lon="11.237717658072581"><ele>493.7142857142857</ele><time>2026-04-05T16:08:18Z</time></trkpt><trkpt lat="43.94420225053775" lon="11.237763619793816"><ele>494.1428571428571</ele><time>2026-04-05T16:08:19Z</time></trkpt><trkpt lat="43.944257974502335" lon="11.237845788420065"><ele>494.5714285714285</ele><time>2026-04-05T16:08:20Z</time></trkpt><trkpt lat="43.94430065945128" lon="11.237921204348092"><ele>494.99999999999994</ele><time>2026-04-05T16:08:21Z</time></trkpt><trkpt lat="43.94433580441701" lon="11.238081623957632"><ele>497.0</ele><time>2026-04-05T16:08:23Z</time></trkpt><trkpt lat="43.944356855607744" lon="11.238187119898388"><ele>499.0</ele><time>2026-04-05T16:08:24Z</time></trkpt><trkpt lat="43.94438947405656" lon="11.23829202011824"><ele>501.0</ele><time>2026-04-05T16:08:25Z</time></trkpt><trkpt lat="43.94444028874746" lon="11.23841966498505"><ele>503.0</ele><time>2026-04-05T16:08:27Z</time></trkpt><trkpt lat="43.94438676194116" lon="11.238284546792785"><ele>505.0</ele><time>2026-04-05T16:08:53Z</time></trkpt><trkpt lat="43.94434555888344" lon="11.238154106392304"><ele>504.83333333333337</ele><time>2026-04-05T16:08:55Z</time></trkpt><trkpt lat="43.94431207395778" lon="11.238000365222511"><ele>504.6666666666667</ele><time>2026-04-05T16:08:57Z</time></trkpt><trkpt lat="43.94432013320027" lon="11.237887364933842"><ele>504.5</ele><time>2026-04-05T16:08:58Z</time></trkpt><trkpt lat="43.94427686226607" lon="11.23781214691569"><ele>504.33333333333337</ele><time>2026-04-05T16:08:59Z</time></trkpt><trkpt lat="43.944234113755215" lon="11.237740507721373"><ele>504.1666666666667</ele><time>2026-04-05T16:09:00Z</time></trkpt><trkpt lat="43.944166873094275" lon="11.237687662848602"><ele>504.0</ele><time>2026-04-05T16:09:01Z</time></trkpt><trkpt lat="43.94420833310029" lon="11.23755704044105"><ele>514.0</ele><time>2026-04-05T16:09:03Z</time></trkpt><trkpt lat="43.943783690800934" lon="11.23850603727901"><ele>504.0</ele><time>2026-04-05T16:09:04Z</time></trkpt><trkpt lat="43.94378374712115" lon="11.237478715847015"><ele>504.0</ele><time>2026-04-05T16:09:07Z</time></trkpt><trkpt lat="43.94372129327436" lon="11.237414592683912"><ele>504.0</ele><time>2026-04-05T16:09:08Z</time></trkpt><trkpt lat="43.94367368276265" lon="11.237330577684906"><ele>504.0</ele><time>2026-04-05T16:09:09Z</time></trkpt><trkpt lat="43.94362564231725" lon="11.23722351298102"><ele>504.0</ele><time>2026-04-05T16:09:10Z</time></trkpt><trkpt lat="43.94359631845539" lon="11.237117953021649"><ele>504.0</ele><time>2026-04-05T16:09:11Z</time></trkpt><trkpt lat="43.94357922647125" lon="11.23700558910753"><ele>504.0</ele><time>2026-04-05T16:09:12Z</time></trkpt><trkpt lat="43.9435553985867" lon="11.236899240505329"><ele>502.3333333333333</ele><time>2026-04-05T16:09:13Z</time></trkpt><trkpt lat="43.94352336448454" lon="11.236811926863714"><ele>500.66666666666663</ele><time>2026-04-05T16:09:14Z</time></trkpt><trkpt lat="43.94347970079848" lon="11.2367259746577"><ele>499.0</ele><time>2026-04-05T16:09:15Z</time></trkpt><trkpt lat="43.94343518990184" lon="11.236622006538337"><ele>497.3333333333333</ele><time>2026-04-05T16:09:16Z</time></trkpt><trkpt lat="43.943386838925306" lon="11.236529305141259"><ele>495.66666666666663</ele><time>2026-04-05T16:09:17Z</time></trkpt><trkpt lat="43.94334546977394" lon="11.236451606559518"><ele>494.0</ele><time>2026-04-05T16:09:18Z</time></trkpt><trkpt lat="43.94331286127405" lon="11.236370560942124"><ele>493.99999999999994</ele><time>2026-04-05T16:09:19Z</time></trkpt><trkpt lat="43.94328123616834" lon="11.236277903462396"><ele>494.0</ele><time>2026-04-05T16:09:20Z</time></trkpt><trkpt lat="43.9432450575246" lon="11.236175998921949"><ele>494.0</ele><time>2026-04-05T16:09:21Z</time></trkpt><trkpt lat="43.94321137437002" lon="11.236087919983596"><ele>494.0</ele><time>2026-04-05T16:09:22Z</time></trkpt><trkpt lat="43.94315934857685" lon="11.23592517971376"><ele>493.99999999999994</ele><time>2026-04-05T16:09:24Z</time></trkpt><trkpt lat="43.943132132375226" lon="11.235813849794997"><ele>494.0</ele><time>2026-04-05T16:09:26Z</time></trkpt><trkpt lat="43.943142126281764" lon="11.235911776258474"><ele>493.99999999999994</ele><time>2026-04-05T16:09:43Z</time></trkpt><trkpt lat="43.94305708573101" lon="11.23595122069567"><ele>494.0</ele><time>2026-04-05T16:09:44Z</time></trkpt><trkpt lat="43.94300760806055" lon="11.23603718432997"><ele>494.0</ele><time>2026-04-05T16:09:54Z</time></trkpt><trkpt lat="43.9429856781818" lon="11.236189684514333"><ele>494.0</ele><time>2026-04-05T16:09:56Z</time></trkpt><trkpt lat="43.9429764774804" lon="11.23627715560718"><ele>493.99999999999994</ele><time>2026-04-05T16:09:57Z</time></trkpt><trkpt lat="43.94296959056073" lon="11.236379305039849"><ele>494.0</ele><time>2026-04-05T16:09:58Z</time></trkpt><trkpt lat="43.942963850774625" lon="11.2364831580187"><ele>495.28571428571433</ele><time>2026-04-05T16:09:59Z</time></trkpt><trkpt lat="43.942950866410776" lon="11.236582900088859"><ele>496.57142857142856</ele><time>2026-04-05T16:10:00Z</time></trkpt><trkpt lat="43.94294025989899" lon="11.23668264620034"><ele>497.8571428571429</ele><time>2026-04-05T16:10:01Z</time></trkpt><trkpt lat="43.94293152470364" lon="11.236791806667524"><ele>499.14285714285717</ele><time>2026-04-05T16:10:02Z</time></trkpt><trkpt lat="43.94291933213096" lon="11.236887498719854"><ele>500.42857142857144</ele><time>2026-04-05T16:10:03Z</time></trkpt><trkpt lat="43.942906170452005" lon="11.236976412618093"><ele>501.7142857142857</ele><time>2026-04-05T16:10:04Z</time></trkpt><trkpt lat="43.94289167169004" lon="11.237073979284613"><ele>503.0</ele><time>2026-04-05T16:10:05Z</time></trkpt><trkpt lat="43.94287320732744" lon="11.237171509626029"><ele>503.0</ele><time>2026-04-05T16:10:06Z</time></trkpt><trkpt lat="43.94285899965653" lon="11.237265041224207"><ele>503.00000000000006</ele><time>2026-04-05T16:10:07Z</time></trkpt><trkpt lat="43.94285350086488" lon="11.23736870699487"><ele>503.0</ele><time>2026-04-05T16:10:09Z</time></trkpt><trkpt lat="43.94286030397537" lon="11.237482650851616"><ele>503.0</ele><time>2026-04-05T16:10:23Z</time></trkpt><trkpt lat="43.94281067274875" lon="11.237558115842248"><ele>503.00000000000006</ele><time>2026-04-05T16:10:25Z</time></trkpt><trkpt lat="43.942765099220196" lon="11.237619011007283"><ele>503.0</ele><time>2026-04-05T16:10:26Z</time></trkpt><trkpt lat="43.94272571815114" lon="11.23768967367494"><ele>503.0</ele><time>2026-04-05T16:10:35Z</time></trkpt><trkpt lat="43.942655877186496" lon="11.23779299479454"><ele>506.2</ele><time>2026-04-05T16:10:37Z</time></trkpt><trkpt lat="43.942546945539405" lon="11.237826680441849"><ele>509.4</ele><time>2026-04-05T16:10:39Z</time></trkpt><trkpt lat="43.94244514944311" lon="11.237862559159925"><ele>512.5999999999999</ele><time>2026-04-05T16:10:41Z</time></trkpt><trkpt lat="43.94238763655961" lon="11.23792729008295"><ele>515.8</ele><time>2026-04-05T16:10:43Z</time></trkpt><trkpt lat="43.94237302159712" lon="11.238046911906428"><ele>519.0</ele><time>2026-04-05T16:10:46Z</time></trkpt><trkpt lat="43.94216006841146" lon="11.237878774660663"><ele>519.0</ele><time>2026-04-05T16:10:47Z</time></trkpt><trkpt lat="43.942093323894795" lon="11.237985643692898"><ele>519.0</ele><time>2026-04-05T16:10:49Z</time></trkpt><trkpt lat="43.942021555462595" lon="11.238063614036156"><ele>519.0</ele><time>2026-04-05T16:10:51Z</time></trkpt><trkpt lat="43.94195459750581" lon="11.238099880761203"><ele>519.0</ele><time>2026-04-05T16:10:53Z</time></trkpt><trkpt lat="43.94185175246704" lon="11.238005284728462"><ele>519.0</ele><time>2026-04-05T16:10:55Z</time></trkpt><trkpt lat="43.94178853148907" lon="11.23795807066517"><ele>519.0</ele><time>2026-04-05T16:10:56Z</time></trkpt><trkpt lat="43.94171635734205" lon="11.23791681313892"><ele>519.0</ele><time>2026-04-05T16:10:57Z</time></trkpt><trkpt lat="43.94165079650724" lon="11.23786364930319"><ele>519.0</ele><time>2026-04-05T16:10:58Z</time></trkpt><trkpt lat="43.94158019481124" lon="11.237796306316973"><ele>519.0</ele><time>2026-04-05T16:10:59Z</time></trkpt><trkpt lat="43.94151040492946" lon="11.237728757730375"><ele>519.0</ele><time>2026-04-05T16:11:00Z</time></trkpt><trkpt lat="43.941447739941026" lon="11.237671323435512"><ele>519.0</ele><time>2026-04-05T16:11:01Z</time></trkpt><trkpt lat="43.94137959860992" lon="11.237623987798901"><ele>517.0</ele><time>2026-04-05T16:11:02Z</time></trkpt><trkpt lat="43.94131619541991" lon="11.237587375618046"><ele>515.0</ele><time>2026-04-05T16:11:03Z</time></trkpt><trkpt lat="43.94123823434874" lon="11.237493496198303"><ele>513.0</ele><time>2026-04-05T16:11:05Z</time></trkpt><trkpt lat="43.94115029159443" lon="11.237486975272432"><ele>511.0</ele><time>2026-04-05T16:11:06Z</time></trkpt><trkpt lat="43.94107103319157" lon="11.237500158603803"><ele>509.0</ele><time>2026-04-05T16:11:08Z</time></trkpt><trkpt lat="43.9410068762533" lon="11.237532116030945"><ele>507.0</ele><time>2026-04-05T16:11:09Z</time></trkpt><trkpt lat="43.94094369708234" lon="11.237538723584587"><ele>507.57142857142856</ele><time>2026-04-05T16:11:10Z</time></trkpt><trkpt lat="43.940875291328084" lon="11.237546748206864"><ele>508.14285714285717</ele><time>2026-04-05T16:11:11Z</time></trkpt><trkpt lat="43.94080611360158" lon="11.237552685362457"><ele>508.7142857142857</ele><time>2026-04-05T16:11:12Z</time></trkpt><trkpt lat="43.94073254817043" lon="11.237559841738795"><ele>509.2857142857143</ele><time>2026-04-05T16:11:13Z</time></trkpt><trkpt lat="43.94066136299742" lon="11.237581252963409"><ele>509.8571428571429</ele><time>2026-04-05T16:11:14Z</time></trkpt><trkpt lat="43.94060223560338" lon="11.23761156714345"><ele>510.42857142857144</ele><time>2026-04-05T16:11:15Z</time></trkpt><trkpt lat="43.940529442583944" lon="11.23763980640401"><ele>511.0</ele><time>2026-04-05T16:11:16Z</time></trkpt><trkpt lat="43.940460140075714" lon="11.237680478583123"><ele>511.00000000000006</ele><time>2026-04-05T16:11:17Z</time></trkpt><trkpt lat="43.940396244076034" lon="11.237724868964522"><ele>511.0</ele><time>2026-04-05T16:11:18Z</time></trkpt><trkpt lat="43.940337975877235" lon="11.237773029209201"><ele>511.0</ele><time>2026-04-05T16:11:19Z</time></trkpt><trkpt lat="43.940243517403964" lon="11.237902322963118"><ele>511.0</ele><time>2026-04-05T16:11:21Z</time></trkpt><trkpt lat="43.94020842918079" lon="11.237980393299175"><ele>511.00000000000006</ele><time>2026-04-05T16:11:22Z</time></trkpt><trkpt lat="43.940151996956764" lon="11.238109345348633"><ele>511.0</ele><time>2026-04-05T16:11:24Z</time></trkpt><trkpt lat="43.9400913858441" lon="11.238234620605283"><ele>510.50000000000006</ele><time>2026-04-05T16:11:26Z</time></trkpt><trkpt lat="43.940045363046956" lon="11.238312487910152"><ele>510.0</ele><time>2026-04-05T16:11:27Z</time></trkpt><trkpt lat="43.9399956229894" lon="11.238389505766706"><ele>509.5</ele><time>2026-04-05T16:11:28Z</time></trkpt><trkpt lat="43.93995001705495" lon="11.238460482448843"><ele>509.0</ele><time>2026-04-05T16:11:29Z</time></trkpt><trkpt lat="43.93990207404115" lon="11.238531214176492"><ele>508.50000000000006</ele><time>2026-04-05T16:11:30Z</time></trkpt><trkpt lat="43.93981754322916" lon="11.238649860289192"><ele>508.0</ele><time>2026-04-05T16:11:32Z</time></trkpt><trkpt lat="43.9397502077301" lon="11.238731131496356"><ele>508.00000000000006</ele><time>2026-04-05T16:11:34Z</time></trkpt><trkpt lat="43.93968221635595" lon="11.238800808138464"><ele>508.0</ele><time>2026-04-05T16:11:38Z</time></trkpt><trkpt lat="43.93969604198067" lon="11.238928846017686"><ele>508.0</ele><time>2026-04-05T16:11:39Z</time></trkpt><trkpt lat="43.93966657909244" lon="11.239028308432319"><ele>508.0</ele><time>2026-04-05T16:11:42Z</time></trkpt><trkpt lat="43.93963093604811" lon="11.238886697548232"><ele>508.00000000000006</ele><time>2026-04-05T16:11:43Z</time></trkpt><trkpt lat="43.93956801208109" lon="11.238875776397718"><ele>508.0</ele><time>2026-04-05T16:11:45Z</time></trkpt><trkpt lat="43.93950117541522" lon="11.238888761995058"><ele>508.0</ele><time>2026-04-05T16:11:47Z</time></trkpt><trkpt lat="43.93940367679148" lon="11.23884867235263"><ele>507.99999999999994</ele><time>2026-04-05T16:11:49Z</time></trkpt><trkpt lat="43.93930444353315" lon="11.238758165705187"><ele>507.99999999999994</ele><time>2026-04-05T16:11:51Z</time></trkpt><trkpt lat="43.93922080297989" lon="11.238643866583084"><ele>508.0</ele><time>2026-04-05T16:11:53Z</time></trkpt><trkpt lat="43.93916784683323" lon="11.238585849407254"><ele>508.0</ele><time>2026-04-05T16:11:54Z</time></trkpt><trkpt lat="43.93910751902573" lon="11.238519560270875"><ele>507.6666666666667</ele><time>2026-04-05T16:11:55Z</time></trkpt><trkpt lat="43.93904389849404" lon="11.238455578038318"><ele>507.33333333333337</ele><time>2026-04-05T16:11:56Z</time></trkpt><trkpt lat="43.93898452873099" lon="11.23838629487213"><ele>507.0</ele><time>2026-04-05T16:11:57Z</time></trkpt><trkpt lat="43.938928803127695" lon="11.238313467736054"><ele>506.66666666666663</ele><time>2026-04-05T16:11:58Z</time></trkpt><trkpt lat="43.93887661770042" lon="11.238241202518306"><ele>506.3333333333333</ele><time>2026-04-05T16:11:59Z</time></trkpt><trkpt lat="43.93883422629003" lon="11.238169768813908"><ele>506.0</ele><time>2026-04-05T16:12:00Z</time></trkpt><trkpt lat="43.938767184043726" lon="11.238034259234222"><ele>506.0</ele><time>2026-04-05T16:12:02Z</time></trkpt><trkpt lat="43.93870287582985" lon="11.237886471158234"><ele>506.0</ele><time>2026-04-05T16:12:04Z</time></trkpt><trkpt lat="43.93864008434879" lon="11.237755376386813"><ele>506.0</ele><time>2026-04-05T16:12:06Z</time></trkpt><trkpt lat="43.93858376409316" lon="11.237649575131154"><ele>506.0</ele><time>2026-04-05T16:12:08Z</time></trkpt><trkpt lat="43.93852272352046" lon="11.237548413611806"><ele>506.0</ele><time>2026-04-05T16:12:10Z</time></trkpt><trkpt lat="43.93846786473983" lon="11.237490202596852"><ele>503.3333333333333</ele><time>2026-04-05T16:12:14Z</time></trkpt><trkpt lat="43.93837375985401" lon="11.237544976271511"><ele>500.66666666666663</ele><time>2026-04-05T16:12:16Z</time></trkpt><trkpt lat="43.93830874094951" lon="11.237599391364757"><ele>498.0</ele><time>2026-04-05T16:12:17Z</time></trkpt><trkpt lat="43.93824397894018" lon="11.237648077447519"><ele>495.33333333333337</ele><time>2026-04-05T16:12:18Z</time></trkpt><trkpt lat="43.93815843990151" lon="11.23773039066886"><ele>492.6666666666667</ele><time>2026-04-05T16:12:20Z</time></trkpt><trkpt lat="43.938088503103664" lon="11.237800652093446"><ele>490.0</ele><time>2026-04-05T16:12:22Z</time></trkpt><trkpt lat="43.937981980088445" lon="11.237836560381277"><ele>490.00000000000006</ele><time>2026-04-05T16:12:24Z</time></trkpt><trkpt lat="43.93789125104445" lon="11.237883164830441"><ele>490.0</ele><time>2026-04-05T16:12:26Z</time></trkpt><trkpt lat="43.93780123775444" lon="11.237923223350103"><ele>490.0</ele><time>2026-04-05T16:12:28Z</time></trkpt><trkpt lat="43.93774084197484" lon="11.237979259569512"><ele>490.0</ele><time>2026-04-05T16:12:30Z</time></trkpt><trkpt lat="43.93765430019515" lon="11.23803985966638"><ele>490.00000000000006</ele><time>2026-04-05T16:12:50Z</time></trkpt><trkpt lat="43.937605965104744" lon="11.238096118956085"><ele>490.0</ele><time>2026-04-05T16:12:56Z</time></trkpt><trkpt lat="43.93755676138182" lon="11.238158879502459"><ele>485.6</ele><time>2026-04-05T16:13:11Z</time></trkpt><trkpt lat="43.93750459375855" lon="11.238228803392154"><ele>481.2</ele><time>2026-04-05T16:13:17Z</time></trkpt><trkpt lat="43.93743210076831" lon="11.238328358017247"><ele>476.79999999999995</ele><time>2026-04-05T16:13:40Z</time></trkpt><trkpt lat="43.93736954891975" lon="11.238414150773941"><ele>472.4</ele><time>2026-04-05T16:13:42Z</time></trkpt><trkpt lat="43.93729045087493" lon="11.238531436302637"><ele>468.0</ele><time>2026-04-05T16:13:44Z</time></trkpt><trkpt lat="43.93721781087077" lon="11.238638418556693"><ele>468.0</ele><time>2026-04-05T16:13:46Z</time></trkpt><trkpt lat="43.937146286364865" lon="11.238732872823899"><ele>468.0</ele><time>2026-04-05T16:13:48Z</time></trkpt><trkpt lat="43.93710318497913" lon="11.238797113787996"><ele>468.0</ele><time>2026-04-05T16:13:49Z</time></trkpt><trkpt lat="43.93698661876348" lon="11.238870525739284"><ele>468.0</ele><time>2026-04-05T16:13:51Z</time></trkpt><trkpt lat="43.93690998560693" lon="11.238883047248844"><ele>468.0</ele><time>2026-04-05T16:13:52Z</time></trkpt><trkpt lat="43.93684027237618" lon="11.238910014718623"><ele>468.0</ele><time>2026-04-05T16:13:53Z</time></trkpt><trkpt lat="43.936726907251334" lon="11.238949465794121"><ele>468.3333333333333</ele><time>2026-04-05T16:13:55Z</time></trkpt><trkpt lat="43.93665400180072" lon="11.2389728177416"><ele>468.66666666666663</ele><time>2026-04-05T16:13:56Z</time></trkpt><trkpt lat="43.93655705263949" lon="11.239005699137502"><ele>469.0</ele><time>2026-04-05T16:13:58Z</time></trkpt><trkpt lat="43.93647635254267" lon="11.239008775835456"><ele>469.3333333333333</ele><time>2026-04-05T16:14:00Z</time></trkpt><trkpt lat="43.936370121662705" lon="11.239027353729096"><ele>469.66666666666663</ele><time>2026-04-05T16:14:02Z</time></trkpt><trkpt lat="43.93628438381835" lon="11.239026835891098"><ele>470.0</ele><time>2026-04-05T16:14:04Z</time></trkpt><trkpt lat="43.93618703200772" lon="11.239038011746368"><ele>469.99999999999994</ele><time>2026-04-05T16:14:06Z</time></trkpt><trkpt lat="43.93610483333751" lon="11.239047071432557"><ele>470.0</ele><time>2026-04-05T16:14:07Z</time></trkpt><trkpt lat="43.936029969141885" lon="11.239053791087873"><ele>470.0</ele><time>2026-04-05T16:14:08Z</time></trkpt><trkpt lat="43.93591998464914" lon="11.23906763844617"><ele>470.0</ele><time>2026-04-05T16:14:10Z</time></trkpt><trkpt lat="43.93582161794558" lon="11.239071147907408"><ele>469.99999999999994</ele><time>2026-04-05T16:14:12Z</time></trkpt><trkpt lat="43.93574913042177" lon="11.239065148290708"><ele>470.0</ele><time>2026-04-05T16:14:13Z</time></trkpt><trkpt lat="43.93568469376377" lon="11.239077044262295"><ele>470.4</ele><time>2026-04-05T16:14:14Z</time></trkpt><trkpt lat="43.93558382643093" lon="11.239086111164303"><ele>470.8</ele><time>2026-04-05T16:14:16Z</time></trkpt><trkpt lat="43.93548468984788" lon="11.239105194341192"><ele>471.20000000000005</ele><time>2026-04-05T16:14:18Z</time></trkpt><trkpt lat="43.93536731947379" lon="11.239093509479963"><ele>471.6</ele><time>2026-04-05T16:14:20Z</time></trkpt><trkpt lat="43.935242159447725" lon="11.23911129971203"><ele>472.0</ele><time>2026-04-05T16:14:22Z</time></trkpt><trkpt lat="43.935171035807734" lon="11.239094025979622"><ele>472.00000000000006</ele><time>2026-04-05T16:14:23Z</time></trkpt><trkpt lat="43.93510627563861" lon="11.239087941572276"><ele>472.0</ele><time>2026-04-05T16:14:24Z</time></trkpt><trkpt lat="43.93503348408897" lon="11.239072268903199"><ele>472.0</ele><time>2026-04-05T16:14:25Z</time></trkpt><trkpt lat="43.93496041463257" lon="11.239045401362525"><ele>472.0</ele><time>2026-04-05T16:14:26Z</time></trkpt><trkpt lat="43.934889105234916" lon="11.239023218752509"><ele>472.00000000000006</ele><time>2026-04-05T16:14:27Z</time></trkpt><trkpt lat="43.93482216115672" lon="11.239000432759296"><ele>472.0</ele><time>2026-04-05T16:14:28Z</time></trkpt><trkpt lat="43.934716017798365" lon="11.238948080802102"><ele>470.83333333333337</ele><time>2026-04-05T16:14:30Z</time></trkpt><trkpt lat="43.93459916306305" lon="11.238942017661726"><ele>469.6666666666667</ele><time>2026-04-05T16:14:32Z</time></trkpt><trkpt lat="43.93453221785704" lon="11.238950096859845"><ele>468.5</ele><time>2026-04-05T16:14:33Z</time></trkpt><trkpt lat="43.93446266832599" lon="11.238957830029019"><ele>467.33333333333337</ele><time>2026-04-05T16:14:34Z</time></trkpt><trkpt lat="43.93439131157318" lon="11.238972132392178"><ele>466.1666666666667</ele><time>2026-04-05T16:14:35Z</time></trkpt><trkpt lat="43.93432277878661" lon="11.238988917502986"><ele>465.0</ele><time>2026-04-05T16:14:36Z</time></trkpt><trkpt lat="43.93424591248816" lon="11.238976414088473"><ele>464.0</ele><time>2026-04-05T16:14:37Z</time></trkpt><trkpt lat="43.93416386891515" lon="11.238979861598871"><ele>463.0</ele><time>2026-04-05T16:14:38Z</time></trkpt><trkpt lat="43.934088034864935" lon="11.23896906110906"><ele>462.0</ele><time>2026-04-05T16:14:39Z</time></trkpt><trkpt lat="43.934015664102404" lon="11.238975018417092"><ele>461.0</ele><time>2026-04-05T16:14:40Z</time></trkpt><trkpt lat="43.9339378058275" lon="11.23894330826187"><ele>460.0</ele><time>2026-04-05T16:14:41Z</time></trkpt><trkpt lat="43.93385334994786" lon="11.238912810748204"><ele>459.0</ele><time>2026-04-05T16:14:42Z</time></trkpt><trkpt lat="43.933787844110356" lon="11.238874000265092"><ele>456.14285714285717</ele><time>2026-04-05T16:14:43Z</time></trkpt><trkpt lat="43.933724722717436" lon="11.238851598918421"><ele>453.2857142857143</ele><time>2026-04-05T16:14:44Z</time></trkpt><trkpt lat="43.93365676189234" lon="11.238848173682044"><ele>450.42857142857144</ele><time>2026-04-05T16:14:45Z</time></trkpt><trkpt lat="43.93359330481408" lon="11.238808686926706"><ele>447.57142857142856</ele><time>2026-04-05T16:14:46Z</time></trkpt><trkpt lat="43.933486264032595" lon="11.238767254141042"><ele>444.71428571428567</ele><time>2026-04-05T16:14:48Z</time></trkpt><trkpt lat="43.93341758456197" lon="11.238776311685706"><ele>441.85714285714283</ele><time>2026-04-05T16:14:49Z</time></trkpt><trkpt lat="43.93335382451835" lon="11.238777347164485"><ele>439.0</ele><time>2026-04-05T16:14:50Z</time></trkpt><trkpt lat="43.93328845936467" lon="11.238822440621963"><ele>438.79999999999995</ele><time>2026-04-05T16:14:51Z</time></trkpt><trkpt lat="43.93322307668012" lon="11.23887991750278"><ele>438.59999999999997</ele><time>2026-04-05T16:14:52Z</time></trkpt><trkpt lat="43.93316856132724" lon="11.238939725092536"><ele>438.4</ele><time>2026-04-05T16:14:53Z</time></trkpt><trkpt lat="43.933050068111676" lon="11.238958889898667"><ele>438.2</ele><time>2026-04-05T16:14:55Z</time></trkpt><trkpt lat="43.93292629943481" lon="11.238958651032844"><ele>438.0</ele><time>2026-04-05T16:14:57Z</time></trkpt><trkpt lat="43.93285378927725" lon="11.238943710027064"><ele>438.0</ele><time>2026-04-05T16:14:58Z</time></trkpt><trkpt lat="43.93277301358988" lon="11.23894170874919"><ele>437.99999999999994</ele><time>2026-04-05T16:14:59Z</time></trkpt><trkpt lat="43.93266106687351" lon="11.238891115231368"><ele>437.99999999999994</ele><time>2026-04-05T16:15:01Z</time></trkpt><trkpt lat="43.93260662280243" lon="11.23883330650669"><ele>438.0</ele><time>2026-04-05T16:15:02Z</time></trkpt><trkpt lat="43.93250778452271" lon="11.238758286329386"><ele>438.0</ele><time>2026-04-05T16:15:04Z</time></trkpt><trkpt lat="43.932407366746695" lon="11.238726767392919"><ele>437.59999999999997</ele><time>2026-04-05T16:15:06Z</time></trkpt><trkpt lat="43.93228698514255" lon="11.238731587237211"><ele>437.19999999999993</ele><time>2026-04-05T16:15:08Z</time></trkpt><trkpt lat="43.932159094275185" lon="11.238727990178937"><ele>436.8</ele><time>2026-04-05T16:15:10Z</time></trkpt><trkpt lat="43.93209399504629" lon="11.238728524451854"><ele>436.4</ele><time>2026-04-05T16:15:11Z</time></trkpt><trkpt lat="43.93202896667783" lon="11.238729058141178"><ele>436.0</ele><time>2026-04-05T16:15:12Z</time></trkpt><trkpt lat="43.9319105771483" lon="11.238716141473988"><ele>436.0</ele><time>2026-04-05T16:15:14Z</time></trkpt><trkpt lat="43.93180223348531" lon="11.238693767905605"><ele>436.0</ele><time>2026-04-05T16:15:16Z</time></trkpt><trkpt lat="43.93172086660781" lon="11.238599235211282"><ele>436.0</ele><time>2026-04-05T16:15:18Z</time></trkpt><trkpt lat="43.931628564913375" lon="11.23853661818451"><ele>436.0</ele><time>2026-04-05T16:15:20Z</time></trkpt><trkpt lat="43.93153372487884" lon="11.238502618884644"><ele>436.0</ele><time>2026-04-05T16:15:22Z</time></trkpt><trkpt lat="43.93144042616977" lon="11.238453261556582"><ele>435.6</ele><time>2026-04-05T16:15:24Z</time></trkpt><trkpt lat="43.931314749002226" lon="11.23846780989312"><ele>435.20000000000005</ele><time>2026-04-05T16:15:26Z</time></trkpt><trkpt lat="43.931238366583" lon="11.238484923702712"><ele>434.79999999999995</ele><time>2026-04-05T16:15:27Z</time></trkpt><trkpt lat="43.931168501684596" lon="11.238506642667154"><ele>434.4</ele><time>2026-04-05T16:15:28Z</time></trkpt><trkpt lat="43.93105231176201" lon="11.238512460764603"><ele>434.0</ele><time>2026-04-05T16:15:30Z</time></trkpt><trkpt lat="43.93095731736822" lon="11.23855301115542"><ele>432.79999999999995</ele><time>2026-04-05T16:15:32Z</time></trkpt><trkpt lat="43.930872081627435" lon="11.238580122622642"><ele>431.59999999999997</ele><time>2026-04-05T16:15:34Z</time></trkpt><trkpt lat="43.93078788046511" lon="11.238613937681924"><ele>430.4</ele><time>2026-04-05T16:15:36Z</time></trkpt><trkpt lat="43.93066136781418" lon="11.23864375120764"><ele>429.2</ele><time>2026-04-05T16:15:38Z</time></trkpt><trkpt lat="43.93059544330896" lon="11.238637686348985"><ele>428.0</ele><time>2026-04-05T16:15:39Z</time></trkpt><trkpt lat="43.93048349643023" lon="11.238617349569456"><ele>428.0</ele><time>2026-04-05T16:15:41Z</time></trkpt><trkpt lat="43.930402468154114" lon="11.238555926397249"><ele>427.99999999999994</ele><time>2026-04-05T16:15:43Z</time></trkpt><trkpt lat="43.93034718482088" lon="11.238405198386452"><ele>427.99999999999994</ele><time>2026-04-05T16:15:45Z</time></trkpt><trkpt lat="43.93031467243975" lon="11.238271549423668"><ele>428.0</ele><time>2026-04-05T16:15:47Z</time></trkpt><trkpt lat="43.93027496153537" lon="11.238137104651738"><ele>428.0</ele><time>2026-04-05T16:15:49Z</time></trkpt><trkpt lat="43.93017119552913" lon="11.23804617568632"><ele>426.59999999999997</ele><time>2026-04-05T16:15:51Z</time></trkpt><trkpt lat="43.93005757379085" lon="11.238054581646058"><ele>425.19999999999993</ele><time>2026-04-05T16:15:53Z</time></trkpt><trkpt lat="43.92994413851012" lon="11.238155514299182"><ele>423.8</ele><time>2026-04-05T16:15:55Z</time></trkpt><trkpt lat="43.929899313204785" lon="11.238229061532774"><ele>422.4</ele><time>2026-04-05T16:15:56Z</time></trkpt><trkpt lat="43.92982957347011" lon="11.238335075182627"><ele>421.0</ele><time>2026-04-05T16:15:58Z</time></trkpt><trkpt lat="43.92971234248795" lon="11.238258504810954"><ele>421.0</ele><time>2026-04-05T16:16:00Z</time></trkpt><trkpt lat="43.92962944086635" lon="11.238224706549797"><ele>421.0</ele><time>2026-04-05T16:16:01Z</time></trkpt><trkpt lat="43.92955354925665" lon="11.238176849392728"><ele>421.0</ele><time>2026-04-05T16:16:02Z</time></trkpt><trkpt lat="43.92946524363312" lon="11.238145081828751"><ele>421.0</ele><time>2026-04-05T16:16:03Z</time></trkpt><trkpt lat="43.92937464594605" lon="11.238114785248076"><ele>421.0</ele><time>2026-04-05T16:16:04Z</time></trkpt><trkpt lat="43.92928057468099" lon="11.23807504493023"><ele>417.6</ele><time>2026-04-05T16:16:05Z</time></trkpt><trkpt lat="43.929182758693386" lon="11.238032737761234"><ele>414.20000000000005</ele><time>2026-04-05T16:16:06Z</time></trkpt><trkpt lat="43.92908888057722" lon="11.237992621267093"><ele>410.79999999999995</ele><time>2026-04-05T16:16:07Z</time></trkpt><trkpt lat="43.92899700805682" lon="11.237954739841461"><ele>407.4</ele><time>2026-04-05T16:16:08Z</time></trkpt><trkpt lat="43.928909950316246" lon="11.237926664348844"><ele>404.0</ele><time>2026-04-05T16:16:09Z</time></trkpt><trkpt lat="43.92883349663223" lon="11.237911898898034"><ele>403.99999999999994</ele><time>2026-04-05T16:16:10Z</time></trkpt><trkpt lat="43.928763786780124" lon="11.237890039924357"><ele>404.0</ele><time>2026-04-05T16:16:11Z</time></trkpt><trkpt lat="43.92869057343198" lon="11.237919429480822"><ele>404.0</ele><time>2026-04-05T16:16:12Z</time></trkpt><trkpt lat="43.928620592471276" lon="11.237999706942817"><ele>404.0</ele><time>2026-04-05T16:16:13Z</time></trkpt><trkpt lat="43.92854950815931" lon="11.238080939865748"><ele>403.99999999999994</ele><time>2026-04-05T16:16:14Z</time></trkpt><trkpt lat="43.92847487338609" lon="11.238167926345088"><ele>404.0</ele><time>2026-04-05T16:16:15Z</time></trkpt><trkpt lat="43.92839166116596" lon="11.23826505650868"><ele>404.4</ele><time>2026-04-05T16:16:16Z</time></trkpt><trkpt lat="43.9283115324869" lon="11.238358826518443"><ele>404.79999999999995</ele><time>2026-04-05T16:16:17Z</time></trkpt><trkpt lat="43.92823285423361" lon="11.238450899202524"><ele>405.20000000000005</ele><time>2026-04-05T16:16:18Z</time></trkpt><trkpt lat="43.928157547522154" lon="11.238536066705903"><ele>405.6</ele><time>2026-04-05T16:16:19Z</time></trkpt><trkpt lat="43.928089561057575" lon="11.238611998388334"><ele>406.0</ele><time>2026-04-05T16:16:20Z</time></trkpt><trkpt lat="43.928026732080085" lon="11.238681832359388"><ele>406.0</ele><time>2026-04-05T16:16:21Z</time></trkpt><trkpt lat="43.927968838584064" lon="11.238746042692567"><ele>406.0</ele><time>2026-04-05T16:16:22Z</time></trkpt><trkpt lat="43.92791255923634" lon="11.238808462760558"><ele>406.0</ele><time>2026-04-05T16:16:23Z</time></trkpt><trkpt lat="43.92786122936813" lon="11.238863472912657"><ele>406.0</ele><time>2026-04-05T16:16:24Z</time></trkpt><trkpt lat="43.9278073745003" lon="11.238919914003446"><ele>406.0</ele><time>2026-04-05T16:16:25Z</time></trkpt><trkpt lat="43.927753978764294" lon="11.238972881603193"><ele>406.0</ele><time>2026-04-05T16:16:26Z</time></trkpt><trkpt lat="43.927704762503744" lon="11.239037090228859"><ele>406.0</ele><time>2026-04-05T16:16:27Z</time></trkpt><trkpt lat="43.92764008881761" lon="11.239056563053696"><ele>405.6</ele><time>2026-04-05T16:16:28Z</time></trkpt><trkpt lat="43.92752794497321" lon="11.239047576178743"><ele>405.20000000000005</ele><time>2026-04-05T16:16:30Z</time></trkpt><trkpt lat="43.927438654912145" lon="11.2390349175911"><ele>404.79999999999995</ele><time>2026-04-05T16:16:33Z</time></trkpt><trkpt lat="43.927364213133366" lon="11.238934979598602"><ele>404.4</ele><time>2026-04-05T16:16:35Z</time></trkpt><trkpt lat="43.92731652783514" lon="11.238845929198295"><ele>404.0</ele><time>2026-04-05T16:16:36Z</time></trkpt><trkpt lat="43.92726527244939" lon="11.238759697791805"><ele>402.5</ele><time>2026-04-05T16:16:37Z</time></trkpt><trkpt lat="43.92720192212525" lon="11.238632803048798"><ele>401.0</ele><time>2026-04-05T16:16:38Z</time></trkpt><trkpt lat="43.92714319306229" lon="11.238501862892756"><ele>399.5</ele><time>2026-04-05T16:16:39Z</time></trkpt><trkpt lat="43.92708836304436" lon="11.238363589905978"><ele>398.0</ele><time>2026-04-05T16:16:40Z</time></trkpt><trkpt lat="43.9270364125835" lon="11.23821044220524"><ele>398.0</ele><time>2026-04-05T16:16:41Z</time></trkpt><trkpt lat="43.92699010113405" lon="11.238055915382972"><ele>398.0</ele><time>2026-04-05T16:16:42Z</time></trkpt><trkpt lat="43.926948327030935" lon="11.237913292446109"><ele>398.0</ele><time>2026-04-05T16:16:43Z</time></trkpt><trkpt lat="43.926906721270576" lon="11.237797106301464"><ele>398.0</ele><time>2026-04-05T16:16:44Z</time></trkpt><trkpt lat="43.92685448066718" lon="11.237692717986533"><ele>398.0</ele><time>2026-04-05T16:16:45Z</time></trkpt><trkpt lat="43.926788452695604" lon="11.23761130015305"><ele>395.25</ele><time>2026-04-05T16:16:46Z</time></trkpt><trkpt lat="43.926705392449854" lon="11.23755222481203"><ele>392.5</ele><time>2026-04-05T16:16:47Z</time></trkpt><trkpt lat="43.926606985706314" lon="11.23748722509498"><ele>389.75</ele><time>2026-04-05T16:16:48Z</time></trkpt><trkpt lat="43.92649508702696" lon="11.237427347874553"><ele>387.0</ele><time>2026-04-05T16:16:49Z</time></trkpt><trkpt lat="43.92636456041877" lon="11.23736471995052"><ele>385.0</ele><time>2026-04-05T16:16:50Z</time></trkpt><trkpt lat="43.926257720392215" lon="11.237254321378899"><ele>383.0</ele><time>2026-04-05T16:16:51Z</time></trkpt><trkpt lat="43.92615227980744" lon="11.237152550387687"><ele>381.0</ele><time>2026-04-05T16:16:52Z</time></trkpt><trkpt lat="43.92606383100432" lon="11.237046234949231"><ele>379.0</ele><time>2026-04-05T16:16:53Z</time></trkpt><trkpt lat="43.925990130496395" lon="11.236931147480444"><ele>379.0</ele><time>2026-04-05T16:16:54Z</time></trkpt><trkpt lat="43.925930241794724" lon="11.236810060338884"><ele>379.0</ele><time>2026-04-05T16:16:55Z</time></trkpt><trkpt lat="43.92589829725107" lon="11.236672488378055"><ele>379.0</ele><time>2026-04-05T16:16:56Z</time></trkpt><trkpt lat="43.92590673478028" lon="11.236522602840557"><ele>379.0</ele><time>2026-04-05T16:16:57Z</time></trkpt><trkpt lat="43.92587556431261" lon="11.236393835223797"><ele>379.0</ele><time>2026-04-05T16:16:58Z</time></trkpt><trkpt lat="43.925812611788636" lon="11.23625347558065"><ele>375.75</ele><time>2026-04-05T16:16:59Z</time></trkpt><trkpt lat="43.925741508974646" lon="11.236101587380942"><ele>372.5</ele><time>2026-04-05T16:17:00Z</time></trkpt><trkpt lat="43.92566257678335" lon="11.235956570148012"><ele>369.25</ele><time>2026-04-05T16:17:01Z</time></trkpt><trkpt lat="43.92559939625893" lon="11.235801898458565"><ele>366.0</ele><time>2026-04-05T16:17:02Z</time></trkpt><trkpt lat="43.925537141174395" lon="11.235650011556256"><ele>364.8333333333333</ele><time>2026-04-05T16:17:03Z</time></trkpt><trkpt lat="43.925479908721954" lon="11.23550792979258"><ele>363.6666666666667</ele><time>2026-04-05T16:17:04Z</time></trkpt><trkpt lat="43.92543043641908" lon="11.235409335162199"><ele>362.5</ele><time>2026-04-05T16:17:05Z</time></trkpt><trkpt lat="43.92537643436639" lon="11.235357669443339"><ele>361.33333333333337</ele><time>2026-04-05T16:17:06Z</time></trkpt><trkpt lat="43.92530773753592" lon="11.235368117934772"><ele>360.1666666666667</ele><time>2026-04-05T16:17:07Z</time></trkpt><trkpt lat="43.92522982780123" lon="11.235382184775045"><ele>359.0</ele><time>2026-04-05T16:17:08Z</time></trkpt><trkpt lat="43.925155730024755" lon="11.235439411266045"><ele>359.0</ele><time>2026-04-05T16:17:09Z</time></trkpt><trkpt lat="43.925080896440825" lon="11.235485448177531"><ele>359.0</ele><time>2026-04-05T16:17:10Z</time></trkpt><trkpt lat="43.92500189198831" lon="11.235524282770943"><ele>359.0</ele><time>2026-04-05T16:17:11Z</time></trkpt><trkpt lat="43.92492438817519" lon="11.235538244724792"><ele>359.0</ele><time>2026-04-05T16:17:12Z</time></trkpt><trkpt lat="43.92484539364886" lon="11.235521733960525"><ele>359.0</ele><time>2026-04-05T16:17:13Z</time></trkpt><trkpt lat="43.92475828103328" lon="11.235476482702294"><ele>359.0</ele><time>2026-04-05T16:17:14Z</time></trkpt><trkpt lat="43.92465996985761" lon="11.235438502441884"><ele>356.75</ele><time>2026-04-05T16:17:15Z</time></trkpt><trkpt lat="43.92455426960808" lon="11.23537186248644"><ele>354.5</ele><time>2026-04-05T16:17:16Z</time></trkpt><trkpt lat="43.924453181794426" lon="11.235278433003835"><ele>352.25</ele><time>2026-04-05T16:17:17Z</time></trkpt><trkpt lat="43.92433655485866" lon="11.23519827068034"><ele>350.0</ele><time>2026-04-05T16:17:18Z</time></trkpt><trkpt lat="43.92421787497154" lon="11.235128720512442"><ele>347.2</ele><time>2026-04-05T16:17:19Z</time></trkpt><trkpt lat="43.92411477928718" lon="11.235064949108631"><ele>344.4</ele><time>2026-04-05T16:17:20Z</time></trkpt><trkpt lat="43.924026446069924" lon="11.234998208816666"><ele>341.6</ele><time>2026-04-05T16:17:21Z</time></trkpt><trkpt lat="43.923950526000745" lon="11.234907359418617"><ele>338.8</ele><time>2026-04-05T16:17:22Z</time></trkpt><trkpt lat="43.923894801408395" lon="11.234784142842056"><ele>336.0</ele><time>2026-04-05T16:17:23Z</time></trkpt><trkpt lat="43.92384423770584" lon="11.234648122235372"><ele>335.0</ele><time>2026-04-05T16:17:24Z</time></trkpt><trkpt lat="43.92378600165932" lon="11.234502029680613"><ele>334.0</ele><time>2026-04-05T16:17:25Z</time></trkpt><trkpt lat="43.92373097397527" lon="11.234368806526065"><ele>333.0</ele><time>2026-04-05T16:17:26Z</time></trkpt><trkpt lat="43.92368297042266" lon="11.234240718808634"><ele>332.0</ele><time>2026-04-05T16:17:27Z</time></trkpt><trkpt lat="43.923635434884865" lon="11.234115563062947"><ele>331.0</ele><time>2026-04-05T16:17:28Z</time></trkpt><trkpt lat="43.92358817168651" lon="11.233982076485885"><ele>329.4</ele><time>2026-04-05T16:17:29Z</time></trkpt><trkpt lat="43.92354543702827" lon="11.233840761516037"><ele>327.8</ele><time>2026-04-05T16:17:30Z</time></trkpt><trkpt lat="43.92348282417519" lon="11.233715797497526"><ele>326.2</ele><time>2026-04-05T16:17:31Z</time></trkpt><trkpt lat="43.923438650445924" lon="11.233608866148197"><ele>324.59999999999997</ele><time>2026-04-05T16:17:32Z</time></trkpt><trkpt lat="43.92338529712843" lon="11.233492994018697"><ele>323.0</ele><time>2026-04-05T16:17:33Z</time></trkpt><trkpt lat="43.92333043171123" lon="11.233373261900441"><ele>322.79999999999995</ele><time>2026-04-05T16:17:34Z</time></trkpt><trkpt lat="43.92327427525616" lon="11.233268332794609"><ele>322.6</ele><time>2026-04-05T16:17:35Z</time></trkpt><trkpt lat="43.92320519356736" lon="11.23316496032635"><ele>322.4</ele><time>2026-04-05T16:17:36Z</time></trkpt><trkpt lat="43.923110335874505" lon="11.2330775875914"><ele>322.20000000000005</ele><time>2026-04-05T16:17:37Z</time></trkpt><trkpt lat="43.92299824873617" lon="11.232987662133258"><ele>322.0</ele><time>2026-04-05T16:17:38Z</time></trkpt><trkpt lat="43.922893265286355" lon="11.232953115753077"><ele>321.0</ele><time>2026-04-05T16:17:39Z</time></trkpt><trkpt lat="43.922788044554366" lon="11.232871585130887"><ele>320.0</ele><time>2026-04-05T16:17:40Z</time></trkpt><trkpt lat="43.92268872421289" lon="11.232770360886985"><ele>319.0</ele><time>2026-04-05T16:17:41Z</time></trkpt><trkpt lat="43.92259544675006" lon="11.232647525308012"><ele>318.0</ele><time>2026-04-05T16:17:42Z</time></trkpt><trkpt lat="43.922508011325235" lon="11.232518354295394"><ele>315.4</ele><time>2026-04-05T16:17:43Z</time></trkpt><trkpt lat="43.92242379096768" lon="11.232407309053658"><ele>312.8</ele><time>2026-04-05T16:17:44Z</time></trkpt><trkpt lat="43.92237254054898" lon="11.23227540853361"><ele>310.2</ele><time>2026-04-05T16:17:45Z</time></trkpt><trkpt lat="43.92232515443446" lon="11.232173131343723"><ele>307.6</ele><time>2026-04-05T16:17:46Z</time></trkpt><trkpt lat="43.92227788087398" lon="11.23207263681481"><ele>305.0</ele><time>2026-04-05T16:17:47Z</time></trkpt><trkpt lat="43.92233011195086" lon="11.231921560484883"><ele>304.0</ele><time>2026-04-05T16:17:48Z</time></trkpt><trkpt lat="43.922314653263946" lon="11.231788995935455"><ele>303.0</ele><time>2026-04-05T16:17:49Z</time></trkpt><trkpt lat="43.922280340225115" lon="11.23164724917118"><ele>302.0</ele><time>2026-04-05T16:17:50Z</time></trkpt><trkpt lat="43.92224968022067" lon="11.231517921854143"><ele>301.0</ele><time>2026-04-05T16:17:51Z</time></trkpt><trkpt lat="43.922174449009525" lon="11.231390417525596"><ele>300.0</ele><time>2026-04-05T16:17:52Z</time></trkpt><trkpt lat="43.92208552737118" lon="11.231262371859005"><ele>297.5</ele><time>2026-04-05T16:17:53Z</time></trkpt><trkpt lat="43.92200090813288" lon="11.23112163736106"><ele>295.0</ele><time>2026-04-05T16:17:54Z</time></trkpt><trkpt lat="43.92190125345208" lon="11.230969393505122"><ele>292.5</ele><time>2026-04-05T16:17:55Z</time></trkpt><trkpt lat="43.92183153549961" lon="11.230857563289906"><ele>290.0</ele><time>2026-04-05T16:17:56Z</time></trkpt><trkpt lat="43.921751139698046" lon="11.230760058955697"><ele>287.6666666666667</ele><time>2026-04-05T16:17:57Z</time></trkpt><trkpt lat="43.92168014226769" lon="11.230679001594531"><ele>285.33333333333337</ele><time>2026-04-05T16:17:58Z</time></trkpt><trkpt lat="43.92167956470221" lon="11.230514546526209"><ele>283.0</ele><time>2026-04-05T16:17:59Z</time></trkpt><trkpt lat="43.9216513052374" lon="11.230434756260614"><ele>280.6666666666667</ele><time>2026-04-05T16:18:00Z</time></trkpt><trkpt lat="43.92159439741217" lon="11.230353590825505"><ele>278.3333333333333</ele><time>2026-04-05T16:18:01Z</time></trkpt><trkpt lat="43.921549270903874" lon="11.230277134872303"><ele>276.0</ele><time>2026-04-05T16:18:02Z</time></trkpt><trkpt lat="43.92155342326057" lon="11.230180044670183"><ele>274.40000000000003</ele><time>2026-04-05T16:18:03Z</time></trkpt><trkpt lat="43.92159201934675" lon="11.230058938549675"><ele>272.8</ele><time>2026-04-05T16:18:04Z</time></trkpt><trkpt lat="43.9215946762296" lon="11.229933524478643"><ele>271.20000000000005</ele><time>2026-04-05T16:18:05Z</time></trkpt><trkpt lat="43.92155258642742" lon="11.229811957048845"><ele>269.6</ele><time>2026-04-05T16:18:06Z</time></trkpt><trkpt lat="43.92146511287741" lon="11.229702325649548"><ele>268.0</ele><time>2026-04-05T16:18:07Z</time></trkpt><trkpt lat="43.92137060822023" lon="11.22960640964316"><ele>266.25</ele><time>2026-04-05T16:18:08Z</time></trkpt><trkpt lat="43.92126490149031" lon="11.22953269387889"><ele>264.5</ele><time>2026-04-05T16:18:09Z</time></trkpt><trkpt lat="43.92115935585593" lon="11.229462132934298"><ele>262.75</ele><time>2026-04-05T16:18:10Z</time></trkpt><trkpt lat="43.921059700014155" lon="11.229381546031421"><ele>261.0</ele><time>2026-04-05T16:18:11Z</time></trkpt><trkpt lat="43.92097509668889" lon="11.229302624506657"><ele>261.0</ele><time>2026-04-05T16:18:12Z</time></trkpt><trkpt lat="43.920909551881756" lon="11.229236585265134"><ele>261.0</ele><time>2026-04-05T16:18:13Z</time></trkpt><trkpt lat="43.92082837853266" lon="11.229163345623977"><ele>261.0</ele><time>2026-04-05T16:18:15Z</time></trkpt><trkpt lat="43.920758302408245" lon="11.229119926624747"><ele>261.0</ele><time>2026-04-05T16:18:18Z</time></trkpt><trkpt lat="43.9206803378676" lon="11.22904059277063"><ele>261.0</ele><time>2026-04-05T16:18:20Z</time></trkpt><trkpt lat="43.92061232444859" lon="11.228991449746204"><ele>261.0</ele><time>2026-04-05T16:18:21Z</time></trkpt><trkpt lat="43.92054091730641" lon="11.22894123045156"><ele>258.3333333333333</ele><time>2026-04-05T16:18:22Z</time></trkpt><trkpt lat="43.92046388838903" lon="11.228889393819287"><ele>255.66666666666669</ele><time>2026-04-05T16:18:23Z</time></trkpt><trkpt lat="43.920400248454186" lon="11.228815482015351"><ele>253.0</ele><time>2026-04-05T16:18:24Z</time></trkpt><trkpt lat="43.92033334113732" lon="11.228752650239999"><ele>250.33333333333334</ele><time>2026-04-05T16:18:25Z</time></trkpt><trkpt lat="43.92030222767576" lon="11.228623311403673"><ele>247.66666666666669</ele><time>2026-04-05T16:18:26Z</time></trkpt><trkpt lat="43.920281656804015" lon="11.22848918323984"><ele>245.0</ele><time>2026-04-05T16:18:27Z</time></trkpt><trkpt lat="43.92025722494223" lon="11.228352087888272"><ele>245.0</ele><time>2026-04-05T16:18:28Z</time></trkpt><trkpt lat="43.92021053829203" lon="11.228233352715712"><ele>245.0</ele><time>2026-04-05T16:18:29Z</time></trkpt><trkpt lat="43.92015026394778" lon="11.228131943685511"><ele>245.0</ele><time>2026-04-05T16:18:30Z</time></trkpt><trkpt lat="43.9200783721513" lon="11.228060525694197"><ele>245.0</ele><time>2026-04-05T16:18:31Z</time></trkpt><trkpt lat="43.920026728467" lon="11.227986635617102"><ele>245.0</ele><time>2026-04-05T16:18:32Z</time></trkpt><trkpt lat="43.92001247849141" lon="11.227835460875205"><ele>244.8</ele><time>2026-04-05T16:18:34Z</time></trkpt><trkpt lat="43.91990566115916" lon="11.22782846199719"><ele>244.6</ele><time>2026-04-05T16:18:36Z</time></trkpt><trkpt lat="43.919840207751825" lon="11.227869004180484"><ele>244.39999999999998</ele><time>2026-04-05T16:18:37Z</time></trkpt><trkpt lat="43.91973389218671" lon="11.227871441998177"><ele>244.2</ele><time>2026-04-05T16:18:39Z</time></trkpt><trkpt lat="43.91962605815347" lon="11.22781291300746"><ele>244.0</ele><time>2026-04-05T16:18:40Z</time></trkpt><trkpt lat="43.91955518823464" lon="11.227712399254193"><ele>244.0</ele><time>2026-04-05T16:18:41Z</time></trkpt><trkpt lat="43.91946920482624" lon="11.22762573593842"><ele>243.99999999999997</ele><time>2026-04-05T16:18:42Z</time></trkpt><trkpt lat="43.91939611955948" lon="11.22755207250511"><ele>243.99999999999997</ele><time>2026-04-05T16:18:43Z</time></trkpt><trkpt lat="43.91929875231534" lon="11.227453935039433"><ele>244.0</ele><time>2026-04-05T16:18:44Z</time></trkpt><trkpt lat="43.91920948750226" lon="11.227366800686037"><ele>244.0</ele><time>2026-04-05T16:18:45Z</time></trkpt><trkpt lat="43.91911807821468" lon="11.227282547245249"><ele>242.2</ele><time>2026-04-05T16:18:46Z</time></trkpt><trkpt lat="43.919032362601875" lon="11.227201954789523"><ele>240.39999999999998</ele><time>2026-04-05T16:18:47Z</time></trkpt><trkpt lat="43.91896810504941" lon="11.22714097723534"><ele>238.6</ele><time>2026-04-05T16:18:48Z</time></trkpt><trkpt lat="43.9188993408601" lon="11.227035415997136"><ele>236.8</ele><time>2026-04-05T16:18:49Z</time></trkpt><trkpt lat="43.91877318979653" lon="11.226893979560037"><ele>235.0</ele><time>2026-04-05T16:18:50Z</time></trkpt><trkpt lat="43.91867507136522" lon="11.226717650107908"><ele>235.0</ele><time>2026-04-05T16:18:51Z</time></trkpt><trkpt lat="43.91858029603741" lon="11.226557331062907"><ele>235.0</ele><time>2026-04-05T16:18:52Z</time></trkpt><trkpt lat="43.91848628878363" lon="11.226463454803923"><ele>235.0</ele><time>2026-04-05T16:18:53Z</time></trkpt><trkpt lat="43.91838838683969" lon="11.226349573244159"><ele>235.0</ele><time>2026-04-05T16:18:54Z</time></trkpt><trkpt lat="43.91830747638919" lon="11.226233530065027"><ele>233.25</ele><time>2026-04-05T16:18:55Z</time></trkpt><trkpt lat="43.91823193927011" lon="11.226100525938742"><ele>231.5</ele><time>2026-04-05T16:18:56Z</time></trkpt><trkpt lat="43.918142208948105" lon="11.225988946558466"><ele>229.75</ele><time>2026-04-05T16:18:57Z</time></trkpt><trkpt lat="43.91804388324341" lon="11.22586958111715"><ele>228.0</ele><time>2026-04-05T16:18:58Z</time></trkpt><trkpt lat="43.91796893558308" lon="11.225751322686076"><ele>227.8</ele><time>2026-04-05T16:18:59Z</time></trkpt><trkpt lat="43.9179320933056" lon="11.225628601257164"><ele>227.60000000000002</ele><time>2026-04-05T16:19:00Z</time></trkpt><trkpt lat="43.91787320758477" lon="11.225536933435839"><ele>227.39999999999998</ele><time>2026-04-05T16:19:01Z</time></trkpt><trkpt lat="43.917778474718894" lon="11.225475837394939"><ele>227.2</ele><time>2026-04-05T16:19:02Z</time></trkpt><trkpt lat="43.91766759601146" lon="11.225405446913339"><ele>227.0</ele><time>2026-04-05T16:19:03Z</time></trkpt><trkpt lat="43.91755617017578" lon="11.225317926219214"><ele>227.0</ele><time>2026-04-05T16:19:04Z</time></trkpt><trkpt lat="43.917436660168605" lon="11.225229999099133"><ele>227.0</ele><time>2026-04-05T16:19:05Z</time></trkpt><trkpt lat="43.91731391499758" lon="11.225136092441193"><ele>227.0</ele><time>2026-04-05T16:19:06Z</time></trkpt><trkpt lat="43.91719555776463" lon="11.225053311648837"><ele>227.0</ele><time>2026-04-05T16:19:07Z</time></trkpt><trkpt lat="43.91708665108078" lon="11.224989504328207"><ele>227.0</ele><time>2026-04-05T16:19:08Z</time></trkpt><trkpt lat="43.91698592682118" lon="11.224954611238921"><ele>227.0</ele><time>2026-04-05T16:19:09Z</time></trkpt><trkpt lat="43.91688478804077" lon="11.224917889333927"><ele>227.0</ele><time>2026-04-05T16:19:10Z</time></trkpt><trkpt lat="43.9167766738451" lon="11.224899874363034"><ele>227.0</ele><time>2026-04-05T16:19:11Z</time></trkpt><trkpt lat="43.91666179646266" lon="11.22490983976298"><ele>227.0</ele><time>2026-04-05T16:19:12Z</time></trkpt><trkpt lat="43.916535444603205" lon="11.224951067721019"><ele>224.25</ele><time>2026-04-05T16:19:13Z</time></trkpt><trkpt lat="43.916412599114366" lon="11.225029716927189"><ele>221.5</ele><time>2026-04-05T16:19:14Z</time></trkpt><trkpt lat="43.91629018818613" lon="11.225121019856294"><ele>218.75</ele><time>2026-04-05T16:19:15Z</time></trkpt><trkpt lat="43.91618428358894" lon="11.225232426088997"><ele>216.0</ele><time>2026-04-05T16:19:16Z</time></trkpt><trkpt lat="43.91609789484518" lon="11.225318203661699"><ele>216.0</ele><time>2026-04-05T16:19:17Z</time></trkpt><trkpt lat="43.91601684064344" lon="11.225366895894547"><ele>216.0</ele><time>2026-04-05T16:19:18Z</time></trkpt><trkpt lat="43.915935019627305" lon="11.225402325421257"><ele>216.0</ele><time>2026-04-05T16:19:19Z</time></trkpt><trkpt lat="43.91585305354845" lon="11.22537884757898"><ele>216.0</ele><time>2026-04-05T16:19:20Z</time></trkpt><trkpt lat="43.915775755651545" lon="11.225323043324943"><ele>216.0</ele><time>2026-04-05T16:19:21Z</time></trkpt><trkpt lat="43.91569163703927" lon="11.225257020216734"><ele>216.0</ele><time>2026-04-05T16:19:22Z</time></trkpt><trkpt lat="43.91560294173499" lon="11.225196673300418"><ele>215.0</ele><time>2026-04-05T16:19:23Z</time></trkpt><trkpt lat="43.91550884642784" lon="11.225139187877932"><ele>214.00000000000003</ele><time>2026-04-05T16:19:24Z</time></trkpt><trkpt lat="43.915410195135976" lon="11.225091717977941"><ele>213.0</ele><time>2026-04-05T16:19:25Z</time></trkpt><trkpt lat="43.915310587501686" lon="11.22505362631176"><ele>212.0</ele><time>2026-04-05T16:19:26Z</time></trkpt><trkpt lat="43.91520550713328" lon="11.22502171326777"><ele>211.0</ele><time>2026-04-05T16:19:27Z</time></trkpt><trkpt lat="43.91509750970046" lon="11.224997069308065"><ele>210.20000000000002</ele><time>2026-04-05T16:19:28Z</time></trkpt><trkpt lat="43.91498296383012" lon="11.224965658851833"><ele>209.4</ele><time>2026-04-05T16:19:29Z</time></trkpt><trkpt lat="43.914866859556525" lon="11.224930172201075"><ele>208.6</ele><time>2026-04-05T16:19:30Z</time></trkpt><trkpt lat="43.91476197823766" lon="11.224893744908721"><ele>207.8</ele><time>2026-04-05T16:19:31Z</time></trkpt><trkpt lat="43.91466261767326" lon="11.224849620899947"><ele>207.0</ele><time>2026-04-05T16:19:32Z</time></trkpt><trkpt lat="43.914585043793686" lon="11.22479579741916"><ele>207.0</ele><time>2026-04-05T16:19:33Z</time></trkpt><trkpt lat="43.9145145295343" lon="11.22474754106215"><ele>207.0</ele><time>2026-04-05T16:19:34Z</time></trkpt><trkpt lat="43.91444754624448" lon="11.224687273934109"><ele>207.0</ele><time>2026-04-05T16:19:35Z</time></trkpt><trkpt lat="43.91438739145886" lon="11.224605839754185"><ele>207.0</ele><time>2026-04-05T16:19:36Z</time></trkpt><trkpt lat="43.91432766375952" lon="11.224502416413985"><ele>207.0</ele><time>2026-04-05T16:19:37Z</time></trkpt><trkpt lat="43.91426298366728" lon="11.224390355130163"><ele>207.0</ele><time>2026-04-05T16:19:38Z</time></trkpt><trkpt lat="43.91420814067269" lon="11.224286238950244"><ele>206.0</ele><time>2026-04-05T16:19:39Z</time></trkpt><trkpt lat="43.91415291241002" lon="11.224201921775903"><ele>205.0</ele><time>2026-04-05T16:19:40Z</time></trkpt><trkpt lat="43.91405196144578" lon="11.224174256479175"><ele>204.0</ele><time>2026-04-05T16:19:41Z</time></trkpt><trkpt lat="43.913958195522085" lon="11.22410790736464"><ele>203.0</ele><time>2026-04-05T16:19:42Z</time></trkpt><trkpt lat="43.91386484632215" lon="11.224029813024055"><ele>202.0</ele><time>2026-04-05T16:19:43Z</time></trkpt><trkpt lat="43.91375475757856" lon="11.22394842759397"><ele>202.0</ele><time>2026-04-05T16:19:44Z</time></trkpt><trkpt lat="43.91365954813227" lon="11.22381676395872"><ele>202.0</ele><time>2026-04-05T16:19:45Z</time></trkpt><trkpt lat="43.91356032529053" lon="11.223663292325256"><ele>202.0</ele><time>2026-04-05T16:19:46Z</time></trkpt><trkpt lat="43.91346325081777" lon="11.223496571207972"><ele>202.0</ele><time>2026-04-05T16:19:47Z</time></trkpt><trkpt lat="43.913367117469406" lon="11.22333152125772"><ele>200.25</ele><time>2026-04-05T16:19:48Z</time></trkpt><trkpt lat="43.913279827985654" lon="11.223176500946483"><ele>198.5</ele><time>2026-04-05T16:19:49Z</time></trkpt><trkpt lat="43.913199039993835" lon="11.2230388873117"><ele>196.75</ele><time>2026-04-05T16:19:50Z</time></trkpt><trkpt lat="43.91313901899706" lon="11.222901399707077"><ele>195.0</ele><time>2026-04-05T16:19:51Z</time></trkpt><trkpt lat="43.91310469539699" lon="11.222747035645254"><ele>194.25</ele><time>2026-04-05T16:19:52Z</time></trkpt><trkpt lat="43.913086554567464" lon="11.222573376642067"><ele>193.5</ele><time>2026-04-05T16:19:53Z</time></trkpt><trkpt lat="43.913081550796356" lon="11.222390738780124"><ele>192.75</ele><time>2026-04-05T16:19:54Z</time></trkpt><trkpt lat="43.91307730765677" lon="11.222187072595808"><ele>192.0</ele><time>2026-04-05T16:19:55Z</time></trkpt><trkpt lat="43.91305812924608" lon="11.22198400192722"><ele>192.0</ele><time>2026-04-05T16:19:56Z</time></trkpt><trkpt lat="43.91303583085712" lon="11.221779393301627"><ele>192.0</ele><time>2026-04-05T16:19:57Z</time></trkpt><trkpt lat="43.91301539655346" lon="11.221578088809368"><ele>192.0</ele><time>2026-04-05T16:19:58Z</time></trkpt><trkpt lat="43.91298827363384" lon="11.221384300529769"><ele>192.0</ele><time>2026-04-05T16:19:59Z</time></trkpt><trkpt lat="43.912939371745324" lon="11.221198021747036"><ele>194.0</ele><time>2026-04-05T16:20:00Z</time></trkpt><trkpt lat="43.91288681562565" lon="11.22102257585486"><ele>196.0</ele><time>2026-04-05T16:20:01Z</time></trkpt><trkpt lat="43.91285492328213" lon="11.220848971059732"><ele>198.0</ele><time>2026-04-05T16:20:02Z</time></trkpt><trkpt lat="43.91284400003619" lon="11.220677304973684"><ele>200.0</ele><time>2026-04-05T16:20:03Z</time></trkpt><trkpt lat="43.91281711649768" lon="11.220528258857863"><ele>202.5</ele><time>2026-04-05T16:20:04Z</time></trkpt><trkpt lat="43.912761264879926" lon="11.22039715251922"><ele>205.0</ele><time>2026-04-05T16:20:05Z</time></trkpt><trkpt lat="43.912682382084014" lon="11.220283162643657"><ele>207.5</ele><time>2026-04-05T16:20:06Z</time></trkpt><trkpt lat="43.91258469430888" lon="11.220174504733112"><ele>210.0</ele><time>2026-04-05T16:20:07Z</time></trkpt><trkpt lat="43.91247300159923" lon="11.220068461473204"><ele>202.66666666666666</ele><time>2026-04-05T16:20:08Z</time></trkpt><trkpt lat="43.912347053315834" lon="11.219977523441923"><ele>195.33333333333331</ele><time>2026-04-05T16:20:09Z</time></trkpt><trkpt lat="43.91220721593294" lon="11.219897804140077"><ele>188.0</ele><time>2026-04-05T16:20:10Z</time></trkpt><trkpt lat="43.9120586667641" lon="11.219824830727797"><ele>187.25</ele><time>2026-04-05T16:20:11Z</time></trkpt><trkpt lat="43.911910848108185" lon="11.219745369075824"><ele>186.5</ele><time>2026-04-05T16:20:12Z</time></trkpt><trkpt lat="43.91178373387816" lon="11.219650011117485"><ele>185.75</ele><time>2026-04-05T16:20:13Z</time></trkpt><trkpt lat="43.91166913676726" lon="11.21954642826433"><ele>185.0</ele><time>2026-04-05T16:20:14Z</time></trkpt><trkpt lat="43.91156483980261" lon="11.219442476668613"><ele>185.0</ele><time>2026-04-05T16:20:15Z</time></trkpt><trkpt lat="43.911465804753576" lon="11.219322376747172"><ele>185.0</ele><time>2026-04-05T16:20:16Z</time></trkpt><trkpt lat="43.911363558143" lon="11.219193176800555"><ele>185.0</ele><time>2026-04-05T16:20:17Z</time></trkpt><trkpt lat="43.91125850181337" lon="11.219059314522267"><ele>185.0</ele><time>2026-04-05T16:20:18Z</time></trkpt><trkpt lat="43.911139499802886" lon="11.218919920893986"><ele>185.33333333333331</ele><time>2026-04-05T16:20:19Z</time></trkpt><trkpt lat="43.91100617291394" lon="11.218791305004993"><ele>185.66666666666666</ele><time>2026-04-05T16:20:20Z</time></trkpt><trkpt lat="43.91086335231549" lon="11.218662819065704"><ele>186.0</ele><time>2026-04-05T16:20:21Z</time></trkpt><trkpt lat="43.910719821483816" lon="11.218530162038983"><ele>186.0</ele><time>2026-04-05T16:20:22Z</time></trkpt><trkpt lat="43.910571514034835" lon="11.218385559440986"><ele>186.0</ele><time>2026-04-05T16:20:23Z</time></trkpt><trkpt lat="43.9104180159612" lon="11.21823987315476"><ele>186.0</ele><time>2026-04-05T16:20:24Z</time></trkpt><trkpt lat="43.91026463237931" lon="11.218106213044363"><ele>185.0</ele><time>2026-04-05T16:20:25Z</time></trkpt><trkpt lat="43.91011307486689" lon="11.217978689199086"><ele>184.0</ele><time>2026-04-05T16:20:26Z</time></trkpt><trkpt lat="43.90996673552381" lon="11.217858448171961"><ele>183.0</ele><time>2026-04-05T16:20:27Z</time></trkpt><trkpt lat="43.909816341013205" lon="11.217746859544434"><ele>183.0</ele><time>2026-04-05T16:20:28Z</time></trkpt><trkpt lat="43.90967455108222" lon="11.21764260258139"><ele>183.0</ele><time>2026-04-05T16:20:29Z</time></trkpt><trkpt lat="43.90953864546106" lon="11.217541779073148"><ele>183.0</ele><time>2026-04-05T16:20:30Z</time></trkpt><trkpt lat="43.90938307619223" lon="11.217420693973311"><ele>181.33333333333334</ele><time>2026-04-05T16:20:31Z</time></trkpt><trkpt lat="43.90925064476264" lon="11.217280240076063"><ele>179.66666666666669</ele><time>2026-04-05T16:20:32Z</time></trkpt><trkpt lat="43.909127172728105" lon="11.217141168047869"><ele>178.0</ele><time>2026-04-05T16:20:33Z</time></trkpt><trkpt lat="43.9090065859897" lon="11.217013533520307"><ele>178.0</ele><time>2026-04-05T16:20:34Z</time></trkpt><trkpt lat="43.908894634517864" lon="11.216897118022729"><ele>178.0</ele><time>2026-04-05T16:20:35Z</time></trkpt><trkpt lat="43.908797550047126" lon="11.216791333795175"><ele>178.0</ele><time>2026-04-05T16:20:36Z</time></trkpt><trkpt lat="43.90870857311586" lon="11.216687766958469"><ele>178.0</ele><time>2026-04-05T16:20:37Z</time></trkpt><trkpt lat="43.90862701786235" lon="11.216600701466046"><ele>178.0</ele><time>2026-04-05T16:20:38Z</time></trkpt><trkpt lat="43.90855124010006" lon="11.216521176410549"><ele>178.0</ele><time>2026-04-05T16:20:39Z</time></trkpt><trkpt lat="43.90848099305977" lon="11.216449714983241"><ele>178.0</ele><time>2026-04-05T16:20:40Z</time></trkpt><trkpt lat="43.90841961991886" lon="11.216375433462478"><ele>178.0</ele><time>2026-04-05T16:20:41Z</time></trkpt><trkpt lat="43.90834943030199" lon="11.216300552371097"><ele>178.0</ele><time>2026-04-05T16:20:42Z</time></trkpt><trkpt lat="43.908274488460336" lon="11.216229200542475"><ele>178.0</ele><time>2026-04-05T16:20:43Z</time></trkpt><trkpt lat="43.90818748754421" lon="11.216125455523143"><ele>178.25</ele><time>2026-04-05T16:20:44Z</time></trkpt><trkpt lat="43.9080758094382" lon="11.21602481219664"><ele>178.5</ele><time>2026-04-05T16:20:45Z</time></trkpt><trkpt lat="43.907950296562746" lon="11.215913813462116"><ele>178.75</ele><time>2026-04-05T16:20:46Z</time></trkpt><trkpt lat="43.90780848958806" lon="11.215807495624299"><ele>179.0</ele><time>2026-04-05T16:20:47Z</time></trkpt><trkpt lat="43.907673920260535" lon="11.215684535337298"><ele>178.5</ele><time>2026-04-05T16:20:48Z</time></trkpt><trkpt lat="43.90754647284779" lon="11.215559507897852"><ele>178.0</ele><time>2026-04-05T16:20:49Z</time></trkpt><trkpt lat="43.907426460738066" lon="11.21545270350586"><ele>177.5</ele><time>2026-04-05T16:20:50Z</time></trkpt><trkpt lat="43.90731892249278" lon="11.215347535991024"><ele>177.0</ele><time>2026-04-05T16:20:51Z</time></trkpt><trkpt lat="43.90721981780013" lon="11.215219775755877"><ele>177.0</ele><time>2026-04-05T16:20:52Z</time></trkpt><trkpt lat="43.90712718940514" lon="11.215068229402043"><ele>177.0</ele><time>2026-04-05T16:20:53Z</time></trkpt><trkpt lat="43.90705900715894" lon="11.21488279871903"><ele>177.0</ele><time>2026-04-05T16:20:54Z</time></trkpt><trkpt lat="43.906989931253186" lon="11.214687550177738"><ele>180.0</ele><time>2026-04-05T16:20:55Z</time></trkpt><trkpt lat="43.906928079189214" lon="11.214473029876237"><ele>183.0</ele><time>2026-04-05T16:20:56Z</time></trkpt><trkpt lat="43.90686028027441" lon="11.214242271002586"><ele>186.0</ele><time>2026-04-05T16:20:57Z</time></trkpt><trkpt lat="43.906772050011085" lon="11.214020950987644"><ele>181.33333333333334</ele><time>2026-04-05T16:20:58Z</time></trkpt><trkpt lat="43.906700427867165" lon="11.21380836688028"><ele>176.66666666666669</ele><time>2026-04-05T16:20:59Z</time></trkpt><trkpt lat="43.9066314906166" lon="11.213602869134604"><ele>172.0</ele><time>2026-04-05T16:21:00Z</time></trkpt><trkpt lat="43.90655651422548" lon="11.213396336522075"><ele>172.0</ele><time>2026-04-05T16:21:01Z</time></trkpt><trkpt lat="43.906482645928506" lon="11.213204807755078"><ele>172.0</ele><time>2026-04-05T16:21:02Z</time></trkpt><trkpt lat="43.90641022222723" lon="11.213030954017366"><ele>172.0</ele><time>2026-04-05T16:21:03Z</time></trkpt><trkpt lat="43.90633612757029" lon="11.212870821805243"><ele>172.0</ele><time>2026-04-05T16:21:04Z</time></trkpt><trkpt lat="43.90625139404332" lon="11.212735388018688"><ele>173.25</ele><time>2026-04-05T16:21:05Z</time></trkpt><trkpt lat="43.90615010997296" lon="11.212619081009036"><ele>174.5</ele><time>2026-04-05T16:21:06Z</time></trkpt><trkpt lat="43.9060353363759" lon="11.212526596905954"><ele>175.75</ele><time>2026-04-05T16:21:07Z</time></trkpt><trkpt lat="43.90590305695129" lon="11.212460110124484"><ele>177.0</ele><time>2026-04-05T16:21:08Z</time></trkpt><trkpt lat="43.90576481636803" lon="11.212413134282267"><ele>174.5</ele><time>2026-04-05T16:21:09Z</time></trkpt><trkpt lat="43.90563540183767" lon="11.212374720832855"><ele>172.0</ele><time>2026-04-05T16:21:10Z</time></trkpt><trkpt lat="43.905518699711365" lon="11.212338268985588"><ele>169.5</ele><time>2026-04-05T16:21:11Z</time></trkpt><trkpt lat="43.905414592169706" lon="11.212303495390852"><ele>167.0</ele><time>2026-04-05T16:21:12Z</time></trkpt><trkpt lat="43.90532676919335" lon="11.212260909923463"><ele>167.0</ele><time>2026-04-05T16:21:13Z</time></trkpt><trkpt lat="43.9052650311253" lon="11.212198988721592"><ele>167.0</ele><time>2026-04-05T16:21:14Z</time></trkpt><trkpt lat="43.90522707093277" lon="11.21210534687985"><ele>167.0</ele><time>2026-04-05T16:21:15Z</time></trkpt><trkpt lat="43.90520065203237" lon="11.211992036013148"><ele>167.0</ele><time>2026-04-05T16:21:16Z</time></trkpt><trkpt lat="43.90517630174278" lon="11.211866769050589"><ele>167.0</ele><time>2026-04-05T16:21:17Z</time></trkpt><trkpt lat="43.90514932257906" lon="11.211732817545688"><ele>167.0</ele><time>2026-04-05T16:21:18Z</time></trkpt><trkpt lat="43.90513076136405" lon="11.211586409263308"><ele>168.39999999999998</ele><time>2026-04-05T16:21:19Z</time></trkpt><trkpt lat="43.905128509739434" lon="11.211441419207453"><ele>169.79999999999998</ele><time>2026-04-05T16:21:20Z</time></trkpt><trkpt lat="43.90513444739049" lon="11.21130890982104"><ele>171.2</ele><time>2026-04-05T16:21:21Z</time></trkpt><trkpt lat="43.90513731655271" lon="11.211181563171136"><ele>172.6</ele><time>2026-04-05T16:21:22.001Z</time></trkpt><trkpt lat="43.90513904751462" lon="11.211062259745537"><ele>174.0</ele><time>2026-04-05T16:21:23.001Z</time></trkpt><trkpt lat="43.90514638536428" lon="11.210938234846385"><ele>174.0</ele><time>2026-04-05T16:21:24.001Z</time></trkpt><trkpt lat="43.90515373705651" lon="11.21080159800864"><ele>174.0</ele><time>2026-04-05T16:21:25.001Z</time></trkpt><trkpt lat="43.905156266353416" lon="11.21065759425179"><ele>174.0</ele><time>2026-04-05T16:21:26.001Z</time></trkpt><trkpt lat="43.90515996564935" lon="11.21051506091254"><ele>174.0</ele><time>2026-04-05T16:21:27.001Z</time></trkpt><trkpt lat="43.90516300426737" lon="11.210378227651903"><ele>174.0</ele><time>2026-04-05T16:21:28.001Z</time></trkpt><trkpt lat="43.90516089612282" lon="11.210254013311943"><ele>173.16666666666666</ele><time>2026-04-05T16:21:29.001Z</time></trkpt><trkpt lat="43.90514886687994" lon="11.210142311313815"><ele>172.33333333333334</ele><time>2026-04-05T16:21:30.001Z</time></trkpt><trkpt lat="43.90512779613379" lon="11.210044552661337"><ele>171.5</ele><time>2026-04-05T16:21:31.001Z</time></trkpt><trkpt lat="43.905095341589885" lon="11.209960871615932"><ele>170.66666666666669</ele><time>2026-04-05T16:21:32.001Z</time></trkpt><trkpt lat="43.90504511158353" lon="11.209896134944515"><ele>169.83333333333334</ele><time>2026-04-05T16:21:33.001Z</time></trkpt><trkpt lat="43.904975781032505" lon="11.209852387699497"><ele>169.0</ele><time>2026-04-05T16:21:34.001Z</time></trkpt><trkpt lat="43.904888376137" lon="11.209812027994673"><ele>177.0</ele><time>2026-04-05T16:21:35.001Z</time></trkpt><trkpt lat="43.904784007832895" lon="11.209745928113222"><ele>185.0</ele><time>2026-04-05T16:21:36.001Z</time></trkpt><trkpt lat="43.90465897994842" lon="11.209690280402336"><ele>193.0</ele><time>2026-04-05T16:21:37.001Z</time></trkpt><trkpt lat="43.90450261987375" lon="11.209656907367792"><ele>201.0</ele><time>2026-04-05T16:21:38.001Z</time></trkpt><trkpt lat="43.904347151189455" lon="11.209590340487306"><ele>192.0</ele><time>2026-04-05T16:21:39.001Z</time></trkpt><trkpt lat="43.90418880877303" lon="11.209542596846667"><ele>183.0</ele><time>2026-04-05T16:21:40.001Z</time></trkpt><trkpt lat="43.90403892383233" lon="11.209495707075462"><ele>174.0</ele><time>2026-04-05T16:21:41.001Z</time></trkpt><trkpt lat="43.90390266314355" lon="11.209449016540466"><ele>174.0</ele><time>2026-04-05T16:21:42.001Z</time></trkpt><trkpt lat="43.903779611207796" lon="11.209397355863699"><ele>174.0</ele><time>2026-04-05T16:21:43.001Z</time></trkpt><trkpt lat="43.90366858461918" lon="11.209345730562514"><ele>174.0</ele><time>2026-04-05T16:21:44.001Z</time></trkpt><trkpt lat="43.90356766057899" lon="11.209305014721759"><ele>174.0</ele><time>2026-04-05T16:21:45.001Z</time></trkpt><trkpt lat="43.90348157712451" lon="11.20926547811614"><ele>174.0</ele><time>2026-04-05T16:21:46.001Z</time></trkpt><trkpt lat="43.90340358816894" lon="11.209230653349298"><ele>172.66666666666666</ele><time>2026-04-05T16:21:47.001Z</time></trkpt><trkpt lat="43.903330974368416" lon="11.209187626057176"><ele>171.33333333333334</ele><time>2026-04-05T16:21:48.001Z</time></trkpt><trkpt lat="43.9032689596576" lon="11.209144691421017"><ele>170.0</ele><time>2026-04-05T16:21:49.001Z</time></trkpt><trkpt lat="43.903212830800825" lon="11.209087830390526"><ele>168.66666666666669</ele><time>2026-04-05T16:21:50.001Z</time></trkpt><trkpt lat="43.90316798668014" lon="11.20901347834096"><ele>167.33333333333334</ele><time>2026-04-05T16:21:51.001Z</time></trkpt><trkpt lat="43.90313165172587" lon="11.208918388332867"><ele>166.0</ele><time>2026-04-05T16:21:52.001Z</time></trkpt><trkpt lat="43.90310502493523" lon="11.208806096504018"><ele>166.0</ele><time>2026-04-05T16:21:53.001Z</time></trkpt><trkpt lat="43.90308529567897" lon="11.208690469222164"><ele>166.0</ele><time>2026-04-05T16:21:54.001Z</time></trkpt><trkpt lat="43.90306587984831" lon="11.208553832689352"><ele>166.0</ele><time>2026-04-05T16:21:55.001Z</time></trkpt><trkpt lat="43.90304507025568" lon="11.20842158873204"><ele>166.0</ele><time>2026-04-05T16:21:56.001Z</time></trkpt><trkpt lat="43.903020053996045" lon="11.208293392804363"><ele>166.0</ele><time>2026-04-05T16:21:57.001Z</time></trkpt><trkpt lat="43.90299275882918" lon="11.208174858294731"><ele>170.60000000000002</ele><time>2026-04-05T16:21:58.001Z</time></trkpt><trkpt lat="43.902956100689664" lon="11.208062607124772"><ele>175.2</ele><time>2026-04-05T16:21:59.001Z</time></trkpt><trkpt lat="43.90291588523481" lon="11.20795675909599"><ele>179.8</ele><time>2026-04-05T16:22:00.001Z</time></trkpt><trkpt lat="43.902866228063594" lon="11.207847171513977"><ele>184.39999999999998</ele><time>2026-04-05T16:22:01.001Z</time></trkpt><trkpt lat="43.902814799173115" lon="11.207734716356374"><ele>189.0</ele><time>2026-04-05T16:22:02.001Z</time></trkpt><trkpt lat="43.90275819793049" lon="11.207626137516854"><ele>189.0</ele><time>2026-04-05T16:22:03.001Z</time></trkpt><trkpt lat="43.902697546814665" lon="11.207520630216363"><ele>189.0</ele><time>2026-04-05T16:22:04.001Z</time></trkpt><trkpt lat="43.902629563387386" lon="11.207413965583635"><ele>189.0</ele><time>2026-04-05T16:22:05.001Z</time></trkpt><trkpt lat="43.90252874433561" lon="11.207307374493517"><ele>189.0</ele><time>2026-04-05T16:22:06.001Z</time></trkpt><trkpt lat="43.902419944140036" lon="11.207206300450204"><ele>185.75</ele><time>2026-04-05T16:22:07.001Z</time></trkpt><trkpt lat="43.90231095886106" lon="11.207112701419419"><ele>182.5</ele><time>2026-04-05T16:22:08.001Z</time></trkpt><trkpt lat="43.902215027277315" lon="11.207023538080167"><ele>179.25</ele><time>2026-04-05T16:22:09.001Z</time></trkpt><trkpt lat="43.902129959918334" lon="11.206920557455932"><ele>176.0</ele><time>2026-04-05T16:22:10.001Z</time></trkpt><trkpt lat="43.902054655497714" lon="11.20679351464192"><ele>176.0</ele><time>2026-04-05T16:22:11.001Z</time></trkpt><trkpt lat="43.90197712179588" lon="11.206661983937709"><ele>176.0</ele><time>2026-04-05T16:22:12.001Z</time></trkpt><trkpt lat="43.90191804253994" lon="11.206489560960515"><ele>176.0</ele><time>2026-04-05T16:22:13.001Z</time></trkpt><trkpt lat="43.9018335285062" lon="11.206316295777945"><ele>176.0</ele><time>2026-04-05T16:22:14.001Z</time></trkpt><trkpt lat="43.901731055018324" lon="11.206126552932288"><ele>174.66666666666666</ele><time>2026-04-05T16:22:15.001Z</time></trkpt><trkpt lat="43.901632224734605" lon="11.205924592896178"><ele>173.33333333333334</ele><time>2026-04-05T16:22:16.001Z</time></trkpt><trkpt lat="43.90153675626717" lon="11.205702485389212"><ele>172.0</ele><time>2026-04-05T16:22:17.001Z</time></trkpt><trkpt lat="43.90144786899532" lon="11.205474814181413"><ele>172.0</ele><time>2026-04-05T16:22:18.001Z</time></trkpt><trkpt lat="43.90135888742747" lon="11.205239760817916"><ele>172.0</ele><time>2026-04-05T16:22:19.001Z</time></trkpt><trkpt lat="43.9012753106163" lon="11.205009725967242"><ele>172.0</ele><time>2026-04-05T16:22:20.001Z</time></trkpt><trkpt lat="43.90119858543726" lon="11.204790570171486"><ele>176.0</ele><time>2026-04-05T16:22:21.001Z</time></trkpt><trkpt lat="43.901118865575555" lon="11.204583087205245"><ele>180.0</ele><time>2026-04-05T16:22:22.001Z</time></trkpt><trkpt lat="43.90104250965068" lon="11.20438192202302"><ele>184.0</ele><time>2026-04-05T16:22:23.001Z</time></trkpt><trkpt lat="43.9009755893105" lon="11.204180483061814"><ele>178.75</ele><time>2026-04-05T16:22:24.001Z</time></trkpt><trkpt lat="43.90091054311727" lon="11.203990539446469"><ele>173.5</ele><time>2026-04-05T16:22:25.001Z</time></trkpt><trkpt lat="43.900844567678895" lon="11.203813642465095"><ele>168.25</ele><time>2026-04-05T16:22:26.001Z</time></trkpt><trkpt lat="43.900775440847866" lon="11.20363198744298"><ele>163.0</ele><time>2026-04-05T16:22:27.001Z</time></trkpt><trkpt lat="43.90069706482516" lon="11.203451306782213"><ele>163.0</ele><time>2026-04-05T16:22:28.001Z</time></trkpt><trkpt lat="43.900607764319226" lon="11.203279698949824"><ele>163.0</ele><time>2026-04-05T16:22:29.001Z</time></trkpt><trkpt lat="43.90048757783159" lon="11.203129709358361"><ele>163.0</ele><time>2026-04-05T16:22:30.001Z</time></trkpt><trkpt lat="43.90035004742276" lon="11.203000093640101"><ele>166.33333333333334</ele><time>2026-04-05T16:22:31.001Z</time></trkpt><trkpt lat="43.90020461269172" lon="11.202895165416471"><ele>169.66666666666666</ele><time>2026-04-05T16:22:32.001Z</time></trkpt><trkpt lat="43.90004463891364" lon="11.202821955385279"><ele>173.0</ele><time>2026-04-05T16:22:33.001Z</time></trkpt><trkpt lat="43.89985790877576" lon="11.202792266153374"><ele>173.0</ele><time>2026-04-05T16:22:34.001Z</time></trkpt><trkpt lat="43.89965549261155" lon="11.202783959225076"><ele>173.0</ele><time>2026-04-05T16:22:35.001Z</time></trkpt><trkpt lat="43.89945445331463" lon="11.202767027676032"><ele>173.0</ele><time>2026-04-05T16:22:36.001Z</time></trkpt><trkpt lat="43.89924644515828" lon="11.202745564761836"><ele>167.66666666666666</ele><time>2026-04-05T16:22:37.001Z</time></trkpt><trkpt lat="43.89903500448897" lon="11.20272395372451"><ele>162.33333333333334</ele><time>2026-04-05T16:22:38.001Z</time></trkpt><trkpt lat="43.89882670914651" lon="11.202708332546084"><ele>157.0</ele><time>2026-04-05T16:22:39.001Z</time></trkpt><trkpt lat="43.89862213822625" lon="11.20269226083632"><ele>157.0</ele><time>2026-04-05T16:22:40.001Z</time></trkpt><trkpt lat="43.89843119588094" lon="11.202670016615798"><ele>157.0</ele><time>2026-04-05T16:22:41.001Z</time></trkpt><trkpt lat="43.89826634566129" lon="11.202667227375093"><ele>157.0</ele><time>2026-04-05T16:22:42.001Z</time></trkpt><trkpt lat="43.89810526767508" lon="11.202632811657036"><ele>155.0</ele><time>2026-04-05T16:22:43.001Z</time></trkpt><trkpt lat="43.8979530445668" lon="11.202558171164206"><ele>153.0</ele><time>2026-04-05T16:22:44.001Z</time></trkpt><trkpt lat="43.89780529907573" lon="11.202475716233973"><ele>151.0</ele><time>2026-04-05T16:22:45.001Z</time></trkpt><trkpt lat="43.89765177444181" lon="11.202402861016374"><ele>147.66666666666669</ele><time>2026-04-05T16:22:46.001Z</time></trkpt><trkpt lat="43.897492094662255" lon="11.202341114588696"><ele>144.33333333333334</ele><time>2026-04-05T16:22:47.001Z</time></trkpt><trkpt lat="43.89732320801264" lon="11.202265017313096"><ele>141.0</ele><time>2026-04-05T16:22:48.001Z</time></trkpt><trkpt lat="43.897177836767284" lon="11.202116501430767"><ele>143.0</ele><time>2026-04-05T16:22:49.001Z</time></trkpt><trkpt lat="43.89701350627273" lon="11.201977630964757"><ele>145.0</ele><time>2026-04-05T16:22:50.001Z</time></trkpt><trkpt lat="43.89684875040748" lon="11.20183939104056"><ele>147.0</ele><time>2026-04-05T16:22:51.001Z</time></trkpt><trkpt lat="43.89666986888814" lon="11.201728144220501"><ele>147.0</ele><time>2026-04-05T16:22:52.001Z</time></trkpt><trkpt lat="43.8964964010602" lon="11.201607717780009"><ele>147.0</ele><time>2026-04-05T16:22:53.001Z</time></trkpt><trkpt lat="43.89634663515074" lon="11.201475818785761"><ele>147.0</ele><time>2026-04-05T16:22:54.001Z</time></trkpt><trkpt lat="43.896200606535736" lon="11.201350064650589"><ele>150.66666666666666</ele><time>2026-04-05T16:22:55.001Z</time></trkpt><trkpt lat="43.89605862773293" lon="11.201228730154371"><ele>154.33333333333331</ele><time>2026-04-05T16:22:56.001Z</time></trkpt><trkpt lat="43.895899751591024" lon="11.201136974702413"><ele>158.0</ele><time>2026-04-05T16:22:57.001Z</time></trkpt><trkpt lat="43.895722471363335" lon="11.201147579358741"><ele>158.0</ele><time>2026-04-05T16:22:58.001Z</time></trkpt><trkpt lat="43.8955847644693" lon="11.20118282284849"><ele>158.0</ele><time>2026-04-05T16:22:59.001Z</time></trkpt><trkpt lat="43.89545704741054" lon="11.201152980559087"><ele>158.0</ele><time>2026-04-05T16:23:00.001Z</time></trkpt><trkpt lat="43.895338570949235" lon="11.201057780797523"><ele>158.0</ele><time>2026-04-05T16:23:01.001Z</time></trkpt><trkpt lat="43.89525166307363" lon="11.200888872583961"><ele>158.0</ele><time>2026-04-05T16:23:02.001Z</time></trkpt><trkpt lat="43.89514579771127" lon="11.200728215706963"><ele>158.0</ele><time>2026-04-05T16:23:03.001Z</time></trkpt><trkpt lat="43.8950503668609" lon="11.20056240771215"><ele>158.0</ele><time>2026-04-05T16:23:04.001Z</time></trkpt><trkpt lat="43.894926385564645" lon="11.200433604008573"><ele>162.66666666666666</ele><time>2026-04-05T16:23:05.001Z</time></trkpt><trkpt lat="43.89479361962461" lon="11.200344372475284"><ele>167.33333333333334</ele><time>2026-04-05T16:23:06.001Z</time></trkpt><trkpt lat="43.89465345314851" lon="11.200284695822587"><ele>172.0</ele><time>2026-04-05T16:23:07.001Z</time></trkpt><trkpt lat="43.894492700345346" lon="11.200248487232946"><ele>172.0</ele><time>2026-04-05T16:23:08.001Z</time></trkpt><trkpt lat="43.894319150832004" lon="11.200202682550444"><ele>172.0</ele><time>2026-04-05T16:23:09.001Z</time></trkpt><trkpt lat="43.894148756363755" lon="11.200144122516344"><ele>172.0</ele><time>2026-04-05T16:23:10.001Z</time></trkpt><trkpt lat="43.89399334176045" lon="11.200102032803024"><ele>166.0</ele><time>2026-04-05T16:23:11.001Z</time></trkpt><trkpt lat="43.89384267583872" lon="11.200111105078497"><ele>160.0</ele><time>2026-04-05T16:23:12.001Z</time></trkpt><trkpt lat="43.89369948546694" lon="11.200157090715654"><ele>154.0</ele><time>2026-04-05T16:23:13.001Z</time></trkpt><trkpt lat="43.893565039191586" lon="11.200182671426075"><ele>148.0</ele><time>2026-04-05T16:23:14.001Z</time></trkpt><trkpt lat="43.89342696918732" lon="11.200160693381394"><ele>141.66666666666669</ele><time>2026-04-05T16:23:15.001Z</time></trkpt><trkpt lat="43.89327360771908" lon="11.200112085160976"><ele>135.33333333333334</ele><time>2026-04-05T16:23:16.001Z</time></trkpt><trkpt lat="43.89312107369506" lon="11.200046335477744"><ele>129.0</ele><time>2026-04-05T16:23:17.001Z</time></trkpt><trkpt lat="43.89296738465736" lon="11.199963564210675"><ele>129.0</ele><time>2026-04-05T16:23:18.001Z</time></trkpt><trkpt lat="43.89282118917397" lon="11.199854228086803"><ele>129.0</ele><time>2026-04-05T16:23:19.001Z</time></trkpt><trkpt lat="43.8926731405155" lon="11.199732055594351"><ele>129.0</ele><time>2026-04-05T16:23:20.001Z</time></trkpt><trkpt lat="43.89253463356996" lon="11.199603421935567"><ele>127.33333333333334</ele><time>2026-04-05T16:23:21.001Z</time></trkpt><trkpt lat="43.89239644913367" lon="11.199465962882593"><ele>125.66666666666667</ele><time>2026-04-05T16:23:22.001Z</time></trkpt><trkpt lat="43.89226199849901" lon="11.199327819325454"><ele>124.0</ele><time>2026-04-05T16:23:23.001Z</time></trkpt><trkpt lat="43.892123019585085" lon="11.199192912177285"><ele>124.0</ele><time>2026-04-05T16:23:24.001Z</time></trkpt><trkpt lat="43.891990431708216" lon="11.199045163462804"><ele>124.0</ele><time>2026-04-05T16:23:25.001Z</time></trkpt><trkpt lat="43.8918737772073" lon="11.198859874017746"><ele>124.0</ele><time>2026-04-05T16:23:26.001Z</time></trkpt><trkpt lat="43.89177112350125" lon="11.198654382865545"><ele>124.33333333333334</ele><time>2026-04-05T16:23:27.001Z</time></trkpt><trkpt lat="43.891666504074394" lon="11.19844656696176"><ele>124.66666666666666</ele><time>2026-04-05T16:23:28.001Z</time></trkpt><trkpt lat="43.891560446671576" lon="11.19826008806585"><ele>125.0</ele><time>2026-04-05T16:23:29.001Z</time></trkpt><trkpt lat="43.8914610694817" lon="11.198095730087774"><ele>130.75</ele><time>2026-04-05T16:23:30.001Z</time></trkpt><trkpt lat="43.89135499621258" lon="11.197956931977277"><ele>136.5</ele><time>2026-04-05T16:23:31.001Z</time></trkpt><trkpt lat="43.891239774608216" lon="11.197850596865697"><ele>142.25</ele><time>2026-04-05T16:23:32.001Z</time></trkpt><trkpt lat="43.89110359235706" lon="11.197783960483857"><ele>148.0</ele><time>2026-04-05T16:23:33.001Z</time></trkpt><trkpt lat="43.89094342504489" lon="11.197752777278355"><ele>143.25</ele><time>2026-04-05T16:23:34.001Z</time></trkpt><trkpt lat="43.890786492962" lon="11.197712019333618"><ele>138.5</ele><time>2026-04-05T16:23:35.001Z</time></trkpt><trkpt lat="43.89065261243983" lon="11.197627123354765"><ele>133.75</ele><time>2026-04-05T16:23:36.001Z</time></trkpt><trkpt lat="43.890537324570836" lon="11.197522326498229"><ele>129.0</ele><time>2026-04-05T16:23:37.001Z</time></trkpt><trkpt lat="43.890456734167905" lon="11.197386285469197"><ele>133.25</ele><time>2026-04-05T16:23:38.001Z</time></trkpt><trkpt lat="43.890411858081784" lon="11.197205678607848"><ele>137.5</ele><time>2026-04-05T16:23:39.001Z</time></trkpt><trkpt lat="43.89036974127203" lon="11.19701136294225"><ele>141.75</ele><time>2026-04-05T16:23:40.001Z</time></trkpt><trkpt lat="43.89031958629394" lon="11.196799915726142"><ele>146.0</ele><time>2026-04-05T16:23:41.001Z</time></trkpt><trkpt lat="43.89027085198211" lon="11.196573678459918"><ele>152.0</ele><time>2026-04-05T16:23:42.001Z</time></trkpt><trkpt lat="43.89022926679236" lon="11.196343195765278"><ele>158.0</ele><time>2026-04-05T16:23:43.001Z</time></trkpt><trkpt lat="43.890185502921646" lon="11.196138130452372"><ele>164.0</ele><time>2026-04-05T16:23:44.001Z</time></trkpt><trkpt lat="43.890123047797765" lon="11.19595252782061"><ele>154.33333333333331</ele><time>2026-04-05T16:23:45.001Z</time></trkpt><trkpt lat="43.89003027391275" lon="11.19577483114916"><ele>144.66666666666666</ele><time>2026-04-05T16:23:46.001Z</time></trkpt><trkpt lat="43.889911735945766" lon="11.195605336893319"><ele>135.0</ele><time>2026-04-05T16:23:47.001Z</time></trkpt><trkpt lat="43.88978671662215" lon="11.195435521288172"><ele>135.0</ele><time>2026-04-05T16:23:48.001Z</time></trkpt><trkpt lat="43.88966047350015" lon="11.195261927604346"><ele>135.0</ele><time>2026-04-05T16:23:49.001Z</time></trkpt><trkpt lat="43.88952868217919" lon="11.195080681810378"><ele>135.0</ele><time>2026-04-05T16:23:50.001Z</time></trkpt><trkpt lat="43.88940232728898" lon="11.19490094840626"><ele>131.33333333333334</ele><time>2026-04-05T16:23:51.001Z</time></trkpt><trkpt lat="43.88927512023365" lon="11.194715848538165"><ele>127.66666666666667</ele><time>2026-04-05T16:23:52.001Z</time></trkpt><trkpt lat="43.88916231772079" lon="11.194512606397128"><ele>124.0</ele><time>2026-04-05T16:23:53.001Z</time></trkpt><trkpt lat="43.88906459891699" lon="11.19430011232429"><ele>124.0</ele><time>2026-04-05T16:23:54.001Z</time></trkpt><trkpt lat="43.888972490776204" lon="11.194077665847502"><ele>124.0</ele><time>2026-04-05T16:23:55.001Z</time></trkpt><trkpt lat="43.888877126544635" lon="11.193851367286719"><ele>124.0</ele><time>2026-04-05T16:23:56.001Z</time></trkpt><trkpt lat="43.888773801882365" lon="11.193628955342504"><ele>121.0</ele><time>2026-04-05T16:23:57.001Z</time></trkpt><trkpt lat="43.888657223872485" lon="11.193414061172321"><ele>118.0</ele><time>2026-04-05T16:23:58.001Z</time></trkpt><trkpt lat="43.888548866412066" lon="11.193190378577146"><ele>115.0</ele><time>2026-04-05T16:23:59.001Z</time></trkpt><trkpt lat="43.88841804201138" lon="11.192999467488038"><ele>115.0</ele><time>2026-04-05T16:24:00.001Z</time></trkpt><trkpt lat="43.88830522034917" lon="11.192774340034903"><ele>115.0</ele><time>2026-04-05T16:24:01.001Z</time></trkpt><trkpt lat="43.88819286034996" lon="11.192540463794458"><ele>115.0</ele><time>2026-04-05T16:24:02.001Z</time></trkpt><trkpt lat="43.888082487925274" lon="11.192301499159168"><ele>114.66666666666667</ele><time>2026-04-05T16:24:03.001Z</time></trkpt><trkpt lat="43.887974495938785" lon="11.19207043534"><ele>114.33333333333334</ele><time>2026-04-05T16:24:04.001Z</time></trkpt><trkpt lat="43.88787553210525" lon="11.191858625301377"><ele>114.0</ele><time>2026-04-05T16:24:05.001Z</time></trkpt><trkpt lat="43.88778165798122" lon="11.191664079655757"><ele>116.33333333333334</ele><time>2026-04-05T16:24:06.001Z</time></trkpt><trkpt lat="43.887692416375565" lon="11.191476829618747"><ele>118.66666666666667</ele><time>2026-04-05T16:24:07.001Z</time></trkpt><trkpt lat="43.887603865426534" lon="11.191286796989221"><ele>121.0</ele><time>2026-04-05T16:24:08.001Z</time></trkpt><trkpt lat="43.88751469961386" lon="11.191088556055218"><ele>116.33333333333334</ele><time>2026-04-05T16:24:09.001Z</time></trkpt><trkpt lat="43.88742672521121" lon="11.190886745384814"><ele>111.66666666666666</ele><time>2026-04-05T16:24:10.001Z</time></trkpt><trkpt lat="43.88734981774046" lon="11.190677795293837"><ele>107.0</ele><time>2026-04-05T16:24:11.001Z</time></trkpt><trkpt lat="43.887288954391096" lon="11.190450984257879"><ele>107.0</ele><time>2026-04-05T16:24:12.001Z</time></trkpt><trkpt lat="43.88723853609046" lon="11.190213191125926"><ele>107.0</ele><time>2026-04-05T16:24:13.001Z</time></trkpt><trkpt lat="43.8872068481587" lon="11.189971710741295"><ele>107.0</ele><time>2026-04-05T16:24:14.001Z</time></trkpt><trkpt lat="43.8871947580773" lon="11.189721308911713"><ele>107.0</ele><time>2026-04-05T16:24:15.001Z</time></trkpt><trkpt lat="43.88719262656579" lon="11.189466084580394"><ele>107.0</ele><time>2026-04-05T16:24:16.001Z</time></trkpt><trkpt lat="43.88719744421238" lon="11.189207517701629"><ele>107.0</ele><time>2026-04-05T16:24:17.001Z</time></trkpt><trkpt lat="43.887208159222496" lon="11.188965752701781"><ele>108.0</ele><time>2026-04-05T16:24:18.001Z</time></trkpt><trkpt lat="43.88721880186967" lon="11.188740477599685"><ele>109.0</ele><time>2026-04-05T16:24:19.001Z</time></trkpt><trkpt lat="43.88722471234477" lon="11.188524466940382"><ele>110.0</ele><time>2026-04-05T16:24:20.001Z</time></trkpt><trkpt lat="43.88721900362249" lon="11.188321891949572"><ele>110.0</ele><time>2026-04-05T16:24:21.001Z</time></trkpt><trkpt lat="43.88719794056751" lon="11.188130589203542"><ele>110.0</ele><time>2026-04-05T16:24:22.001Z</time></trkpt><trkpt lat="43.887150888429304" lon="11.187946563338034"><ele>110.0</ele><time>2026-04-05T16:24:23.001Z</time></trkpt><trkpt lat="43.887086665037174" lon="11.18776135462859"><ele>110.0</ele><time>2026-04-05T16:24:24.001Z</time></trkpt><trkpt lat="43.887000108282464" lon="11.187575242480436"><ele>110.0</ele><time>2026-04-05T16:24:25.001Z</time></trkpt><trkpt lat="43.88692184852664" lon="11.187463874318512"><ele>110.0</ele><time>2026-04-05T16:24:26.001Z</time></trkpt><trkpt lat="43.886834242213006" lon="11.187331298776792"><ele>110.0</ele><time>2026-04-05T16:24:27.001Z</time></trkpt><trkpt lat="43.88675044782142" lon="11.187197136662286"><ele>110.0</ele><time>2026-04-05T16:24:28.001Z</time></trkpt><trkpt lat="43.886608353658794" lon="11.18696233511784"><ele>108.0</ele><time>2026-04-05T16:24:29.001Z</time></trkpt><trkpt lat="43.88648515500656" lon="11.186780682019883"><ele>106.0</ele><time>2026-04-05T16:24:30.001Z</time></trkpt><trkpt lat="43.886359929354676" lon="11.186593249866428"><ele>104.0</ele><time>2026-04-05T16:24:31.001Z</time></trkpt><trkpt lat="43.88623581969815" lon="11.186409424258143"><ele>104.0</ele><time>2026-04-05T16:24:32.001Z</time></trkpt><trkpt lat="43.8861196439167" lon="11.186236196552377"><ele>104.0</ele><time>2026-04-05T16:24:33.001Z</time></trkpt><trkpt lat="43.88599977789255" lon="11.186081931479379"><ele>104.0</ele><time>2026-04-05T16:24:34.001Z</time></trkpt><trkpt lat="43.88586860644771" lon="11.185940312326874"><ele>102.33333333333333</ele><time>2026-04-05T16:24:35.001Z</time></trkpt><trkpt lat="43.88572032951529" lon="11.185816340571735"><ele>100.66666666666666</ele><time>2026-04-05T16:24:36.001Z</time></trkpt><trkpt lat="43.88555303196099" lon="11.185709197579637"><ele>99.0</ele><time>2026-04-05T16:24:37.001Z</time></trkpt><trkpt lat="43.88538102070509" lon="11.185614591017728"><ele>99.0</ele><time>2026-04-05T16:24:38.001Z</time></trkpt><trkpt lat="43.88521839892811" lon="11.185508203144755"><ele>99.0</ele><time>2026-04-05T16:24:39.001Z</time></trkpt><trkpt lat="43.88509134873615" lon="11.185358687885728"><ele>99.0</ele><time>2026-04-05T16:24:40.001Z</time></trkpt><trkpt lat="43.88497237994265" lon="11.185203431590082"><ele>98.33333333333334</ele><time>2026-04-05T16:24:41.001Z</time></trkpt><trkpt lat="43.88487529257609" lon="11.185023849591726"><ele>97.66666666666667</ele><time>2026-04-05T16:24:42.001Z</time></trkpt><trkpt lat="43.88478380774666" lon="11.184816065373354"><ele>97.0</ele><time>2026-04-05T16:24:43.001Z</time></trkpt><trkpt lat="43.88469296940675" lon="11.184591339705795"><ele>96.33333333333334</ele><time>2026-04-05T16:24:44.001Z</time></trkpt><trkpt lat="43.884603066286026" lon="11.184361438428482"><ele>95.66666666666667</ele><time>2026-04-05T16:24:45.001Z</time></trkpt><trkpt lat="43.88449844288078" lon="11.18413507077107"><ele>95.0</ele><time>2026-04-05T16:24:46.001Z</time></trkpt><trkpt lat="43.88440303295336" lon="11.183887920292909"><ele>95.0</ele><time>2026-04-05T16:24:47.001Z</time></trkpt><trkpt lat="43.884313200281845" lon="11.183637658256778"><ele>95.0</ele><time>2026-04-05T16:24:48.001Z</time></trkpt><trkpt lat="43.88422095576873" lon="11.183391164009718"><ele>95.0</ele><time>2026-04-05T16:24:49.001Z</time></trkpt><trkpt lat="43.884123338661944" lon="11.183143515109803"><ele>94.66666666666667</ele><time>2026-04-05T16:24:50.001Z</time></trkpt><trkpt lat="43.884028705671426" lon="11.182893133550778"><ele>94.33333333333333</ele><time>2026-04-05T16:24:51.001Z</time></trkpt><trkpt lat="43.88393927692511" lon="11.182649175724125"><ele>94.0</ele><time>2026-04-05T16:24:52.001Z</time></trkpt><trkpt lat="43.88385108404663" lon="11.182418262611128"><ele>93.66666666666666</ele><time>2026-04-05T16:24:53.001Z</time></trkpt><trkpt lat="43.88376962343908" lon="11.182206535548014"><ele>93.33333333333333</ele><time>2026-04-05T16:24:54.001Z</time></trkpt><trkpt lat="43.88370200320903" lon="11.182005678389773"><ele>93.0</ele><time>2026-04-05T16:24:55.001Z</time></trkpt><trkpt lat="43.883646761293626" lon="11.181814536063069"><ele>93.0</ele><time>2026-04-05T16:24:56.001Z</time></trkpt><trkpt lat="43.883607917910716" lon="11.181647932078755"><ele>93.0</ele><time>2026-04-05T16:24:57.001Z</time></trkpt><trkpt lat="43.88358056060515" lon="11.18150169190123"><ele>93.0</ele><time>2026-04-05T16:24:58.001Z</time></trkpt><trkpt lat="43.88356198568875" lon="11.181374412493701"><ele>93.0</ele><time>2026-04-05T16:24:59.001Z</time></trkpt><trkpt lat="43.88355645258585" lon="11.18127230434276"><ele>93.0</ele><time>2026-04-05T16:25:00.001Z</time></trkpt><trkpt lat="43.88357078068514" lon="11.181135017494672"><ele>92.83333333333333</ele><time>2026-04-05T16:25:02.001Z</time></trkpt><trkpt lat="43.883585114203015" lon="11.18104756890947"><ele>92.66666666666667</ele><time>2026-04-05T16:25:06.001Z</time></trkpt><trkpt lat="43.88368643132477" lon="11.180931224829028"><ele>92.5</ele><time>2026-04-05T16:25:08.001Z</time></trkpt><trkpt lat="43.88371781736913" lon="11.180844740090153"><ele>92.33333333333334</ele><time>2026-04-05T16:25:09.001Z</time></trkpt><trkpt lat="43.88370734513149" lon="11.180750259886985"><ele>92.16666666666667</ele><time>2026-04-05T16:25:10.001Z</time></trkpt><trkpt lat="43.88365959532312" lon="11.180671139750455"><ele>92.0</ele><time>2026-04-05T16:25:11.001Z</time></trkpt><trkpt lat="43.88358706979354" lon="11.180635089680457"><ele>92.0</ele><time>2026-04-05T16:25:12.001Z</time></trkpt><trkpt lat="43.88350072678206" lon="11.180653054544345"><ele>92.0</ele><time>2026-04-05T16:25:13.001Z</time></trkpt><trkpt lat="43.883409990987474" lon="11.180700726476775"><ele>92.0</ele><time>2026-04-05T16:25:14.001Z</time></trkpt><trkpt lat="43.883320245021046" lon="11.180756487886551"><ele>92.0</ele><time>2026-04-05T16:25:15.001Z</time></trkpt><trkpt lat="43.883195154955985" lon="11.180698471805055"><ele>92.0</ele><time>2026-04-05T16:25:16.001Z</time></trkpt><trkpt lat="43.883076932250106" lon="11.180637638729566"><ele>91.75</ele><time>2026-04-05T16:25:17.001Z</time></trkpt><trkpt lat="43.88294868758379" lon="11.180574200943528"><ele>91.5</ele><time>2026-04-05T16:25:18.001Z</time></trkpt><trkpt lat="43.88282141088937" lon="11.180519093599028"><ele>91.25</ele><time>2026-04-05T16:25:19.001Z</time></trkpt><trkpt lat="43.88270032779171" lon="11.180468976260567"><ele>91.0</ele><time>2026-04-05T16:25:20.001Z</time></trkpt><trkpt lat="43.88257850645284" lon="11.180418566694112"><ele>91.0</ele><time>2026-04-05T16:25:21.001Z</time></trkpt><trkpt lat="43.8824461211399" lon="11.180364360342018"><ele>91.0</ele><time>2026-04-05T16:25:22.001Z</time></trkpt><trkpt lat="43.882310483151514" lon="11.180317173515427"><ele>91.0</ele><time>2026-04-05T16:25:23.001Z</time></trkpt><trkpt lat="43.88218428444549" lon="11.180280180325251"><ele>91.0</ele><time>2026-04-05T16:25:24.001Z</time></trkpt><trkpt lat="43.88207226134305" lon="11.180255581573896"><ele>91.0</ele><time>2026-04-05T16:25:25.001Z</time></trkpt><trkpt lat="43.88197383868666" lon="11.18021482937006"><ele>91.0</ele><time>2026-04-05T16:25:26.001Z</time></trkpt><trkpt lat="43.88188738178349" lon="11.18015285921072"><ele>91.0</ele><time>2026-04-05T16:25:27.001Z</time></trkpt><trkpt lat="43.88180529254723" lon="11.18009309189885"><ele>91.0</ele><time>2026-04-05T16:25:28.001Z</time></trkpt><trkpt lat="43.881728197995436" lon="11.180088360651895"><ele>91.0</ele><time>2026-04-05T16:25:29.001Z</time></trkpt><trkpt lat="43.881660781041425" lon="11.1801422467274"><ele>91.0</ele><time>2026-04-05T16:25:30.001Z</time></trkpt><trkpt lat="43.88161332804017" lon="11.180219191395988"><ele>90.4</ele><time>2026-04-05T16:25:31.001Z</time></trkpt><trkpt lat="43.8815755497179" lon="11.180307873927875"><ele>89.8</ele><time>2026-04-05T16:25:32.001Z</time></trkpt><trkpt lat="43.88152194947916" lon="11.1803843428757"><ele>89.2</ele><time>2026-04-05T16:25:33.001Z</time></trkpt><trkpt lat="43.88142948417565" lon="11.180430768148433"><ele>88.60000000000001</ele><time>2026-04-05T16:25:34.001Z</time></trkpt><trkpt lat="43.88133457247459" lon="11.180479606277922"><ele>88.0</ele><time>2026-04-05T16:25:35.001Z</time></trkpt><trkpt lat="43.88121964887869" lon="11.180505612109231"><ele>88.0</ele><time>2026-04-05T16:25:36.001Z</time></trkpt><trkpt lat="43.881086991821476" lon="11.180485558760086"><ele>88.0</ele><time>2026-04-05T16:25:37.001Z</time></trkpt><trkpt lat="43.88094156816556" lon="11.180456208089781"><ele>88.0</ele><time>2026-04-05T16:25:38.001Z</time></trkpt><trkpt lat="43.88079338900792" lon="11.180407279070991"><ele>88.0</ele><time>2026-04-05T16:25:39.001Z</time></trkpt><trkpt lat="43.88063758411161" lon="11.180338284601866"><ele>87.66666666666666</ele><time>2026-04-05T16:25:40.001Z</time></trkpt><trkpt lat="43.880487720491594" lon="11.180229025974665"><ele>87.33333333333333</ele><time>2026-04-05T16:25:41.001Z</time></trkpt><trkpt lat="43.88033872916473" lon="11.18009627952641"><ele>87.0</ele><time>2026-04-05T16:25:42.001Z</time></trkpt><trkpt lat="43.8801929185309" lon="11.179931165852562"><ele>87.0</ele><time>2026-04-05T16:25:43.001Z</time></trkpt><trkpt lat="43.88005427752755" lon="11.179743617359174"><ele>87.0</ele><time>2026-04-05T16:25:44.001Z</time></trkpt><trkpt lat="43.879937309041274" lon="11.179530894765733"><ele>87.0</ele><time>2026-04-05T16:25:45.001Z</time></trkpt><trkpt lat="43.87982834059874" lon="11.179294858697531"><ele>87.0</ele><time>2026-04-05T16:25:46.001Z</time></trkpt><trkpt lat="43.87972277400036" lon="11.179051008358739"><ele>87.0</ele><time>2026-04-05T16:25:47.001Z</time></trkpt><trkpt lat="43.87961507550348" lon="11.1788019008545"><ele>87.0</ele><time>2026-04-05T16:25:48.001Z</time></trkpt><trkpt lat="43.87950068344036" lon="11.178552570069215"><ele>86.0</ele><time>2026-04-05T16:25:49.001Z</time></trkpt><trkpt lat="43.87938075615286" lon="11.178312220879103"><ele>85.0</ele><time>2026-04-05T16:25:50.001Z</time></trkpt><trkpt lat="43.879256093335286" lon="11.178077839586399"><ele>84.0</ele><time>2026-04-05T16:25:51.001Z</time></trkpt><trkpt lat="43.879130264285756" lon="11.17785676632799"><ele>84.0</ele><time>2026-04-05T16:25:52.001Z</time></trkpt><trkpt lat="43.87900198060875" lon="11.177649114737136"><ele>84.0</ele><time>2026-04-05T16:25:53.001Z</time></trkpt><trkpt lat="43.878871423957115" lon="11.177445359919727"><ele>84.0</ele><time>2026-04-05T16:25:54.001Z</time></trkpt><trkpt lat="43.878743380558916" lon="11.177242434897694"><ele>84.33333333333333</ele><time>2026-04-05T16:25:55.001Z</time></trkpt><trkpt lat="43.878614637470655" lon="11.177047616708256"><ele>84.66666666666666</ele><time>2026-04-05T16:25:56.001Z</time></trkpt><trkpt lat="43.87848407675277" lon="11.17685920072508"><ele>85.0</ele><time>2026-04-05T16:25:57.001Z</time></trkpt><trkpt lat="43.87835093639685" lon="11.176681987907036"><ele>84.0</ele><time>2026-04-05T16:25:58.001Z</time></trkpt><trkpt lat="43.878213853208656" lon="11.176510699433093"><ele>83.0</ele><time>2026-04-05T16:25:59.001Z</time></trkpt><trkpt lat="43.878068804675834" lon="11.17634874980937"><ele>82.0</ele><time>2026-04-05T16:26:00.001Z</time></trkpt><trkpt lat="43.877914908465044" lon="11.176193803525965"><ele>82.0</ele><time>2026-04-05T16:26:01.001Z</time></trkpt><trkpt lat="43.87775181840532" lon="11.176041994723638"><ele>82.0</ele><time>2026-04-05T16:26:02.001Z</time></trkpt><trkpt lat="43.87758375356097" lon="11.175896225026696"><ele>82.0</ele><time>2026-04-05T16:26:03.001Z</time></trkpt><trkpt lat="43.8774171212285" lon="11.175748308005916"><ele>81.66666666666666</ele><time>2026-04-05T16:26:04.001Z</time></trkpt><trkpt lat="43.8772522745448" lon="11.175602193523472"><ele>81.33333333333333</ele><time>2026-04-05T16:26:05.001Z</time></trkpt><trkpt lat="43.877089905164816" lon="11.175459839446754"><ele>81.0</ele><time>2026-04-05T16:26:06.001Z</time></trkpt><trkpt lat="43.87692272480826" lon="11.175316977116344"><ele>82.33333333333333</ele><time>2026-04-05T16:26:07.001Z</time></trkpt><trkpt lat="43.87675366935227" lon="11.175172872675343"><ele>83.66666666666666</ele><time>2026-04-05T16:26:08.001Z</time></trkpt><trkpt lat="43.87658064053838" lon="11.175025497568067"><ele>85.0</ele><time>2026-04-05T16:26:09.001Z</time></trkpt><trkpt lat="43.87640335037639" lon="11.17487045686664"><ele>83.66666666666666</ele><time>2026-04-05T16:26:10.001Z</time></trkpt><trkpt lat="43.87622290798815" lon="11.174714513356214"><ele>82.33333333333333</ele><time>2026-04-05T16:26:11.001Z</time></trkpt><trkpt lat="43.876041820232054" lon="11.17455775160726"><ele>81.0</ele><time>2026-04-05T16:26:12.001Z</time></trkpt><trkpt lat="43.87585950238413" lon="11.17439006128979"><ele>81.0</ele><time>2026-04-05T16:26:13.001Z</time></trkpt><trkpt lat="43.87568210321601" lon="11.174215735412343"><ele>81.0</ele><time>2026-04-05T16:26:14.001Z</time></trkpt><trkpt lat="43.87550629397465" lon="11.174036325940294"><ele>81.0</ele><time>2026-04-05T16:26:15.001Z</time></trkpt><trkpt lat="43.875331299265376" lon="11.17385304506967"><ele>81.66666666666667</ele><time>2026-04-05T16:26:16.001Z</time></trkpt><trkpt lat="43.875153235087915" lon="11.173675467301713"><ele>82.33333333333334</ele><time>2026-04-05T16:26:17.001Z</time></trkpt><trkpt lat="43.874971571770736" lon="11.173507705784145"><ele>83.0</ele><time>2026-04-05T16:26:18.001Z</time></trkpt><trkpt lat="43.8747824110947" lon="11.173353664286413"><ele>83.0</ele><time>2026-04-05T16:26:19.001Z</time></trkpt><trkpt lat="43.87459248519922" lon="11.1732050183879"><ele>83.0</ele><time>2026-04-05T16:26:20.001Z</time></trkpt><trkpt lat="43.87440704438665" lon="11.1730674076464"><ele>83.0</ele><time>2026-04-05T16:26:21.001Z</time></trkpt><trkpt lat="43.87423532400473" lon="11.17294009742216"><ele>81.66666666666667</ele><time>2026-04-05T16:26:22.001Z</time></trkpt><trkpt lat="43.87407413025135" lon="11.17282467800678"><ele>80.33333333333333</ele><time>2026-04-05T16:26:23.001Z</time></trkpt><trkpt lat="43.8739155799921" lon="11.172707789809788"><ele>79.0</ele><time>2026-04-05T16:26:24.001Z</time></trkpt><trkpt lat="43.87375743321004" lon="11.172592487794763"><ele>79.0</ele><time>2026-04-05T16:26:25.001Z</time></trkpt><trkpt lat="43.87360149326614" lon="11.172459214743302"><ele>79.0</ele><time>2026-04-05T16:26:26.001Z</time></trkpt><trkpt lat="43.87345816531639" lon="11.172297062020936"><ele>79.0</ele><time>2026-04-05T16:26:27.001Z</time></trkpt><trkpt lat="43.87333213646309" lon="11.172114336483281"><ele>77.66666666666666</ele><time>2026-04-05T16:26:28.001Z</time></trkpt><trkpt lat="43.87322407588338" lon="11.171937573969357"><ele>76.33333333333333</ele><time>2026-04-05T16:26:29.001Z</time></trkpt><trkpt lat="43.873122358729354" lon="11.171771718445614"><ele>75.0</ele><time>2026-04-05T16:26:30.001Z</time></trkpt><trkpt lat="43.87302848820001" lon="11.171621584053026"><ele>74.75</ele><time>2026-04-05T16:26:31.001Z</time></trkpt><trkpt lat="43.87294086510048" lon="11.171479494926412"><ele>74.5</ele><time>2026-04-05T16:26:32.001Z</time></trkpt><trkpt lat="43.872856414157845" lon="11.171346702689611"><ele>74.25</ele><time>2026-04-05T16:26:33.001Z</time></trkpt><trkpt lat="43.87277572112234" lon="11.171224884338592"><ele>74.0</ele><time>2026-04-05T16:26:34.001Z</time></trkpt><trkpt lat="43.87269790890751" lon="11.171103103669006"><ele>74.0</ele><time>2026-04-05T16:26:35.001Z</time></trkpt><trkpt lat="43.872622466748595" lon="11.170985054253826"><ele>74.0</ele><time>2026-04-05T16:26:36.001Z</time></trkpt><trkpt lat="43.87254981060706" lon="11.17087017593306"><ele>74.0</ele><time>2026-04-05T16:26:37.001Z</time></trkpt><trkpt lat="43.872480197060085" lon="11.17076219632365"><ele>74.0</ele><time>2026-04-05T16:26:38.001Z</time></trkpt><trkpt lat="43.87241443535784" lon="11.170660938796019"><ele>74.0</ele><time>2026-04-05T16:26:39.001Z</time></trkpt><trkpt lat="43.87234921249678" lon="11.1705616501691"><ele>73.83333333333334</ele><time>2026-04-05T16:26:40.001Z</time></trkpt><trkpt lat="43.872287977388595" lon="11.170470658138289"><ele>73.66666666666667</ele><time>2026-04-05T16:26:41.001Z</time></trkpt><trkpt lat="43.87223302174096" lon="11.170383481501476"><ele>73.5</ele><time>2026-04-05T16:26:42.001Z</time></trkpt><trkpt lat="43.87218235758374" lon="11.170301538273524"><ele>73.33333333333333</ele><time>2026-04-05T16:26:43.001Z</time></trkpt><trkpt lat="43.87213556178468" lon="11.17022742445102"><ele>73.16666666666666</ele><time>2026-04-05T16:26:44.001Z</time></trkpt><trkpt lat="43.87209433421645" lon="11.170135084632436"><ele>73.0</ele><time>2026-04-05T16:26:45.001Z</time></trkpt><trkpt lat="43.872060951108786" lon="11.170058060100947"><ele>73.0</ele><time>2026-04-05T16:26:46.001Z</time></trkpt><trkpt lat="43.872051237848936" lon="11.169965462805777"><ele>73.0</ele><time>2026-04-05T16:26:47.001Z</time></trkpt><trkpt lat="43.8720524951733" lon="11.169858943344824"><ele>73.0</ele><time>2026-04-05T16:26:48.001Z</time></trkpt><trkpt lat="43.87203122364868" lon="11.169756324748935"><ele>73.0</ele><time>2026-04-05T16:26:49.001Z</time></trkpt><trkpt lat="43.871973703962595" lon="11.169682808277084"><ele>73.0</ele><time>2026-04-05T16:26:50.001Z</time></trkpt><trkpt lat="43.87189671068758" lon="11.169642918038383"><ele>73.0</ele><time>2026-04-05T16:26:51.001Z</time></trkpt><trkpt lat="43.871809883850545" lon="11.169648382827964"><ele>73.25</ele><time>2026-04-05T16:26:52.001Z</time></trkpt><trkpt lat="43.871725469872544" lon="11.169648382826686"><ele>73.5</ele><time>2026-04-05T16:26:53.001Z</time></trkpt><trkpt lat="43.87165273980224" lon="11.16947425620903"><ele>73.75</ele><time>2026-04-05T16:26:54.001Z</time></trkpt><trkpt lat="43.871581200542124" lon="11.16934326432684"><ele>74.0</ele><time>2026-04-05T16:26:55.001Z</time></trkpt><trkpt lat="43.87149203776331" lon="11.169203383921644"><ele>74.0</ele><time>2026-04-05T16:26:56.001Z</time></trkpt><trkpt lat="43.87138418599803" lon="11.169074508071198"><ele>74.0</ele><time>2026-04-05T16:26:57.001Z</time></trkpt><trkpt lat="43.8712693360643" lon="11.168939691645711"><ele>74.0</ele><time>2026-04-05T16:26:58.001Z</time></trkpt><trkpt lat="43.871156682432655" lon="11.168808317935204"><ele>74.0</ele><time>2026-04-05T16:26:59Z</time></trkpt><trkpt lat="43.871053140842506" lon="11.16869176064646"><ele>74.5</ele><time>2026-04-05T16:27:00Z</time></trkpt><trkpt lat="43.87094915105228" lon="11.168576956214386"><ele>75.0</ele><time>2026-04-05T16:27:01Z</time></trkpt><trkpt lat="43.87084197602716" lon="11.168458597666497"><ele>75.5</ele><time>2026-04-05T16:27:02Z</time></trkpt><trkpt lat="43.870728015168936" lon="11.168344816226398"><ele>76.0</ele><time>2026-04-05T16:27:03Z</time></trkpt><trkpt lat="43.87061809276067" lon="11.168224171543574"><ele>74.25</ele><time>2026-04-05T16:27:04Z</time></trkpt><trkpt lat="43.87050553053058" lon="11.168104383131896"><ele>72.5</ele><time>2026-04-05T16:27:05Z</time></trkpt><trkpt lat="43.87039065048623" lon="11.167987203900145"><ele>70.75</ele><time>2026-04-05T16:27:06Z</time></trkpt><trkpt lat="43.870280212428995" lon="11.167868432916208"><ele>69.0</ele><time>2026-04-05T16:27:07Z</time></trkpt><trkpt lat="43.87016965272905" lon="11.167750513705844"><ele>69.25</ele><time>2026-04-05T16:27:08Z</time></trkpt><trkpt lat="43.87006281894075" lon="11.16764506717922"><ele>69.5</ele><time>2026-04-05T16:27:09Z</time></trkpt><trkpt lat="43.86993815996851" lon="11.167525888417545"><ele>69.75</ele><time>2026-04-05T16:27:10Z</time></trkpt><trkpt lat="43.86980414511861" lon="11.167401593705842"><ele>70.0</ele><time>2026-04-05T16:27:11Z</time></trkpt><trkpt lat="43.869676462740294" lon="11.167243523431175"><ele>70.0</ele><time>2026-04-05T16:27:12Z</time></trkpt><trkpt lat="43.86953042799791" lon="11.167116206957772"><ele>70.0</ele><time>2026-04-05T16:27:13Z</time></trkpt><trkpt lat="43.86939393682591" lon="11.166963716167905"><ele>70.0</ele><time>2026-04-05T16:27:14Z</time></trkpt><trkpt lat="43.86925711864653" lon="11.166802563423749"><ele>69.66666666666666</ele><time>2026-04-05T16:27:15Z</time></trkpt><trkpt lat="43.869115272547766" lon="11.166640147532526"><ele>69.33333333333333</ele><time>2026-04-05T16:27:16Z</time></trkpt><trkpt lat="43.86896949364643" lon="11.1664744538395"><ele>69.0</ele><time>2026-04-05T16:27:17Z</time></trkpt><trkpt lat="43.868820777379945" lon="11.166304726061137"><ele>69.0</ele><time>2026-04-05T16:27:18Z</time></trkpt><trkpt lat="43.86867468713418" lon="11.166125376072939"><ele>69.0</ele><time>2026-04-05T16:27:19Z</time></trkpt><trkpt lat="43.86852797690785" lon="11.165937549436897"><ele>69.0</ele><time>2026-04-05T16:27:20Z</time></trkpt><trkpt lat="43.86838874340757" lon="11.16573862086081"><ele>68.0</ele><time>2026-04-05T16:27:21Z</time></trkpt><trkpt lat="43.868253642728654" lon="11.165536356755975"><ele>67.0</ele><time>2026-04-05T16:27:22Z</time></trkpt><trkpt lat="43.868119748878904" lon="11.165332063699765"><ele>66.0</ele><time>2026-04-05T16:27:23Z</time></trkpt><trkpt lat="43.86798309591966" lon="11.165129633787588"><ele>66.0</ele><time>2026-04-05T16:27:24Z</time></trkpt><trkpt lat="43.867845106066824" lon="11.164925329647364"><ele>66.0</ele><time>2026-04-05T16:27:25Z</time></trkpt><trkpt lat="43.86770626472922" lon="11.164722338055684"><ele>66.0</ele><time>2026-04-05T16:27:26Z</time></trkpt><trkpt lat="43.867566692556714" lon="11.164512535368495"><ele>66.0</ele><time>2026-04-05T16:27:27Z</time></trkpt><trkpt lat="43.8674232550439" lon="11.16429735981805"><ele>66.0</ele><time>2026-04-05T16:27:28Z</time></trkpt><trkpt lat="43.86728378469366" lon="11.164084795667232"><ele>66.0</ele><time>2026-04-05T16:27:29Z</time></trkpt><trkpt lat="43.867147905731414" lon="11.163885193997078"><ele>66.0</ele><time>2026-04-05T16:27:30Z</time></trkpt><trkpt lat="43.867026675382554" lon="11.163704884485957"><ele>66.0</ele><time>2026-04-05T16:27:31Z</time></trkpt><trkpt lat="43.8669419243861" lon="11.163574827259376"><ele>66.0</ele><time>2026-04-05T16:27:32Z</time></trkpt><trkpt lat="43.86685878375693" lon="11.163457853786918"><ele>66.0</ele><time>2026-04-05T16:27:33Z</time></trkpt><trkpt lat="43.866791450190405" lon="11.16336108805721"><ele>65.6</ele><time>2026-04-05T16:27:34Z</time></trkpt><trkpt lat="43.866735366607266" lon="11.163268489060194"><ele>65.19999999999999</ele><time>2026-04-05T16:27:35Z</time></trkpt><trkpt lat="43.86668839305956" lon="11.163174416716386"><ele>64.80000000000001</ele><time>2026-04-05T16:27:36Z</time></trkpt><trkpt lat="43.86665350625576" lon="11.163064618214579"><ele>64.4</ele><time>2026-04-05T16:27:37Z</time></trkpt><trkpt lat="43.86661718476449" lon="11.16294085677325"><ele>64.0</ele><time>2026-04-05T16:27:38Z</time></trkpt><trkpt lat="43.86655926159655" lon="11.16281272055019"><ele>63.75</ele><time>2026-04-05T16:27:39Z</time></trkpt><trkpt lat="43.866488772351985" lon="11.162705155639923"><ele>63.5</ele><time>2026-04-05T16:27:40.001Z</time></trkpt><trkpt lat="43.86639226619505" lon="11.162631207825347"><ele>63.25</ele><time>2026-04-05T16:27:41.001Z</time></trkpt><trkpt lat="43.86628640119004" lon="11.162564387497849"><ele>63.0</ele><time>2026-04-05T16:27:42.001Z</time></trkpt><trkpt lat="43.86618734277639" lon="11.162471207990171"><ele>63.25</ele><time>2026-04-05T16:27:43.001Z</time></trkpt><trkpt lat="43.866088492335116" lon="11.16234208004163"><ele>63.5</ele><time>2026-04-05T16:27:44.001Z</time></trkpt><trkpt lat="43.865992071471545" lon="11.162196521634556"><ele>63.75</ele><time>2026-04-05T16:27:45.001Z</time></trkpt><trkpt lat="43.86588961176348" lon="11.162049466311"><ele>64.0</ele><time>2026-04-05T16:27:46.001Z</time></trkpt><trkpt lat="43.865788707959496" lon="11.161900395672811"><ele>64.25</ele><time>2026-04-05T16:27:47.001Z</time></trkpt><trkpt lat="43.86569312656939" lon="11.161756458999127"><ele>64.5</ele><time>2026-04-05T16:27:48.001Z</time></trkpt><trkpt lat="43.86559694156788" lon="11.16161531580478"><ele>64.75</ele><time>2026-04-05T16:27:49.001Z</time></trkpt><trkpt lat="43.865494052626886" lon="11.161468551124328"><ele>65.0</ele><time>2026-04-05T16:27:50.001Z</time></trkpt><trkpt lat="43.86539181245201" lon="11.161316561139673"><ele>65.0</ele><time>2026-04-05T16:27:51.001Z</time></trkpt><trkpt lat="43.86529055775207" lon="11.16115257869873"><ele>65.0</ele><time>2026-04-05T16:27:52.001Z</time></trkpt><trkpt lat="43.8651876132391" lon="11.160986966901037"><ele>65.0</ele><time>2026-04-05T16:27:53.001Z</time></trkpt><trkpt lat="43.865087322038384" lon="11.160814375007503"><ele>65.33333333333334</ele><time>2026-04-05T16:27:54.001Z</time></trkpt><trkpt lat="43.8649964849748" lon="11.160639450492948"><ele>65.66666666666667</ele><time>2026-04-05T16:27:55.001Z</time></trkpt><trkpt lat="43.864905776040054" lon="11.160457227849026"><ele>66.0</ele><time>2026-04-05T16:27:56.001Z</time></trkpt><trkpt lat="43.86482772885054" lon="11.16028271203901"><ele>66.0</ele><time>2026-04-05T16:27:57.001Z</time></trkpt><trkpt lat="43.864756915975484" lon="11.160111084720084"><ele>66.0</ele><time>2026-04-05T16:27:58.001Z</time></trkpt><trkpt lat="43.86469474825135" lon="11.159944531006012"><ele>66.0</ele><time>2026-04-05T16:27:59.001Z</time></trkpt><trkpt lat="43.86463609668798" lon="11.159779151077396"><ele>66.0</ele><time>2026-04-05T16:28:00.001Z</time></trkpt><trkpt lat="43.86458128956831" lon="11.15961163620095"><ele>66.39999999999999</ele><time>2026-04-05T16:28:01.001Z</time></trkpt><trkpt lat="43.86452833608994" lon="11.159448291028424"><ele>66.8</ele><time>2026-04-05T16:28:02.001Z</time></trkpt><trkpt lat="43.86448110107968" lon="11.159300444587538"><ele>67.19999999999999</ele><time>2026-04-05T16:28:03.001Z</time></trkpt><trkpt lat="43.864443843233246" lon="11.159165416254222"><ele>67.6</ele><time>2026-04-05T16:28:04.001Z</time></trkpt><trkpt lat="43.86441411638732" lon="11.159045859322724"><ele>68.0</ele><time>2026-04-05T16:28:05.001Z</time></trkpt><trkpt lat="43.86439041091642" lon="11.158938638324468"><ele>68.0</ele><time>2026-04-05T16:28:06.001Z</time></trkpt><trkpt lat="43.86437809736522" lon="11.158847946535268"><ele>68.0</ele><time>2026-04-05T16:28:07.001Z</time></trkpt><trkpt lat="43.86438276832303" lon="11.158760650668935"><ele>68.0</ele><time>2026-04-05T16:28:08.001Z</time></trkpt><trkpt lat="43.864400738794735" lon="11.158674800106713"><ele>68.0</ele><time>2026-04-05T16:28:09.001Z</time></trkpt><trkpt lat="43.864404698345005" lon="11.158532188561377"><ele>68.0</ele><time>2026-04-05T16:28:11.001Z</time></trkpt><trkpt lat="43.86432989970727" lon="11.158409491475162"><ele>68.0</ele><time>2026-04-05T16:28:13.001Z</time></trkpt><trkpt lat="43.86427209030046" lon="11.158338698633862"><ele>68.2</ele><time>2026-04-05T16:28:14.001Z</time></trkpt><trkpt lat="43.86422130606303" lon="11.158231491481892"><ele>68.4</ele><time>2026-04-05T16:28:15.001Z</time></trkpt><trkpt lat="43.864185332305276" lon="11.158103833324493"><ele>68.60000000000001</ele><time>2026-04-05T16:28:16.001Z</time></trkpt><trkpt lat="43.864153196049" lon="11.157960466806497"><ele>68.8</ele><time>2026-04-05T16:28:17.001Z</time></trkpt><trkpt lat="43.864118458083674" lon="11.157825662646097"><ele>69.0</ele><time>2026-04-05T16:28:18.001Z</time></trkpt><trkpt lat="43.86407946824479" lon="11.157678700907107"><ele>67.75</ele><time>2026-04-05T16:28:19.001Z</time></trkpt><trkpt lat="43.86403791045263" lon="11.157510892808235"><ele>66.5</ele><time>2026-04-05T16:28:20.001Z</time></trkpt><trkpt lat="43.86399784182027" lon="11.157335253930242"><ele>65.25</ele><time>2026-04-05T16:28:21.001Z</time></trkpt><trkpt lat="43.8639526668819" lon="11.157143972068328"><ele>64.0</ele><time>2026-04-05T16:28:22.001Z</time></trkpt><trkpt lat="43.86390592281702" lon="11.156943631076354"><ele>63.33333333333333</ele><time>2026-04-05T16:28:23.001Z</time></trkpt><trkpt lat="43.86385544664297" lon="11.15673747197153"><ele>62.66666666666667</ele><time>2026-04-05T16:28:24.001Z</time></trkpt><trkpt lat="43.86380826790953" lon="11.156529831765457"><ele>62.0</ele><time>2026-04-05T16:28:25.001Z</time></trkpt><trkpt lat="43.86375464038944" lon="11.156314103715713"><ele>61.66666666666667</ele><time>2026-04-05T16:28:26.001Z</time></trkpt><trkpt lat="43.863700197946656" lon="11.156097590083514"><ele>61.33333333333333</ele><time>2026-04-05T16:28:27.001Z</time></trkpt><trkpt lat="43.863644286359175" lon="11.155872378596314"><ele>61.0</ele><time>2026-04-05T16:28:28.001Z</time></trkpt><trkpt lat="43.86359233596224" lon="11.155642918211532"><ele>61.0</ele><time>2026-04-05T16:28:29.001Z</time></trkpt><trkpt lat="43.86353806281188" lon="11.155416132726938"><ele>61.0</ele><time>2026-04-05T16:28:30Z</time></trkpt><trkpt lat="43.86348309903841" lon="11.15519355873333"><ele>61.0</ele><time>2026-04-05T16:28:31Z</time></trkpt><trkpt lat="43.86342447509009" lon="11.154959495977089"><ele>60.33333333333333</ele><time>2026-04-05T16:28:32Z</time></trkpt><trkpt lat="43.86337045594648" lon="11.1547255605587"><ele>59.66666666666667</ele><time>2026-04-05T16:28:33Z</time></trkpt><trkpt lat="43.863316701680894" lon="11.154493396216647"><ele>59.0</ele><time>2026-04-05T16:28:34Z</time></trkpt><trkpt lat="43.863257428080345" lon="11.15426048496918"><ele>58.333333333333336</ele><time>2026-04-05T16:28:35Z</time></trkpt><trkpt lat="43.863198527904515" lon="11.154028597360728"><ele>57.66666666666667</ele><time>2026-04-05T16:28:36Z</time></trkpt><trkpt lat="43.86314415642327" lon="11.153799067180929"><ele>57.0</ele><time>2026-04-05T16:28:37Z</time></trkpt><trkpt lat="43.86309005993119" lon="11.153570012882382"><ele>57.0</ele><time>2026-04-05T16:28:38Z</time></trkpt><trkpt lat="43.86303460994622" lon="11.153341330210145"><ele>57.0</ele><time>2026-04-05T16:28:39Z</time></trkpt><trkpt lat="43.862978354282646" lon="11.153111312767972"><ele>57.0</ele><time>2026-04-05T16:28:40Z</time></trkpt><trkpt lat="43.86292394253669" lon="11.152872426575598"><ele>57.33333333333333</ele><time>2026-04-05T16:28:41Z</time></trkpt><trkpt lat="43.86286869195121" lon="11.152633169539685"><ele>57.666666666666664</ele><time>2026-04-05T16:28:42Z</time></trkpt><trkpt lat="43.86280905019641" lon="11.152396021047377"><ele>58.0</ele><time>2026-04-05T16:28:43Z</time></trkpt><trkpt lat="43.86274536907372" lon="11.152157392392194"><ele>58.33333333333333</ele><time>2026-04-05T16:28:44Z</time></trkpt><trkpt lat="43.86268684822939" lon="11.151917953321377"><ele>58.66666666666667</ele><time>2026-04-05T16:28:45Z</time></trkpt><trkpt lat="43.862631458589725" lon="11.151682449728998"><ele>59.0</ele><time>2026-04-05T16:28:46Z</time></trkpt><trkpt lat="43.86257150782532" lon="11.151451679224651"><ele>58.333333333333336</ele><time>2026-04-05T16:28:47Z</time></trkpt><trkpt lat="43.862508636830235" lon="11.151228490642252"><ele>57.66666666666667</ele><time>2026-04-05T16:28:48Z</time></trkpt><trkpt lat="43.8624426169636" lon="11.151002277064595"><ele>57.0</ele><time>2026-04-05T16:28:49Z</time></trkpt><trkpt lat="43.86237222560925" lon="11.15077779896546"><ele>56.33333333333333</ele><time>2026-04-05T16:28:50Z</time></trkpt><trkpt lat="43.86229708724707" lon="11.150555275602319"><ele>55.666666666666664</ele><time>2026-04-05T16:28:51Z</time></trkpt><trkpt lat="43.862221390147766" lon="11.150332970477537"><ele>55.0</ele><time>2026-04-05T16:28:52Z</time></trkpt><trkpt lat="43.86214842873436" lon="11.150120742114314"><ele>55.0</ele><time>2026-04-05T16:28:53Z</time></trkpt><trkpt lat="43.86207386369448" lon="11.149916172186723"><ele>55.0</ele><time>2026-04-05T16:28:54Z</time></trkpt><trkpt lat="43.861994398941484" lon="11.149718467273711"><ele>55.0</ele><time>2026-04-05T16:28:54.999Z</time></trkpt><trkpt lat="43.861912967588026" lon="11.149517953135529"><ele>55.0</ele><time>2026-04-05T16:28:55.999Z</time></trkpt><trkpt lat="43.86183189085856" lon="11.149322121241596"><ele>55.0</ele><time>2026-04-05T16:28:56.999Z</time></trkpt><trkpt lat="43.86174872382597" lon="11.149128260138083"><ele>55.0</ele><time>2026-04-05T16:28:57.999Z</time></trkpt><trkpt lat="43.86166074387235" lon="11.148940990558028"><ele>54.666666666666664</ele><time>2026-04-05T16:28:58.999Z</time></trkpt><trkpt lat="43.86157324036503" lon="11.14875438361394"><ele>54.33333333333333</ele><time>2026-04-05T16:28:59.999Z</time></trkpt><trkpt lat="43.86148919488115" lon="11.148567788127169"><ele>54.0</ele><time>2026-04-05T16:29:00.999Z</time></trkpt><trkpt lat="43.86140055333014" lon="11.148384075520163"><ele>54.66666666666667</ele><time>2026-04-05T16:29:01.999Z</time></trkpt><trkpt lat="43.86130566984855" lon="11.14820212116992"><ele>55.333333333333336</ele><time>2026-04-05T16:29:02.999Z</time></trkpt><trkpt lat="43.86120752697001" lon="11.14802200241512"><ele>56.0</ele><time>2026-04-05T16:29:03.999Z</time></trkpt><trkpt lat="43.861102016497675" lon="11.14783669561547"><ele>56.0</ele><time>2026-04-05T16:29:04.999Z</time></trkpt><trkpt lat="43.86099382363124" lon="11.147656988243279"><ele>56.0</ele><time>2026-04-05T16:29:05.999Z</time></trkpt><trkpt lat="43.860882157212664" lon="11.14747565249255"><ele>56.0</ele><time>2026-04-05T16:29:06.999Z</time></trkpt><trkpt lat="43.86076559537559" lon="11.147286659840036"><ele>56.0</ele><time>2026-04-05T16:29:07.999Z</time></trkpt><trkpt lat="43.86064856231197" lon="11.14710135045384"><ele>56.0</ele><time>2026-04-05T16:29:08.999Z</time></trkpt><trkpt lat="43.86052848293592" lon="11.146920355671933"><ele>56.0</ele><time>2026-04-05T16:29:09.999Z</time></trkpt><trkpt lat="43.86040404540553" lon="11.146741721153754"><ele>56.0</ele><time>2026-04-05T16:29:10.999Z</time></trkpt><trkpt lat="43.860283315591055" lon="11.146573950464337"><ele>56.0</ele><time>2026-04-05T16:29:11.999Z</time></trkpt><trkpt lat="43.86016002726135" lon="11.146415277085696"><ele>56.0</ele><time>2026-04-05T16:29:12.999Z</time></trkpt><trkpt lat="43.86003619376031" lon="11.146262022680444"><ele>55.333333333333336</ele><time>2026-04-05T16:29:13.999Z</time></trkpt><trkpt lat="43.859924530732506" lon="11.14612306283201"><ele>54.66666666666667</ele><time>2026-04-05T16:29:14.999Z</time></trkpt><trkpt lat="43.8598102311995" lon="11.145981608983993"><ele>54.0</ele><time>2026-04-05T16:29:15.999Z</time></trkpt><trkpt lat="43.85969565034267" lon="11.145845960915258"><ele>53.66666666666667</ele><time>2026-04-05T16:29:16.999Z</time></trkpt><trkpt lat="43.85957831676281" lon="11.145706541886183"><ele>53.333333333333336</ele><time>2026-04-05T16:29:17.999Z</time></trkpt><trkpt lat="43.85946422743088" lon="11.145572188991801"><ele>53.0</ele><time>2026-04-05T16:29:18.999Z</time></trkpt><trkpt lat="43.85934487118219" lon="11.14543877544732"><ele>53.0</ele><time>2026-04-05T16:29:19.999Z</time></trkpt><trkpt lat="43.859230842959974" lon="11.145315972806364"><ele>53.0</ele><time>2026-04-05T16:29:20.999Z</time></trkpt><trkpt lat="43.85912471334274" lon="11.145215806013516"><ele>53.0</ele><time>2026-04-05T16:29:21.999Z</time></trkpt><trkpt lat="43.85902981486104" lon="11.14513209105058"><ele>53.0</ele><time>2026-04-05T16:29:22.999Z</time></trkpt><trkpt lat="43.8589506722196" lon="11.145060051438326"><ele>53.00000000000001</ele><time>2026-04-05T16:29:23.999Z</time></trkpt><trkpt lat="43.85888905253172" lon="11.144993549960157"><ele>53.0</ele><time>2026-04-05T16:29:24.999Z</time></trkpt><trkpt lat="43.858840694053484" lon="11.14493670172454"><ele>53.0</ele><time>2026-04-05T16:29:25.999Z</time></trkpt><trkpt lat="43.858790883092695" lon="11.144879155933971"><ele>53.0</ele><time>2026-04-05T16:29:27.999Z</time></trkpt><trkpt lat="43.858736330473256" lon="11.14478015826889"><ele>53.00000000000001</ele><time>2026-04-05T16:29:31.999Z</time></trkpt><trkpt lat="43.85869396814394" lon="11.144656963239205"><ele>53.0</ele><time>2026-04-05T16:29:33.999Z</time></trkpt><trkpt lat="43.8586603602428" lon="11.144572890681312"><ele>52.66666666666667</ele><time>2026-04-05T16:29:34.999Z</time></trkpt><trkpt lat="43.85861504645627" lon="11.144509895700777"><ele>52.333333333333336</ele><time>2026-04-05T16:29:35.999Z</time></trkpt><trkpt lat="43.8585986595803" lon="11.144341563129332"><ele>52.0</ele><time>2026-04-05T16:29:37.999Z</time></trkpt><trkpt lat="43.85858783068181" lon="11.14425505173663"><ele>51.66666666666667</ele><time>2026-04-05T16:29:38.999Z</time></trkpt><trkpt lat="43.858588228546054" lon="11.144152272929748"><ele>51.333333333333336</ele><time>2026-04-05T16:29:39.999Z</time></trkpt><trkpt lat="43.85858856412903" lon="11.144031844314863"><ele>51.0</ele><time>2026-04-05T16:29:40.999Z</time></trkpt><trkpt lat="43.85858447860657" lon="11.143895530421723"><ele>51.0</ele><time>2026-04-05T16:29:41.999Z</time></trkpt><trkpt lat="43.85857562015769" lon="11.143752650878929"><ele>51.0</ele><time>2026-04-05T16:29:42.999Z</time></trkpt><trkpt lat="43.85856683346419" lon="11.143607029476954"><ele>51.0</ele><time>2026-04-05T16:29:43.999Z</time></trkpt><trkpt lat="43.85856181965715" lon="11.143461866929039"><ele>51.0</ele><time>2026-04-05T16:29:44.999Z</time></trkpt><trkpt lat="43.85856129551656" lon="11.143332931102572"><ele>51.0</ele><time>2026-04-05T16:29:46Z</time></trkpt><trkpt lat="43.85856508755095" lon="11.143203716399622"><ele>51.166666666666664</ele><time>2026-04-05T16:29:47Z</time></trkpt><trkpt lat="43.85858008724851" lon="11.143081832423894"><ele>51.33333333333333</ele><time>2026-04-05T16:29:48Z</time></trkpt><trkpt lat="43.858600115492756" lon="11.142969504931212"><ele>51.5</ele><time>2026-04-05T16:29:49Z</time></trkpt><trkpt lat="43.858621515548656" lon="11.142863249130114"><ele>51.666666666666664</ele><time>2026-04-05T16:29:50Z</time></trkpt><trkpt lat="43.85864656239325" lon="11.14275740912153"><ele>51.83333333333333</ele><time>2026-04-05T16:29:51Z</time></trkpt><trkpt lat="43.85866974698635" lon="11.14264889832916"><ele>52.0</ele><time>2026-04-05T16:29:52Z</time></trkpt><trkpt lat="43.858691327832766" lon="11.142536904427095"><ele>52.0</ele><time>2026-04-05T16:29:53Z</time></trkpt><trkpt lat="43.85871636784987" lon="11.142418606526899"><ele>52.0</ele><time>2026-04-05T16:29:54Z</time></trkpt><trkpt lat="43.85874515653593" lon="11.142295726834092"><ele>52.0</ele><time>2026-04-05T16:29:55Z</time></trkpt><trkpt lat="43.85877506433683" lon="11.142170629563001"><ele>52.0</ele><time>2026-04-05T16:29:56Z</time></trkpt><trkpt lat="43.85880295382609" lon="11.142040944495289"><ele>52.0</ele><time>2026-04-05T16:29:57Z</time></trkpt><trkpt lat="43.85883168186632" lon="11.141903949559746"><ele>52.400000000000006</ele><time>2026-04-05T16:29:58Z</time></trkpt><trkpt lat="43.85886091035455" lon="11.141767153042476"><ele>52.800000000000004</ele><time>2026-04-05T16:29:59Z</time></trkpt><trkpt lat="43.858892400576494" lon="11.141625824915499"><ele>53.2</ele><time>2026-04-05T16:30:00Z</time></trkpt><trkpt lat="43.85892682839442" lon="11.141493324727966"><ele>53.6</ele><time>2026-04-05T16:30:01Z</time></trkpt><trkpt lat="43.858958310885065" lon="11.141370395902282"><ele>54.0</ele><time>2026-04-05T16:30:02Z</time></trkpt><trkpt lat="43.8589896252071" lon="11.141253052227567"><ele>54.2</ele><time>2026-04-05T16:30:03Z</time></trkpt><trkpt lat="43.85902573069496" lon="11.141133987015968"><ele>54.400000000000006</ele><time>2026-04-05T16:30:04Z</time></trkpt><trkpt lat="43.859065934598775" lon="11.141011325174636"><ele>54.6</ele><time>2026-04-05T16:30:05Z</time></trkpt><trkpt lat="43.859120431183676" lon="11.140879326575337"><ele>54.8</ele><time>2026-04-05T16:30:06Z</time></trkpt><trkpt lat="43.859195177819835" lon="11.140764071665618"><ele>55.0</ele><time>2026-04-05T16:30:07Z</time></trkpt><trkpt lat="43.8592526963898" lon="11.140654280659554"><ele>54.4</ele><time>2026-04-05T16:30:08Z</time></trkpt><trkpt lat="43.859311380169196" lon="11.140556383943897"><ele>53.8</ele><time>2026-04-05T16:30:09Z</time></trkpt><trkpt lat="43.85936459258754" lon="11.140456175588485"><ele>53.2</ele><time>2026-04-05T16:30:10Z</time></trkpt><trkpt lat="43.85942724994506" lon="11.140365640072702"><ele>52.6</ele><time>2026-04-05T16:30:11Z</time></trkpt><trkpt lat="43.85949384474818" lon="11.140270239798483"><ele>52.0</ele><time>2026-04-05T16:30:12Z</time></trkpt><trkpt lat="43.859566389845924" lon="11.140163726982411"><ele>52.0</ele><time>2026-04-05T16:30:13Z</time></trkpt><trkpt lat="43.85964102857016" lon="11.140053336381737"><ele>52.0</ele><time>2026-04-05T16:30:14Z</time></trkpt><trkpt lat="43.85972164231454" lon="11.139938526712916"><ele>52.0</ele><time>2026-04-05T16:30:15Z</time></trkpt><trkpt lat="43.85981089744863" lon="11.13982439570733"><ele>52.0</ele><time>2026-04-05T16:30:16Z</time></trkpt><trkpt lat="43.85992150892589" lon="11.139702486403255"><ele>52.400000000000006</ele><time>2026-04-05T16:30:17Z</time></trkpt><trkpt lat="43.86000241661695" lon="11.139568061481857"><ele>52.800000000000004</ele><time>2026-04-05T16:30:18Z</time></trkpt><trkpt lat="43.860080769080874" lon="11.139475886642863"><ele>53.2</ele><time>2026-04-05T16:30:19Z</time></trkpt><trkpt lat="43.860145253209744" lon="11.139402134354954"><ele>53.6</ele><time>2026-04-05T16:30:20Z</time></trkpt><trkpt lat="43.860204808337656" lon="11.139340958792074"><ele>54.0</ele><time>2026-04-05T16:30:21Z</time></trkpt><trkpt lat="43.86028375119604" lon="11.139273566320444"><ele>54.0</ele><time>2026-04-05T16:30:23Z</time></trkpt><trkpt lat="43.86035695936453" lon="11.139164163524015"><ele>54.0</ele><time>2026-04-05T16:30:25Z</time></trkpt><trkpt lat="43.860394765766834" lon="11.139088964088813"><ele>54.0</ele><time>2026-04-05T16:30:26Z</time></trkpt><trkpt lat="43.86043386074882" lon="11.139008418650288"><ele>54.0</ele><time>2026-04-05T16:30:27Z</time></trkpt><trkpt lat="43.86047824069342" lon="11.138928444697735"><ele>54.0</ele><time>2026-04-05T16:30:28Z</time></trkpt><trkpt lat="43.86054388254451" lon="11.138869606360611"><ele>54.0</ele><time>2026-04-05T16:30:29Z</time></trkpt><trkpt lat="43.86059177018448" lon="11.138782337415087"><ele>54.0</ele><time>2026-04-05T16:30:30Z</time></trkpt><trkpt lat="43.8606500932498" lon="11.13870620026328"><ele>54.0</ele><time>2026-04-05T16:30:31Z</time></trkpt><trkpt lat="43.860704809024234" lon="11.138630094904032"><ele>54.0</ele><time>2026-04-05T16:30:32Z</time></trkpt><trkpt lat="43.860765616992666" lon="11.138580620548137"><ele>54.0</ele><time>2026-04-05T16:30:33Z</time></trkpt><trkpt lat="43.86084223581999" lon="11.13847114372146"><ele>54.0</ele><time>2026-04-05T16:30:35Z</time></trkpt><trkpt lat="43.8609467091254" lon="11.138438408017414"><ele>54.0</ele><time>2026-04-05T16:30:37Z</time></trkpt><trkpt lat="43.86100983652777" lon="11.138445919237629"><ele>54.0</ele><time>2026-04-05T16:30:38Z</time></trkpt><trkpt lat="43.861073287859114" lon="11.13843224877186"><ele>54.00000000000001</ele><time>2026-04-05T16:30:39Z</time></trkpt><trkpt lat="43.861142945600925" lon="11.138320197446461"><ele>54.00000000000001</ele><time>2026-04-05T16:30:40.999Z</time></trkpt><trkpt lat="43.86115928150053" lon="11.138177297465068"><ele>54.0</ele><time>2026-04-05T16:30:42.999Z</time></trkpt><trkpt lat="43.861181855887885" lon="11.138035026037821"><ele>54.0</ele><time>2026-04-05T16:30:44.999Z</time></trkpt><trkpt lat="43.861252032229345" lon="11.13790616141164"><ele>53.833333333333336</ele><time>2026-04-05T16:30:46.999Z</time></trkpt><trkpt lat="43.86130405172841" lon="11.137832479291134"><ele>53.66666666666667</ele><time>2026-04-05T16:30:47.999Z</time></trkpt><trkpt lat="43.86136184153713" lon="11.13775513370639"><ele>53.5</ele><time>2026-04-05T16:30:48.999Z</time></trkpt><trkpt lat="43.86142534037571" lon="11.137670441996823"><ele>53.333333333333336</ele><time>2026-04-05T16:30:49.999Z</time></trkpt><trkpt lat="43.8614908020458" lon="11.1375822043146"><ele>53.16666666666667</ele><time>2026-04-05T16:30:50.999Z</time></trkpt><trkpt lat="43.861558114003834" lon="11.137488789043534"><ele>53.0</ele><time>2026-04-05T16:30:51.999Z</time></trkpt><trkpt lat="43.86163182619783" lon="11.137386361529288"><ele>53.0</ele><time>2026-04-05T16:30:52.999Z</time></trkpt><trkpt lat="43.861707020437635" lon="11.137286859676372"><ele>53.0</ele><time>2026-04-05T16:30:53.999Z</time></trkpt><trkpt lat="43.86177519105942" lon="11.137198338844287"><ele>53.0</ele><time>2026-04-05T16:30:54.999Z</time></trkpt><trkpt lat="43.8618396497193" lon="11.137113821688892"><ele>53.0</ele><time>2026-04-05T16:30:55.999Z</time></trkpt><trkpt lat="43.86190815946195" lon="11.13702734634803"><ele>53.0</ele><time>2026-04-05T16:30:56.999Z</time></trkpt><trkpt lat="43.861978536810476" lon="11.136942471555423"><ele>53.50000000000001</ele><time>2026-04-05T16:30:57.999Z</time></trkpt><trkpt lat="43.86205023128944" lon="11.136854244986875"><ele>54.0</ele><time>2026-04-05T16:30:58.999Z</time></trkpt><trkpt lat="43.86211885483365" lon="11.136765408662605"><ele>54.5</ele><time>2026-04-05T16:30:59.999Z</time></trkpt><trkpt lat="43.8621806103172" lon="11.136675408164017"><ele>55.0</ele><time>2026-04-05T16:31:00.999Z</time></trkpt><trkpt lat="43.86223215703731" lon="11.136588724955761"><ele>55.50000000000001</ele><time>2026-04-05T16:31:01.999Z</time></trkpt><trkpt lat="43.86227137927791" lon="11.13651123038284"><ele>56.0</ele><time>2026-04-05T16:31:02.999Z</time></trkpt><trkpt lat="43.86233280014433" lon="11.136398039125517"><ele>56.0</ele><time>2026-04-05T16:31:04.999Z</time></trkpt><trkpt lat="43.86237328046275" lon="11.13631379148639"><ele>55.99999999999999</ele><time>2026-04-05T16:31:06.999Z</time></trkpt><trkpt lat="43.862429184556575" lon="11.136218201455911"><ele>55.99999999999999</ele><time>2026-04-05T16:31:09.999Z</time></trkpt><trkpt lat="43.86248469262382" lon="11.136118849227806"><ele>56.0</ele><time>2026-04-05T16:31:12.999Z</time></trkpt><trkpt lat="43.862530606103974" lon="11.136021738021775"><ele>56.0</ele><time>2026-04-05T16:31:14.999Z</time></trkpt><trkpt lat="43.86259057727112" lon="11.135887379391205"><ele>57.599999999999994</ele><time>2026-04-05T16:31:16.999Z</time></trkpt><trkpt lat="43.862647747187246" lon="11.135811324745834"><ele>59.199999999999996</ele><time>2026-04-05T16:31:17.999Z</time></trkpt><trkpt lat="43.86270106950214" lon="11.135710229802331"><ele>60.800000000000004</ele><time>2026-04-05T16:31:18.999Z</time></trkpt><trkpt lat="43.86275995225607" lon="11.135596668976069"><ele>62.400000000000006</ele><time>2026-04-05T16:31:19.999Z</time></trkpt><trkpt lat="43.86282515572595" lon="11.135466857683792"><ele>64.0</ele><time>2026-04-05T16:31:20.999Z</time></trkpt><trkpt lat="43.86288904896206" lon="11.135328424933869"><ele>64.0</ele><time>2026-04-05T16:31:21.999Z</time></trkpt><trkpt lat="43.86294051088326" lon="11.13517720808376"><ele>64.0</ele><time>2026-04-05T16:31:22.999Z</time></trkpt><trkpt lat="43.8630181075869" lon="11.13502780540196"><ele>64.0</ele><time>2026-04-05T16:31:23.999Z</time></trkpt><trkpt lat="43.86310033494833" lon="11.134874725206194"><ele>64.0</ele><time>2026-04-05T16:31:24.999Z</time></trkpt><trkpt lat="43.86317867635627" lon="11.134715894931167"><ele>62.25</ele><time>2026-04-05T16:31:25.999Z</time></trkpt><trkpt lat="43.86325364544764" lon="11.134558089738563"><ele>60.5</ele><time>2026-04-05T16:31:26.999Z</time></trkpt><trkpt lat="43.863323527131676" lon="11.134409636877198"><ele>58.75</ele><time>2026-04-05T16:31:27.999Z</time></trkpt><trkpt lat="43.863385586804" lon="11.134277199521472"><ele>57.0</ele><time>2026-04-05T16:31:28.999Z</time></trkpt><trkpt lat="43.86344414618319" lon="11.134150025924692"><ele>57.400000000000006</ele><time>2026-04-05T16:31:29.999Z</time></trkpt><trkpt lat="43.86350315078249" lon="11.134027085448153"><ele>57.800000000000004</ele><time>2026-04-05T16:31:30.999Z</time></trkpt><trkpt lat="43.86356591642627" lon="11.133905142160076"><ele>58.2</ele><time>2026-04-05T16:31:31.999Z</time></trkpt><trkpt lat="43.86362557712607" lon="11.13378325239201"><ele>58.6</ele><time>2026-04-05T16:31:32.999Z</time></trkpt><trkpt lat="43.863692196920454" lon="11.133662360065264"><ele>59.0</ele><time>2026-04-05T16:31:33.999Z</time></trkpt><trkpt lat="43.86375845364853" lon="11.133542822435054"><ele>59.0</ele><time>2026-04-05T16:31:34.999Z</time></trkpt><trkpt lat="43.863823411390776" lon="11.133417859878996"><ele>59.0</ele><time>2026-04-05T16:31:35.999Z</time></trkpt><trkpt lat="43.8638960029183" lon="11.133294641084127"><ele>59.0</ele><time>2026-04-05T16:31:36.999Z</time></trkpt><trkpt lat="43.86397379895336" lon="11.133168678221974"><ele>59.0</ele><time>2026-04-05T16:31:37.999Z</time></trkpt><trkpt lat="43.864049278798696" lon="11.133038981416504"><ele>59.5</ele><time>2026-04-05T16:31:38.999Z</time></trkpt><trkpt lat="43.864126174224324" lon="11.132907453907219"><ele>60.0</ele><time>2026-04-05T16:31:39.999Z</time></trkpt><trkpt lat="43.864201109202476" lon="11.132775085157979"><ele>60.5</ele><time>2026-04-05T16:31:40.999Z</time></trkpt><trkpt lat="43.86428060109394" lon="11.132643947480377"><ele>61.0</ele><time>2026-04-05T16:31:41.999Z</time></trkpt><trkpt lat="43.86436219204303" lon="11.13250555681855"><ele>60.5</ele><time>2026-04-05T16:31:42.999Z</time></trkpt><trkpt lat="43.8644441236449" lon="11.13236855539421"><ele>60.0</ele><time>2026-04-05T16:31:43.999Z</time></trkpt><trkpt lat="43.864524075078506" lon="11.132227865002994"><ele>59.5</ele><time>2026-04-05T16:31:44.999Z</time></trkpt><trkpt lat="43.864608163576406" lon="11.132091412806007"><ele>59.0</ele><time>2026-04-05T16:31:45.999Z</time></trkpt><trkpt lat="43.864687770924036" lon="11.131952336881566"><ele>59.0</ele><time>2026-04-05T16:31:46.999Z</time></trkpt><trkpt lat="43.86476701411942" lon="11.131813822025117"><ele>59.0</ele><time>2026-04-05T16:31:47.999Z</time></trkpt><trkpt lat="43.864842868710255" lon="11.13168675718989"><ele>59.0</ele><time>2026-04-05T16:31:48.999Z</time></trkpt><trkpt lat="43.86491875605515" lon="11.131566523607084"><ele>59.0</ele><time>2026-04-05T16:31:49.999Z</time></trkpt><trkpt lat="43.864987444109225" lon="11.131447611242702"><ele>59.25</ele><time>2026-04-05T16:31:50.999Z</time></trkpt><trkpt lat="43.86506301854631" lon="11.13132509202983"><ele>59.5</ele><time>2026-04-05T16:31:51.999Z</time></trkpt><trkpt lat="43.86513753752519" lon="11.131199613313454"><ele>59.75</ele><time>2026-04-05T16:31:52.999Z</time></trkpt><trkpt lat="43.86521342754289" lon="11.131064050369028"><ele>60.0</ele><time>2026-04-05T16:31:53.999Z</time></trkpt><trkpt lat="43.86529292362422" lon="11.130927815983908"><ele>60.0</ele><time>2026-04-05T16:31:54.999Z</time></trkpt><trkpt lat="43.86537676532149" lon="11.13079097688092"><ele>60.0</ele><time>2026-04-05T16:31:55.999Z</time></trkpt><trkpt lat="43.86546166110788" lon="11.130648974822032"><ele>60.0</ele><time>2026-04-05T16:31:56.999Z</time></trkpt><trkpt lat="43.865547664339054" lon="11.130502436669143"><ele>60.0</ele><time>2026-04-05T16:31:57.999Z</time></trkpt><trkpt lat="43.86563477244224" lon="11.130356753430226"><ele>59.25</ele><time>2026-04-05T16:31:58.999Z</time></trkpt><trkpt lat="43.86572131845761" lon="11.130210345227212"><ele>58.5</ele><time>2026-04-05T16:31:59.999Z</time></trkpt><trkpt lat="43.865806501037426" lon="11.130063993161626"><ele>57.75</ele><time>2026-04-05T16:32:00.999Z</time></trkpt><trkpt lat="43.8658893288732" lon="11.129920358196332"><ele>57.0</ele><time>2026-04-05T16:32:01.999Z</time></trkpt><trkpt lat="43.86597655524387" lon="11.12977657121614"><ele>57.0</ele><time>2026-04-05T16:32:02.999Z</time></trkpt><trkpt lat="43.86606334709901" lon="11.129639611005405"><ele>57.0</ele><time>2026-04-05T16:32:03.999Z</time></trkpt><trkpt lat="43.86614329690812" lon="11.129507430286095"><ele>57.0</ele><time>2026-04-05T16:32:04.999Z</time></trkpt><trkpt lat="43.86622204484057" lon="11.129385245187501"><ele>57.0</ele><time>2026-04-05T16:32:05.999Z</time></trkpt><trkpt lat="43.866303422208446" lon="11.12926892737463"><ele>57.0</ele><time>2026-04-05T16:32:06.999Z</time></trkpt><trkpt lat="43.86638238148892" lon="11.129155506237586"><ele>57.0</ele><time>2026-04-05T16:32:07.999Z</time></trkpt><trkpt lat="43.86645859915333" lon="11.129045310946195"><ele>57.0</ele><time>2026-04-05T16:32:08.999Z</time></trkpt><trkpt lat="43.866535255174284" lon="11.128935116545602"><ele>57.0</ele><time>2026-04-05T16:32:09.999Z</time></trkpt><trkpt lat="43.86660617586685" lon="11.128815871684191"><ele>57.0</ele><time>2026-04-05T16:32:10.999Z</time></trkpt><trkpt lat="43.866671373488806" lon="11.128689217897763"><ele>56.8</ele><time>2026-04-05T16:32:11.999Z</time></trkpt><trkpt lat="43.86673250178199" lon="11.128558732533056"><ele>56.6</ele><time>2026-04-05T16:32:12.999Z</time></trkpt><trkpt lat="43.86678924166531" lon="11.128427493676359"><ele>56.39999999999999</ele><time>2026-04-05T16:32:13.999Z</time></trkpt><trkpt lat="43.866849487216996" lon="11.128305760406233"><ele>56.199999999999996</ele><time>2026-04-05T16:32:14.999Z</time></trkpt><trkpt lat="43.866909317046606" lon="11.12818027130923"><ele>56.0</ele><time>2026-04-05T16:32:16Z</time></trkpt><trkpt lat="43.86696586712456" lon="11.128050900303679"><ele>56.5</ele><time>2026-04-05T16:32:17Z</time></trkpt><trkpt lat="43.86703044926914" lon="11.127920793182309"><ele>57.0</ele><time>2026-04-05T16:32:18Z</time></trkpt><trkpt lat="43.86709299134251" lon="11.127786927977517"><ele>57.5</ele><time>2026-04-05T16:32:19Z</time></trkpt><trkpt lat="43.86715914841143" lon="11.12765140703978"><ele>58.0</ele><time>2026-04-05T16:32:20Z</time></trkpt><trkpt lat="43.867224038754806" lon="11.12752545407181"><ele>58.0</ele><time>2026-04-05T16:32:21Z</time></trkpt><trkpt lat="43.86728903667652" lon="11.12740806568543"><ele>58.0</ele><time>2026-04-05T16:32:22Z</time></trkpt><trkpt lat="43.867346883972694" lon="11.127292984010008"><ele>58.0</ele><time>2026-04-05T16:32:23Z</time></trkpt><trkpt lat="43.86741076633739" lon="11.127177490488332"><ele>58.0</ele><time>2026-04-05T16:32:24Z</time></trkpt><trkpt lat="43.867471834889244" lon="11.127064945009883"><ele>58.0</ele><time>2026-04-05T16:32:25Z</time></trkpt><trkpt lat="43.86753756560581" lon="11.126946261231767"><ele>58.0</ele><time>2026-04-05T16:32:26Z</time></trkpt><trkpt lat="43.86760246430067" lon="11.126828104549508"><ele>58.0</ele><time>2026-04-05T16:32:26.999Z</time></trkpt><trkpt lat="43.86766299499012" lon="11.126709345601347"><ele>58.0</ele><time>2026-04-05T16:32:27.999Z</time></trkpt><trkpt lat="43.867725800989554" lon="11.126597245974503"><ele>58.0</ele><time>2026-04-05T16:32:28.999Z</time></trkpt><trkpt lat="43.867784426146855" lon="11.126487657322539"><ele>58.0</ele><time>2026-04-05T16:32:29.999Z</time></trkpt><trkpt lat="43.86784372767547" lon="11.126382508145324"><ele>58.0</ele><time>2026-04-05T16:32:30.999Z</time></trkpt><trkpt lat="43.86790163355347" lon="11.126272570430546"><ele>58.0</ele><time>2026-04-05T16:32:31.999Z</time></trkpt><trkpt lat="43.86796317138648" lon="11.126164068376912"><ele>58.0</ele><time>2026-04-05T16:32:32.999Z</time></trkpt><trkpt lat="43.86802535342177" lon="11.126061664613976"><ele>58.0</ele><time>2026-04-05T16:32:33.999Z</time></trkpt><trkpt lat="43.86808014309253" lon="11.125958463368395"><ele>58.0</ele><time>2026-04-05T16:32:34.999Z</time></trkpt><trkpt lat="43.86813730538512" lon="11.125847238136597"><ele>58.0</ele><time>2026-04-05T16:32:35.999Z</time></trkpt><trkpt lat="43.86820251411554" lon="11.125740064784287"><ele>58.0</ele><time>2026-04-05T16:32:36.999Z</time></trkpt><trkpt lat="43.8682842017186" lon="11.125638868954438"><ele>58.0</ele><time>2026-04-05T16:32:37.999Z</time></trkpt><trkpt lat="43.86836795251174" lon="11.125532959421447"><ele>58.0</ele><time>2026-04-05T16:32:38.999Z</time></trkpt><trkpt lat="43.86845258801424" lon="11.125428754902854"><ele>58.0</ele><time>2026-04-05T16:32:39.999Z</time></trkpt><trkpt lat="43.86854257436477" lon="11.125322874519744"><ele>58.25</ele><time>2026-04-05T16:32:40.999Z</time></trkpt><trkpt lat="43.868635574985234" lon="11.125213107705502"><ele>58.5</ele><time>2026-04-05T16:32:41.999Z</time></trkpt><trkpt lat="43.868730229535345" lon="11.125100781410294"><ele>58.75</ele><time>2026-04-05T16:32:42.999Z</time></trkpt><trkpt lat="43.868828507883315" lon="11.124986934797757"><ele>59.0</ele><time>2026-04-05T16:32:43.999Z</time></trkpt><trkpt lat="43.86892305663588" lon="11.124873512236691"><ele>58.75</ele><time>2026-04-05T16:32:44.999Z</time></trkpt><trkpt lat="43.869020583507584" lon="11.124761858242357"><ele>58.5</ele><time>2026-04-05T16:32:45.999Z</time></trkpt><trkpt lat="43.869114136575725" lon="11.124653625818233"><ele>58.25</ele><time>2026-04-05T16:32:46.999Z</time></trkpt><trkpt lat="43.86920524896601" lon="11.124552062281237"><ele>58.0</ele><time>2026-04-05T16:32:47.999Z</time></trkpt><trkpt lat="43.869289816566166" lon="11.124451657238751"><ele>58.0</ele><time>2026-04-05T16:32:48.999Z</time></trkpt><trkpt lat="43.86936860672553" lon="11.1243552221011"><ele>58.0</ele><time>2026-04-05T16:32:49.999Z</time></trkpt><trkpt lat="43.869454181903215" lon="11.124257679763186"><ele>58.0</ele><time>2026-04-05T16:32:50.999Z</time></trkpt><trkpt lat="43.869527328460386" lon="11.12413477804971"><ele>58.0</ele><time>2026-04-05T16:32:51.999Z</time></trkpt><trkpt lat="43.8696030970461" lon="11.12401288094211"><ele>58.0</ele><time>2026-04-05T16:32:52.999Z</time></trkpt><trkpt lat="43.86967562858666" lon="11.12388079421512"><ele>57.4</ele><time>2026-04-05T16:32:53.999Z</time></trkpt><trkpt lat="43.86975270259074" lon="11.123759969517993"><ele>56.8</ele><time>2026-04-05T16:32:54.999Z</time></trkpt><trkpt lat="43.86982012882496" lon="11.12363323221456"><ele>56.2</ele><time>2026-04-05T16:32:55.999Z</time></trkpt><trkpt lat="43.869884829897345" lon="11.123509432165676"><ele>55.6</ele><time>2026-04-05T16:32:56.999Z</time></trkpt><trkpt lat="43.86994993048774" lon="11.123387934496641"><ele>55.0</ele><time>2026-04-05T16:32:57.999Z</time></trkpt><trkpt lat="43.87001931060308" lon="11.123261401886282"><ele>55.25</ele><time>2026-04-05T16:32:58.999Z</time></trkpt><trkpt lat="43.87008971077885" lon="11.123127519419587"><ele>55.5</ele><time>2026-04-05T16:32:59.999Z</time></trkpt><trkpt lat="43.8701623354978" lon="11.122997360657672"><ele>55.75</ele><time>2026-04-05T16:33:00.999Z</time></trkpt><trkpt lat="43.87023419256101" lon="11.122864361956955"><ele>56.0</ele><time>2026-04-05T16:33:01.999Z</time></trkpt><trkpt lat="43.87030677048713" lon="11.122729539101682"><ele>56.25</ele><time>2026-04-05T16:33:02.999Z</time></trkpt><trkpt lat="43.87037789492552" lon="11.122593616355308"><ele>56.5</ele><time>2026-04-05T16:33:03.999Z</time></trkpt><trkpt lat="43.870452533623435" lon="11.122458456270671"><ele>56.75</ele><time>2026-04-05T16:33:04.999Z</time></trkpt><trkpt lat="43.870524349166246" lon="11.12231873831217"><ele>57.0</ele><time>2026-04-05T16:33:05.999Z</time></trkpt><trkpt lat="43.870603692813695" lon="11.122166014314399"><ele>57.0</ele><time>2026-04-05T16:33:06.999Z</time></trkpt><trkpt lat="43.8706931237175" lon="11.12200092640712"><ele>57.0</ele><time>2026-04-05T16:33:07.999Z</time></trkpt><trkpt lat="43.87079605885413" lon="11.1218272429778"><ele>57.0</ele><time>2026-04-05T16:33:08.999Z</time></trkpt><trkpt lat="43.870890013113915" lon="11.121659496550041"><ele>57.0</ele><time>2026-04-05T16:33:09.999Z</time></trkpt><trkpt lat="43.870970462653204" lon="11.121512658756378"><ele>57.0</ele><time>2026-04-05T16:33:10.999Z</time></trkpt><trkpt lat="43.87103410277889" lon="11.121383776975383"><ele>57.0</ele><time>2026-04-05T16:33:11.999Z</time></trkpt><trkpt lat="43.871082408433026" lon="11.12126611989498"><ele>57.0</ele><time>2026-04-05T16:33:12.999Z</time></trkpt><trkpt lat="43.8711289915465" lon="11.121154389111771"><ele>57.0</ele><time>2026-04-05T16:33:13.999Z</time></trkpt><trkpt lat="43.871169839002015" lon="11.121044601898259"><ele>57.0</ele><time>2026-04-05T16:33:14.999Z</time></trkpt><trkpt lat="43.871210426982685" lon="11.120938468731453"><ele>57.0</ele><time>2026-04-05T16:33:15.999Z</time></trkpt><trkpt lat="43.871257958442484" lon="11.120809601368153"><ele>57.0</ele><time>2026-04-05T16:33:16.999Z</time></trkpt><trkpt lat="43.87131244576435" lon="11.120675082667484"><ele>57.0</ele><time>2026-04-05T16:33:17.999Z</time></trkpt><trkpt lat="43.871368489367136" lon="11.120533907779096"><ele>57.0</ele><time>2026-04-05T16:33:18.999Z</time></trkpt><trkpt lat="43.87142390551127" lon="11.120393515878666"><ele>57.25</ele><time>2026-04-05T16:33:19.999Z</time></trkpt><trkpt lat="43.871480254252795" lon="11.120240148680589"><ele>57.5</ele><time>2026-04-05T16:33:20.999Z</time></trkpt><trkpt lat="43.87154059763009" lon="11.120080442928282"><ele>57.75</ele><time>2026-04-05T16:33:21.999Z</time></trkpt><trkpt lat="43.87160723773643" lon="11.119907213743666"><ele>58.0</ele><time>2026-04-05T16:33:22.999Z</time></trkpt><trkpt lat="43.87167669839969" lon="11.119727399706164"><ele>58.0</ele><time>2026-04-05T16:33:23.999Z</time></trkpt><trkpt lat="43.87175357055767" lon="11.119563410038705"><ele>58.0</ele><time>2026-04-05T16:33:24.999Z</time></trkpt><trkpt lat="43.871829615653034" lon="11.119404787669595"><ele>58.0</ele><time>2026-04-05T16:33:25.999Z</time></trkpt><trkpt lat="43.871902926429996" lon="11.119270360478298"><ele>58.0</ele><time>2026-04-05T16:33:26.999Z</time></trkpt><trkpt lat="43.87196836274272" lon="11.119144123742661"><ele>58.166666666666664</ele><time>2026-04-05T16:33:27.999Z</time></trkpt><trkpt lat="43.87202933243196" lon="11.119035073579228"><ele>58.33333333333333</ele><time>2026-04-05T16:33:28.999Z</time></trkpt><trkpt lat="43.87209295512875" lon="11.11894630133925"><ele>58.5</ele><time>2026-04-05T16:33:29.999Z</time></trkpt><trkpt lat="43.87215408588719" lon="11.118851383919498"><ele>58.66666666666667</ele><time>2026-04-05T16:33:30.999Z</time></trkpt><trkpt lat="43.87220959544855" lon="11.118766198008325"><ele>58.833333333333336</ele><time>2026-04-05T16:33:31.999Z</time></trkpt><trkpt lat="43.87226532869196" lon="11.11868091793685"><ele>59.0</ele><time>2026-04-05T16:33:32.999Z</time></trkpt><trkpt lat="43.87231794531888" lon="11.11860384826321"><ele>59.00000000000001</ele><time>2026-04-05T16:33:33.999Z</time></trkpt><trkpt lat="43.87238232762831" lon="11.118548015359996"><ele>59.0</ele><time>2026-04-05T16:33:34.999Z</time></trkpt><trkpt lat="43.872456764846405" lon="11.118518606846854"><ele>59.0</ele><time>2026-04-05T16:33:35.999Z</time></trkpt><trkpt lat="43.87252611137824" lon="11.118511084161756"><ele>59.0</ele><time>2026-04-05T16:33:36.999Z</time></trkpt><trkpt lat="43.87259791041772" lon="11.118526398987052"><ele>59.00000000000001</ele><time>2026-04-05T16:33:37.999Z</time></trkpt><trkpt lat="43.8726776439255" lon="11.118538316223482"><ele>59.0</ele><time>2026-04-05T16:33:38.999Z</time></trkpt><trkpt lat="43.87275711860429" lon="11.118538027571164"><ele>59.16666666666667</ele><time>2026-04-05T16:33:39.999Z</time></trkpt><trkpt lat="43.87282589856933" lon="11.118500852262322"><ele>59.333333333333336</ele><time>2026-04-05T16:33:40.999Z</time></trkpt><trkpt lat="43.87289222130209" lon="11.118435059361476"><ele>59.5</ele><time>2026-04-05T16:33:41.999Z</time></trkpt><trkpt lat="43.87294018635077" lon="11.118345070797957"><ele>59.66666666666667</ele><time>2026-04-05T16:33:42.999Z</time></trkpt><trkpt lat="43.872968786652415" lon="11.118241792030608"><ele>59.833333333333336</ele><time>2026-04-05T16:33:43.999Z</time></trkpt><trkpt lat="43.87298323334454" lon="11.118130250087502"><ele>60.0</ele><time>2026-04-05T16:33:44.999Z</time></trkpt><trkpt lat="43.87299721924069" lon="11.118027221783798"><ele>60.0</ele><time>2026-04-05T16:33:45.999Z</time></trkpt><trkpt lat="43.87301576311533" lon="11.117927770575296"><ele>60.0</ele><time>2026-04-05T16:33:46.999Z</time></trkpt><trkpt lat="43.87303803726478" lon="11.1178299902072"><ele>60.0</ele><time>2026-04-05T16:33:47.999Z</time></trkpt><trkpt lat="43.87306707237797" lon="11.117734119341494"><ele>60.0</ele><time>2026-04-05T16:33:48.999Z</time></trkpt><trkpt lat="43.87311563813306" lon="11.11764629924876"><ele>60.0</ele><time>2026-04-05T16:33:49.999Z</time></trkpt><trkpt lat="43.87319379684154" lon="11.117582930048933"><ele>60.0</ele><time>2026-04-05T16:33:50.999Z</time></trkpt><trkpt lat="43.87326622500326" lon="11.117493628537304"><ele>60.0</ele><time>2026-04-05T16:33:51.999Z</time></trkpt><trkpt lat="43.87333935961673" lon="11.117409794480885"><ele>60.0</ele><time>2026-04-05T16:33:52.999Z</time></trkpt><trkpt lat="43.87342008582989" lon="11.117322049284471"><ele>60.0</ele><time>2026-04-05T16:33:53.999Z</time></trkpt><trkpt lat="43.873494642508014" lon="11.117227849541903"><ele>60.0</ele><time>2026-04-05T16:33:54.999Z</time></trkpt><trkpt lat="43.873564343210404" lon="11.117137255172487"><ele>60.0</ele><time>2026-04-05T16:33:55.999Z</time></trkpt><trkpt lat="43.87364318107394" lon="11.117056807641106"><ele>60.0</ele><time>2026-04-05T16:33:56.999Z</time></trkpt><trkpt lat="43.87372549745141" lon="11.116988177797035"><ele>60.0</ele><time>2026-04-05T16:33:57.999Z</time></trkpt><trkpt lat="43.87380500752388" lon="11.116924503081096"><ele>60.0</ele><time>2026-04-05T16:33:58.999Z</time></trkpt><trkpt lat="43.87388221331183" lon="11.116862267310443"><ele>60.0</ele><time>2026-04-05T16:33:59.999Z</time></trkpt><trkpt lat="43.87395735047656" lon="11.116797448259913"><ele>60.0</ele><time>2026-04-05T16:34:00.999Z</time></trkpt><trkpt lat="43.87402668159774" lon="11.116735000233538"><ele>60.0</ele><time>2026-04-05T16:34:01.999Z</time></trkpt><trkpt lat="43.87408512088561" lon="11.116682739588962"><ele>60.0</ele><time>2026-04-05T16:34:02.999Z</time></trkpt><trkpt lat="43.87415979128422" lon="11.11662103357153"><ele>60.0</ele><time>2026-04-05T16:34:04.999Z</time></trkpt><trkpt lat="43.8742466763097" lon="11.11659674853113"><ele>60.0</ele><time>2026-04-05T16:34:06.999Z</time></trkpt><trkpt lat="43.87431017684757" lon="11.116618846468826"><ele>60.0</ele><time>2026-04-05T16:34:08Z</time></trkpt><trkpt lat="43.87437482341107" lon="11.116604977636554"><ele>60.0</ele><time>2026-04-05T16:34:09Z</time></trkpt><trkpt lat="43.874420415833505" lon="11.116544240636543"><ele>60.0</ele><time>2026-04-05T16:34:10Z</time></trkpt><trkpt lat="43.87444644469039" lon="11.116451516672699"><ele>60.0</ele><time>2026-04-05T16:34:11Z</time></trkpt><trkpt lat="43.874469806235446" lon="11.11634124679163"><ele>60.4</ele><time>2026-04-05T16:34:12Z</time></trkpt><trkpt lat="43.87451715801758" lon="11.116225200602269"><ele>60.8</ele><time>2026-04-05T16:34:13Z</time></trkpt><trkpt lat="43.87459766448913" lon="11.11613006523436"><ele>61.2</ele><time>2026-04-05T16:34:14Z</time></trkpt><trkpt lat="43.874675743156224" lon="11.116009499396649"><ele>61.6</ele><time>2026-04-05T16:34:15Z</time></trkpt><trkpt lat="43.8747856558245" lon="11.115912230496246"><ele>62.0</ele><time>2026-04-05T16:34:16Z</time></trkpt><trkpt lat="43.87490453540429" lon="11.115807827654907"><ele>62.0</ele><time>2026-04-05T16:34:17Z</time></trkpt><trkpt lat="43.87503343559279" lon="11.115698500550511"><ele>62.0</ele><time>2026-04-05T16:34:18Z</time></trkpt><trkpt lat="43.875183460583465" lon="11.11561701821478"><ele>62.0</ele><time>2026-04-05T16:34:19Z</time></trkpt><trkpt lat="43.87530880148068" lon="11.11548016218887"><ele>62.0</ele><time>2026-04-05T16:34:20Z</time></trkpt><trkpt lat="43.87546587465368" lon="11.115351618916964"><ele>62.0</ele><time>2026-04-05T16:34:21Z</time></trkpt><trkpt lat="43.87561818267897" lon="11.115218727653717"><ele>62.0</ele><time>2026-04-05T16:34:22Z</time></trkpt><trkpt lat="43.87576483679003" lon="11.115085050199255"><ele>62.0</ele><time>2026-04-05T16:34:23Z</time></trkpt><trkpt lat="43.87591427174519" lon="11.114955391761534"><ele>62.0</ele><time>2026-04-05T16:34:24Z</time></trkpt><trkpt lat="43.876060885757205" lon="11.114824849521703"><ele>62.0</ele><time>2026-04-05T16:34:25Z</time></trkpt><trkpt lat="43.876205526955054" lon="11.114693127926504"><ele>62.66666666666667</ele><time>2026-04-05T16:34:26Z</time></trkpt><trkpt lat="43.87635027419818" lon="11.114561814100952"><ele>63.33333333333333</ele><time>2026-04-05T16:34:27Z</time></trkpt><trkpt lat="43.876498755771614" lon="11.11443026269333"><ele>64.0</ele><time>2026-04-05T16:34:28Z</time></trkpt><trkpt lat="43.876648006812765" lon="11.114296810366927"><ele>64.33333333333333</ele><time>2026-04-05T16:34:29Z</time></trkpt><trkpt lat="43.87678944854275" lon="11.114166306632127"><ele>64.66666666666667</ele><time>2026-04-05T16:34:30Z</time></trkpt><trkpt lat="43.87692583521734" lon="11.114046500627841"><ele>65.0</ele><time>2026-04-05T16:34:31Z</time></trkpt><trkpt lat="43.877064882284635" lon="11.11394274170758"><ele>64.0</ele><time>2026-04-05T16:34:32Z</time></trkpt><trkpt lat="43.87719862906378" lon="11.113829053090047"><ele>63.0</ele><time>2026-04-05T16:34:33Z</time></trkpt><trkpt lat="43.877330268137946" lon="11.113696095854431"><ele>62.0</ele><time>2026-04-05T16:34:34Z</time></trkpt><trkpt lat="43.877467245234804" lon="11.11355566794573"><ele>62.0</ele><time>2026-04-05T16:34:35Z</time></trkpt><trkpt lat="43.877611043545805" lon="11.113431830946302"><ele>62.0</ele><time>2026-04-05T16:34:36Z</time></trkpt><trkpt lat="43.87775614422594" lon="11.113311464458247"><ele>62.0</ele><time>2026-04-05T16:34:37Z</time></trkpt><trkpt lat="43.87789702779798" lon="11.113186250923055"><ele>62.25</ele><time>2026-04-05T16:34:38Z</time></trkpt><trkpt lat="43.87802430224587" lon="11.113070382697343"><ele>62.5</ele><time>2026-04-05T16:34:39Z</time></trkpt><trkpt lat="43.87813120511745" lon="11.112975405694403"><ele>62.75</ele><time>2026-04-05T16:34:40Z</time></trkpt><trkpt lat="43.878216630076665" lon="11.112898105885264"><ele>63.0</ele><time>2026-04-05T16:34:41Z</time></trkpt><trkpt lat="43.87827510441345" lon="11.112843298704284"><ele>63.0</ele><time>2026-04-05T16:34:42Z</time></trkpt><trkpt lat="43.878381745759555" lon="11.11277103006349"><ele>63.0</ele><time>2026-04-05T16:34:44Z</time></trkpt><trkpt lat="43.878438166262846" lon="11.11270455818003"><ele>63.0</ele><time>2026-04-05T16:34:45Z</time></trkpt><trkpt lat="43.878515592311324" lon="11.112616020905644"><ele>63.0</ele><time>2026-04-05T16:34:46Z</time></trkpt><trkpt lat="43.878612363376284" lon="11.112538894239588"><ele>63.0</ele><time>2026-04-05T16:34:47Z</time></trkpt><trkpt lat="43.87872410076495" lon="11.112457235771235"><ele>63.5</ele><time>2026-04-05T16:34:48Z</time></trkpt><trkpt lat="43.87884089910415" lon="11.112351194601832"><ele>64.0</ele><time>2026-04-05T16:34:49Z</time></trkpt><trkpt lat="43.87895948264301" lon="11.112239058166729"><ele>64.5</ele><time>2026-04-05T16:34:50Z</time></trkpt><trkpt lat="43.8790816783935" lon="11.112117889198778"><ele>65.0</ele><time>2026-04-05T16:34:51Z</time></trkpt><trkpt lat="43.87920878368223" lon="11.112003421518176"><ele>65.0</ele><time>2026-04-05T16:34:52Z</time></trkpt><trkpt lat="43.87933820032442" lon="11.111886759782422"><ele>65.0</ele><time>2026-04-05T16:34:53Z</time></trkpt><trkpt lat="43.87946596346891" lon="11.111770557857328"><ele>65.0</ele><time>2026-04-05T16:34:54Z</time></trkpt><trkpt lat="43.87959018644988" lon="11.111661909531568"><ele>65.0</ele><time>2026-04-05T16:34:55Z</time></trkpt><trkpt lat="43.87970235156779" lon="11.11156779960681"><ele>65.0</ele><time>2026-04-05T16:34:56Z</time></trkpt><trkpt lat="43.87980005780684" lon="11.111499019979723"><ele>65.0</ele><time>2026-04-05T16:34:57Z</time></trkpt><trkpt lat="43.87989271480041" lon="11.111448360120658"><ele>65.0</ele><time>2026-04-05T16:34:58Z</time></trkpt><trkpt lat="43.87998352105096" lon="11.111389970476363"><ele>65.0</ele><time>2026-04-05T16:34:59Z</time></trkpt><trkpt lat="43.88006407113983" lon="11.111303778296165"><ele>65.75</ele><time>2026-04-05T16:35:00Z</time></trkpt><trkpt lat="43.880152489782965" lon="11.1111946506122"><ele>66.5</ele><time>2026-04-05T16:35:01Z</time></trkpt><trkpt lat="43.88025971081167" lon="11.111120985381667"><ele>67.25</ele><time>2026-04-05T16:35:02Z</time></trkpt><trkpt lat="43.880376907712915" lon="11.111026049003978"><ele>68.0</ele><time>2026-04-05T16:35:03Z</time></trkpt><trkpt lat="43.880500072764974" lon="11.11092627800413"><ele>68.0</ele><time>2026-04-05T16:35:04Z</time></trkpt><trkpt lat="43.880616340018065" lon="11.110805432328513"><ele>68.0</ele><time>2026-04-05T16:35:05Z</time></trkpt><trkpt lat="43.880741826454866" lon="11.110716902549433"><ele>68.0</ele><time>2026-04-05T16:35:06Z</time></trkpt><trkpt lat="43.880854393548674" lon="11.11062232857111"><ele>68.0</ele><time>2026-04-05T16:35:07Z</time></trkpt><trkpt lat="43.880962867361056" lon="11.110528613974564"><ele>68.0</ele><time>2026-04-05T16:35:08Z</time></trkpt><trkpt lat="43.88107268646015" lon="11.110468433793132"><ele>68.0</ele><time>2026-04-05T16:35:09Z</time></trkpt><trkpt lat="43.88116236906009" lon="11.11039882131883"><ele>68.0</ele><time>2026-04-05T16:35:10Z</time></trkpt><trkpt lat="43.88124653530124" lon="11.110333191897748"><ele>68.0</ele><time>2026-04-05T16:35:11Z</time></trkpt><trkpt lat="43.88133122607301" lon="11.110267037573854"><ele>68.0</ele><time>2026-04-05T16:35:12Z</time></trkpt><trkpt lat="43.881420885450176" lon="11.110197002206506"><ele>68.0</ele><time>2026-04-05T16:35:13Z</time></trkpt><trkpt lat="43.8815105374343" lon="11.110102502523283"><ele>68.0</ele><time>2026-04-05T16:35:14Z</time></trkpt><trkpt lat="43.88162545685378" lon="11.11003720587758"><ele>68.0</ele><time>2026-04-05T16:35:15Z</time></trkpt><trkpt lat="43.8817363247377" lon="11.109950602317852"><ele>68.0</ele><time>2026-04-05T16:35:16Z</time></trkpt><trkpt lat="43.88184011653543" lon="11.10986850150203"><ele>67.6</ele><time>2026-04-05T16:35:17Z</time></trkpt><trkpt lat="43.88192606442098" lon="11.109789451010794"><ele>67.19999999999999</ele><time>2026-04-05T16:35:18Z</time></trkpt><trkpt lat="43.882009185863744" lon="11.10972666773691"><ele>66.8</ele><time>2026-04-05T16:35:19Z</time></trkpt><trkpt lat="43.882080781061056" lon="11.109670343195916"><ele>66.39999999999999</ele><time>2026-04-05T16:35:20Z</time></trkpt><trkpt lat="43.88214896037609" lon="11.109620594202704"><ele>66.0</ele><time>2026-04-05T16:35:21Z</time></trkpt><trkpt lat="43.88223407615769" lon="11.109538643949039"><ele>66.0</ele><time>2026-04-05T16:35:23Z</time></trkpt><trkpt lat="43.88230326845405" lon="11.10949510103129"><ele>66.0</ele><time>2026-04-05T16:35:25Z</time></trkpt><trkpt lat="43.8823690240659" lon="11.10944119325127"><ele>66.0</ele><time>2026-04-05T16:35:37Z</time></trkpt><trkpt lat="43.88244841114435" lon="11.109383171453908"><ele>66.0</ele><time>2026-04-05T16:35:39Z</time></trkpt><trkpt lat="43.88250868147138" lon="11.109349766821923"><ele>66.0</ele><time>2026-04-05T16:35:40Z</time></trkpt><trkpt lat="43.88257566157761" lon="11.109304971434458"><ele>66.0</ele><time>2026-04-05T16:35:41Z</time></trkpt><trkpt lat="43.882637781238444" lon="11.109257961377521"><ele>66.25</ele><time>2026-04-05T16:35:42Z</time></trkpt><trkpt lat="43.88275639882732" lon="11.109152524846044"><ele>66.5</ele><time>2026-04-05T16:35:43Z</time></trkpt><trkpt lat="43.882846342598796" lon="11.10907126951925"><ele>66.75</ele><time>2026-04-05T16:35:44Z</time></trkpt><trkpt lat="43.88294906010952" lon="11.10899075934972"><ele>67.0</ele><time>2026-04-05T16:35:45Z</time></trkpt><trkpt lat="43.88305803437337" lon="11.10890230962609"><ele>67.0</ele><time>2026-04-05T16:35:46Z</time></trkpt><trkpt lat="43.883166598777095" lon="11.108816667622147"><ele>67.0</ele><time>2026-04-05T16:35:47Z</time></trkpt><trkpt lat="43.883287257054825" lon="11.108726054102657"><ele>67.0</ele><time>2026-04-05T16:35:48Z</time></trkpt><trkpt lat="43.88339341270433" lon="11.10863414632817"><ele>67.0</ele><time>2026-04-05T16:35:49Z</time></trkpt><trkpt lat="43.883519024059616" lon="11.108537026376752"><ele>67.0</ele><time>2026-04-05T16:35:50Z</time></trkpt><trkpt lat="43.883631951830246" lon="11.10843800632797"><ele>67.0</ele><time>2026-04-05T16:35:51Z</time></trkpt><trkpt lat="43.883735167067584" lon="11.108363855585754"><ele>67.0</ele><time>2026-04-05T16:35:52Z</time></trkpt><trkpt lat="43.883823778834945" lon="11.1083040669931"><ele>67.0</ele><time>2026-04-05T16:35:53Z</time></trkpt><trkpt lat="43.88390716602112" lon="11.10826083117653"><ele>67.0</ele><time>2026-04-05T16:35:54Z</time></trkpt><trkpt lat="43.883989590082145" lon="11.108209496909467"><ele>67.0</ele><time>2026-04-05T16:35:55Z</time></trkpt><trkpt lat="43.884073437509976" lon="11.108138128896842"><ele>67.0</ele><time>2026-04-05T16:35:56Z</time></trkpt><trkpt lat="43.88417506958813" lon="11.108073641518237"><ele>67.0</ele><time>2026-04-05T16:35:57Z</time></trkpt><trkpt lat="43.88428687835974" lon="11.107997340837146"><ele>67.0</ele><time>2026-04-05T16:35:58Z</time></trkpt><trkpt lat="43.88441583688772" lon="11.107909336908131"><ele>67.0</ele><time>2026-04-05T16:35:59Z</time></trkpt><trkpt lat="43.884559952514294" lon="11.10781137754471"><ele>67.0</ele><time>2026-04-05T16:36:00Z</time></trkpt><trkpt lat="43.88470912160077" lon="11.107711110193415"><ele>67.0</ele><time>2026-04-05T16:36:01Z</time></trkpt><trkpt lat="43.88485662251378" lon="11.107611962442434"><ele>67.0</ele><time>2026-04-05T16:36:02Z</time></trkpt><trkpt lat="43.88499171422352" lon="11.107521155944802"><ele>67.0</ele><time>2026-04-05T16:36:03Z</time></trkpt><trkpt lat="43.88512681486241" lon="11.107430343499995"><ele>67.0</ele><time>2026-04-05T16:36:04Z</time></trkpt><trkpt lat="43.8852493895305" lon="11.10734785084213"><ele>67.0</ele><time>2026-04-05T16:36:05Z</time></trkpt><trkpt lat="43.885364742657146" lon="11.10727015853537"><ele>66.8</ele><time>2026-04-05T16:36:06Z</time></trkpt><trkpt lat="43.885479898143366" lon="11.107192517179884"><ele>66.6</ele><time>2026-04-05T16:36:07Z</time></trkpt><trkpt lat="43.88558586646646" lon="11.107120129762151"><ele>66.39999999999999</ele><time>2026-04-05T16:36:08Z</time></trkpt><trkpt lat="43.88567847785044" lon="11.107058084385828"><ele>66.2</ele><time>2026-04-05T16:36:09Z</time></trkpt><trkpt lat="43.88575297142557" lon="11.106992662670725"><ele>66.0</ele><time>2026-04-05T16:36:10Z</time></trkpt><trkpt lat="43.88586563151497" lon="11.106930450810149"><ele>66.0</ele><time>2026-04-05T16:36:12Z</time></trkpt><trkpt lat="43.88592463688516" lon="11.106882341953545"><ele>66.0</ele><time>2026-04-05T16:36:14Z</time></trkpt><trkpt lat="43.88598841230953" lon="11.106840471424862"><ele>66.0</ele><time>2026-04-05T16:36:31Z</time></trkpt><trkpt lat="43.886101415212636" lon="11.10676888082719"><ele>66.0</ele><time>2026-04-05T16:36:33Z</time></trkpt><trkpt lat="43.88618560458656" lon="11.106715419479134"><ele>66.0</ele><time>2026-04-05T16:36:34Z</time></trkpt><trkpt lat="43.886267942776286" lon="11.10664941413232"><ele>66.2</ele><time>2026-04-05T16:36:35Z</time></trkpt><trkpt lat="43.88635044799829" lon="11.106583258288936"><ele>66.39999999999999</ele><time>2026-04-05T16:36:36Z</time></trkpt><trkpt lat="43.8864408658489" lon="11.10651305454419"><ele>66.6</ele><time>2026-04-05T16:36:37Z</time></trkpt><trkpt lat="43.88655035169385" lon="11.106455233324434"><ele>66.8</ele><time>2026-04-05T16:36:38Z</time></trkpt><trkpt lat="43.886668735362754" lon="11.10637127763138"><ele>67.0</ele><time>2026-04-05T16:36:39Z</time></trkpt><trkpt lat="43.88680246027108" lon="11.106275913965646"><ele>68.0</ele><time>2026-04-05T16:36:40Z</time></trkpt><trkpt lat="43.88693123415063" lon="11.106162597993592"><ele>69.0</ele><time>2026-04-05T16:36:41Z</time></trkpt><trkpt lat="43.88706586915569" lon="11.10607559059985"><ele>70.0</ele><time>2026-04-05T16:36:42Z</time></trkpt><trkpt lat="43.88720146114929" lon="11.10597938728934"><ele>70.0</ele><time>2026-04-05T16:36:43Z</time></trkpt><trkpt lat="43.887328813795435" lon="11.105887323122271"><ele>70.0</ele><time>2026-04-05T16:36:44Z</time></trkpt><trkpt lat="43.88744590826382" lon="11.105794625016989"><ele>70.0</ele><time>2026-04-05T16:36:45Z</time></trkpt><trkpt lat="43.88753898396064" lon="11.105710919078389"><ele>70.0</ele><time>2026-04-05T16:36:46Z</time></trkpt><trkpt lat="43.88761360665321" lon="11.10564172499557"><ele>69.2</ele><time>2026-04-05T16:36:47Z</time></trkpt><trkpt lat="43.88769278730602" lon="11.105584723870967"><ele>68.4</ele><time>2026-04-05T16:36:48Z</time></trkpt><trkpt lat="43.8877781021199" lon="11.105522728548348"><ele>67.6</ele><time>2026-04-05T16:36:49Z</time></trkpt><trkpt lat="43.88786924028504" lon="11.105445125091824"><ele>66.8</ele><time>2026-04-05T16:36:50Z</time></trkpt><trkpt lat="43.88797060724386" lon="11.105360557874363"><ele>66.0</ele><time>2026-04-05T16:36:51Z</time></trkpt><trkpt lat="43.888092660724745" lon="11.105295395999049"><ele>66.0</ele><time>2026-04-05T16:36:52Z</time></trkpt><trkpt lat="43.88821761755431" lon="11.105214286388636"><ele>66.0</ele><time>2026-04-05T16:36:53Z</time></trkpt><trkpt lat="43.888336692574825" lon="11.105119073866728"><ele>66.0</ele><time>2026-04-05T16:36:54Z</time></trkpt><trkpt lat="43.88843698544685" lon="11.105049067939891"><ele>66.0</ele><time>2026-04-05T16:36:55Z</time></trkpt><trkpt lat="43.888538155493315" lon="11.105015309705177"><ele>66.2</ele><time>2026-04-05T16:36:56Z</time></trkpt><trkpt lat="43.888632885788866" lon="11.105018812471968"><ele>66.39999999999999</ele><time>2026-04-05T16:36:57Z</time></trkpt><trkpt lat="43.888716010186954" lon="11.105034871395844"><ele>66.6</ele><time>2026-04-05T16:36:58Z</time></trkpt><trkpt lat="43.88880360568551" lon="11.105073444489548"><ele>66.8</ele><time>2026-04-05T16:36:59Z</time></trkpt><trkpt lat="43.88889681280066" lon="11.105119358840373"><ele>67.0</ele><time>2026-04-05T16:37:00Z</time></trkpt><trkpt lat="43.889000485426365" lon="11.105176015539719"><ele>67.0</ele><time>2026-04-05T16:37:01Z</time></trkpt><trkpt lat="43.8891165721267" lon="11.105222501749658"><ele>67.0</ele><time>2026-04-05T16:37:02Z</time></trkpt><trkpt lat="43.88923759600023" lon="11.105279951553085"><ele>67.0</ele><time>2026-04-05T16:37:03Z</time></trkpt><trkpt lat="43.88936319293563" lon="11.105337553140574"><ele>67.0</ele><time>2026-04-05T16:37:04Z</time></trkpt><trkpt lat="43.88949109487029" lon="11.105397443840218"><ele>67.6</ele><time>2026-04-05T16:37:05Z</time></trkpt><trkpt lat="43.88959735597386" lon="11.105462928729116"><ele>68.2</ele><time>2026-04-05T16:37:06Z</time></trkpt><trkpt lat="43.88968083678791" lon="11.105531900281388"><ele>68.8</ele><time>2026-04-05T16:37:07Z</time></trkpt><trkpt lat="43.88975919187753" lon="11.105575681569416"><ele>69.4</ele><time>2026-04-05T16:37:08Z</time></trkpt><trkpt lat="43.88984278938115" lon="11.105570186757383"><ele>70.0</ele><time>2026-04-05T16:37:09Z</time></trkpt><trkpt lat="43.88992156511697" lon="11.105520946060736"><ele>70.0</ele><time>2026-04-05T16:37:10Z</time></trkpt><trkpt lat="43.88998690711305" lon="11.105408563808226"><ele>70.0</ele><time>2026-04-05T16:37:11Z</time></trkpt><trkpt lat="43.8900497388766" lon="11.105272913998729"><ele>70.0</ele><time>2026-04-05T16:37:12Z</time></trkpt><trkpt lat="43.89011469203677" lon="11.105114729962311"><ele>70.0</ele><time>2026-04-05T16:37:13Z</time></trkpt><trkpt lat="43.890178685163676" lon="11.104964957356135"><ele>69.33333333333333</ele><time>2026-04-05T16:37:14Z</time></trkpt><trkpt lat="43.89023087927671" lon="11.104818207693572"><ele>68.66666666666666</ele><time>2026-04-05T16:37:15Z</time></trkpt><trkpt lat="43.89027311702054" lon="11.104696081592268"><ele>68.0</ele><time>2026-04-05T16:37:16Z</time></trkpt><trkpt lat="43.89030422797399" lon="11.104593519278675"><ele>67.33333333333333</ele><time>2026-04-05T16:37:17Z</time></trkpt><trkpt lat="43.89033194658055" lon="11.104504495574368"><ele>66.66666666666667</ele><time>2026-04-05T16:37:18Z</time></trkpt><trkpt lat="43.89035890528547" lon="11.104422850078524"><ele>66.0</ele><time>2026-04-05T16:37:19Z</time></trkpt><trkpt lat="43.89039321526561" lon="11.104320842076246"><ele>66.0</ele><time>2026-04-05T16:37:20Z</time></trkpt><trkpt lat="43.890428321826896" lon="11.104199505385342"><ele>66.0</ele><time>2026-04-05T16:37:21Z</time></trkpt><trkpt lat="43.890468883173284" lon="11.10406561739496"><ele>66.0</ele><time>2026-04-05T16:37:22Z</time></trkpt><trkpt lat="43.89051369509105" lon="11.103925224637443"><ele>66.0</ele><time>2026-04-05T16:37:23Z</time></trkpt><trkpt lat="43.89055986728253" lon="11.103780799379843"><ele>66.0</ele><time>2026-04-05T16:37:24Z</time></trkpt><trkpt lat="43.890600867982776" lon="11.103642083155759"><ele>66.16666666666667</ele><time>2026-04-05T16:37:25Z</time></trkpt><trkpt lat="43.89064249578026" lon="11.103508431864944"><ele>66.33333333333333</ele><time>2026-04-05T16:37:26Z</time></trkpt><trkpt lat="43.89068364198777" lon="11.10338210261889"><ele>66.5</ele><time>2026-04-05T16:37:27Z</time></trkpt><trkpt lat="43.89071544993798" lon="11.103283653569797"><ele>66.66666666666666</ele><time>2026-04-05T16:37:28Z</time></trkpt><trkpt lat="43.89074463492016" lon="11.103196263920669"><ele>66.83333333333333</ele><time>2026-04-05T16:37:29Z</time></trkpt><trkpt lat="43.890777977688394" lon="11.103080916056154"><ele>67.0</ele><time>2026-04-05T16:37:32Z</time></trkpt><trkpt lat="43.89081911566186" lon="11.10300402618863"><ele>67.83333333333333</ele><time>2026-04-05T16:37:34Z</time></trkpt><trkpt lat="43.89092901747604" lon="11.103024243935193"><ele>68.66666666666666</ele><time>2026-04-05T16:37:36Z</time></trkpt><trkpt lat="43.890999287278255" lon="11.10305785073653"><ele>69.5</ele><time>2026-04-05T16:37:37Z</time></trkpt><trkpt lat="43.89107892149713" lon="11.103095755791694"><ele>70.33333333333333</ele><time>2026-04-05T16:37:38Z</time></trkpt><trkpt lat="43.89116857661946" lon="11.103130476684013"><ele>71.16666666666667</ele><time>2026-04-05T16:37:39Z</time></trkpt><trkpt lat="43.89123145778936" lon="11.103168689857077"><ele>72.0</ele><time>2026-04-05T16:37:40Z</time></trkpt><trkpt lat="43.89132611060366" lon="11.103230578484617"><ele>72.4</ele><time>2026-04-05T16:37:42Z</time></trkpt><trkpt lat="43.89141523009456" lon="11.103272085905362"><ele>72.80000000000001</ele><time>2026-04-05T16:37:44Z</time></trkpt><trkpt lat="43.891489972445626" lon="11.103305927835592"><ele>73.2</ele><time>2026-04-05T16:37:47Z</time></trkpt><trkpt lat="43.89160090107652" lon="11.103354497326286"><ele>73.60000000000001</ele><time>2026-04-05T16:37:49Z</time></trkpt><trkpt lat="43.891674817548704" lon="11.103407646149606"><ele>74.0</ele><time>2026-04-05T16:37:50Z</time></trkpt><trkpt lat="43.891763596459505" lon="11.103459368291405"><ele>74.2</ele><time>2026-04-05T16:37:51Z</time></trkpt><trkpt lat="43.89185630056277" lon="11.103513377241379"><ele>74.4</ele><time>2026-04-05T16:37:52Z</time></trkpt><trkpt lat="43.891956686625434" lon="11.103556238327755"><ele>74.6</ele><time>2026-04-05T16:37:53Z</time></trkpt><trkpt lat="43.89206727262402" lon="11.103613287992426"><ele>74.8</ele><time>2026-04-05T16:37:54Z</time></trkpt><trkpt lat="43.892170244319544" lon="11.103680289903581"><ele>75.0</ele><time>2026-04-05T16:37:55Z</time></trkpt><trkpt lat="43.89227442487848" lon="11.103748180183592"><ele>75.0</ele><time>2026-04-05T16:37:56Z</time></trkpt><trkpt lat="43.892377640230514" lon="11.103817220099286"><ele>75.0</ele><time>2026-04-05T16:37:57Z</time></trkpt><trkpt lat="43.892500128354826" lon="11.103891813727069"><ele>75.0</ele><time>2026-04-05T16:37:58Z</time></trkpt><trkpt lat="43.892621842905534" lon="11.10394693012806"><ele>75.0</ele><time>2026-04-05T16:37:59Z</time></trkpt><trkpt lat="43.89272484089822" lon="11.103999858386748"><ele>75.0</ele><time>2026-04-05T16:38:00Z</time></trkpt><trkpt lat="43.89281559928269" lon="11.104073873412656"><ele>75.0</ele><time>2026-04-05T16:38:01Z</time></trkpt><trkpt lat="43.89290864995509" lon="11.104107696765448"><ele>75.0</ele><time>2026-04-05T16:38:02Z</time></trkpt><trkpt lat="43.89298162127941" lon="11.104152148363426"><ele>75.0</ele><time>2026-04-05T16:38:03Z</time></trkpt><trkpt lat="43.893049026046" lon="11.104196834613358"><ele>75.0</ele><time>2026-04-05T16:38:04Z</time></trkpt><trkpt lat="43.893115006580615" lon="11.10422997229037"><ele>75.0</ele><time>2026-04-05T16:38:05Z</time></trkpt><trkpt lat="43.893176953072526" lon="11.10427417762278"><ele>75.4</ele><time>2026-04-05T16:38:06Z</time></trkpt><trkpt lat="43.89328704144528" lon="11.104354206212959"><ele>75.8</ele><time>2026-04-05T16:38:08Z</time></trkpt><trkpt lat="43.893353516265485" lon="11.10437764506201"><ele>76.2</ele><time>2026-04-05T16:38:09Z</time></trkpt><trkpt lat="43.893429474289064" lon="11.104410080511785"><ele>76.6</ele><time>2026-04-05T16:38:10Z</time></trkpt><trkpt lat="43.89349902384144" lon="11.104474581535774"><ele>77.0</ele><time>2026-04-05T16:38:11Z</time></trkpt><trkpt lat="43.89358669345412" lon="11.104526341911672"><ele>77.0</ele><time>2026-04-05T16:38:12Z</time></trkpt><trkpt lat="43.89367823841575" lon="11.104580390195016"><ele>77.0</ele><time>2026-04-05T16:38:13Z</time></trkpt><trkpt lat="43.89377835922629" lon="11.104639501703547"><ele>77.0</ele><time>2026-04-05T16:38:14Z</time></trkpt><trkpt lat="43.89386480775563" lon="11.104690541099526"><ele>77.0</ele><time>2026-04-05T16:38:15Z</time></trkpt><trkpt lat="43.893936516418144" lon="11.104732878021318"><ele>77.0</ele><time>2026-04-05T16:38:16Z</time></trkpt><trkpt lat="43.89400455847483" lon="11.104773266319048"><ele>77.0</ele><time>2026-04-05T16:38:17Z</time></trkpt><trkpt lat="43.894075198180126" lon="11.104800594095343"><ele>77.0</ele><time>2026-04-05T16:38:18Z</time></trkpt><trkpt lat="43.894170380614995" lon="11.104861646175355"><ele>77.0</ele><time>2026-04-05T16:38:20Z</time></trkpt><trkpt lat="43.89424293131588" lon="11.104917753747873"><ele>77.0</ele><time>2026-04-05T16:38:23Z</time></trkpt><trkpt lat="43.89431000422176" lon="11.10495975267373"><ele>77.0</ele><time>2026-04-05T16:38:25Z</time></trkpt><trkpt lat="43.89438886987444" lon="11.10503064255431"><ele>77.0</ele><time>2026-04-05T16:38:27Z</time></trkpt><trkpt lat="43.89442049302538" lon="11.105111544020096"><ele>76.16666666666667</ele><time>2026-04-05T16:38:28Z</time></trkpt><trkpt lat="43.89449594159272" lon="11.1051632241126"><ele>75.33333333333334</ele><time>2026-04-05T16:38:29Z</time></trkpt><trkpt lat="43.89458930778312" lon="11.105157499742473"><ele>74.5</ele><time>2026-04-05T16:38:30Z</time></trkpt><trkpt lat="43.89466238066542" lon="11.10517170047573"><ele>73.66666666666667</ele><time>2026-04-05T16:38:31Z</time></trkpt><trkpt lat="43.89472948327548" lon="11.105181178062997"><ele>72.83333333333333</ele><time>2026-04-05T16:38:32Z</time></trkpt><trkpt lat="43.89479786111517" lon="11.105252181675041"><ele>72.0</ele><time>2026-04-05T16:38:33Z</time></trkpt><trkpt lat="43.894887077712774" lon="11.105308231800018"><ele>72.0</ele><time>2026-04-05T16:38:34Z</time></trkpt><trkpt lat="43.89499267104607" lon="11.10538957286749"><ele>72.0</ele><time>2026-04-05T16:38:35Z</time></trkpt><trkpt lat="43.895095243110234" lon="11.10547043438577"><ele>72.0</ele><time>2026-04-05T16:38:36Z</time></trkpt><trkpt lat="43.895209052839284" lon="11.105561482944049"><ele>72.0</ele><time>2026-04-05T16:38:37Z</time></trkpt><trkpt lat="43.89532127025739" lon="11.105667627992517"><ele>72.25</ele><time>2026-04-05T16:38:38Z</time></trkpt><trkpt lat="43.89543723304681" lon="11.105781689779182"><ele>72.5</ele><time>2026-04-05T16:38:39Z</time></trkpt><trkpt lat="43.89555808920905" lon="11.105906658416652"><ele>72.75</ele><time>2026-04-05T16:38:40Z</time></trkpt><trkpt lat="43.895673773620565" lon="11.106030294830573"><ele>73.0</ele><time>2026-04-05T16:38:41Z</time></trkpt><trkpt lat="43.895769758990475" lon="11.10613461024644"><ele>73.0</ele><time>2026-04-05T16:38:42Z</time></trkpt><trkpt lat="43.89585502084898" lon="11.106227755599749"><ele>73.0</ele><time>2026-04-05T16:38:43Z</time></trkpt><trkpt lat="43.895935588388554" lon="11.10631577260576"><ele>73.0</ele><time>2026-04-05T16:38:44Z</time></trkpt><trkpt lat="43.896007388106746" lon="11.106394211110912"><ele>73.0</ele><time>2026-04-05T16:38:45Z</time></trkpt><trkpt lat="43.896082125701824" lon="11.106451622462668"><ele>73.0</ele><time>2026-04-05T16:38:46Z</time></trkpt><trkpt lat="43.89613075286243" lon="11.10651739503913"><ele>73.75</ele><time>2026-04-05T16:38:47Z</time></trkpt><trkpt lat="43.89627800424111" lon="11.106674123685234"><ele>74.5</ele><time>2026-04-05T16:38:49Z</time></trkpt><trkpt lat="43.89636772122455" lon="11.106789509188824"><ele>75.25</ele><time>2026-04-05T16:38:50Z</time></trkpt><trkpt lat="43.89646389948667" lon="11.10689455655435"><ele>76.0</ele><time>2026-04-05T16:38:51Z</time></trkpt><trkpt lat="43.89656660450082" lon="11.107006732599325"><ele>76.0</ele><time>2026-04-05T16:38:52Z</time></trkpt><trkpt lat="43.8966760010717" lon="11.107112206167523"><ele>76.0</ele><time>2026-04-05T16:38:53Z</time></trkpt><trkpt lat="43.896791939912674" lon="11.107229607328243"><ele>76.0</ele><time>2026-04-05T16:38:54Z</time></trkpt><trkpt lat="43.89690078473873" lon="11.107350318601892"><ele>76.0</ele><time>2026-04-05T16:38:55Z</time></trkpt><trkpt lat="43.89700274798588" lon="11.10746408328601"><ele>76.6</ele><time>2026-04-05T16:38:56Z</time></trkpt><trkpt lat="43.89709312626025" lon="11.107567340389046"><ele>77.19999999999999</ele><time>2026-04-05T16:38:57Z</time></trkpt><trkpt lat="43.89715109556054" lon="11.107632646748819"><ele>77.80000000000001</ele><time>2026-04-05T16:38:58Z</time></trkpt><trkpt lat="43.897202734107765" lon="11.10769253302176"><ele>78.4</ele><time>2026-04-05T16:38:59Z</time></trkpt><trkpt lat="43.89725266970582" lon="11.107751010576138"><ele>79.0</ele><time>2026-04-05T16:39:00Z</time></trkpt><trkpt lat="43.89736068795362" lon="11.107856710719787"><ele>79.0</ele><time>2026-04-05T16:39:02Z</time></trkpt><trkpt lat="43.89741953804995" lon="11.107938716916232"><ele>79.0</ele><time>2026-04-05T16:39:03Z</time></trkpt><trkpt lat="43.89750686715294" lon="11.108034009447104"><ele>79.0</ele><time>2026-04-05T16:39:04Z</time></trkpt><trkpt lat="43.897604609299975" lon="11.108140664513833"><ele>79.0</ele><time>2026-04-05T16:39:05Z</time></trkpt><trkpt lat="43.897714911418625" lon="11.108244571368136"><ele>78.75</ele><time>2026-04-05T16:39:06Z</time></trkpt><trkpt lat="43.8978290989601" lon="11.108365433384874"><ele>78.5</ele><time>2026-04-05T16:39:07Z</time></trkpt><trkpt lat="43.89793563625593" lon="11.108483125170604"><ele>78.25</ele><time>2026-04-05T16:39:08Z</time></trkpt><trkpt lat="43.89802481875037" lon="11.108584315239133"><ele>78.0</ele><time>2026-04-05T16:39:09Z</time></trkpt><trkpt lat="43.89809561897842" lon="11.108665156225321"><ele>78.0</ele><time>2026-04-05T16:39:10Z</time></trkpt><trkpt lat="43.89816183894273" lon="11.108723002949787"><ele>78.0</ele><time>2026-04-05T16:39:11Z</time></trkpt><trkpt lat="43.89826064978119" lon="11.10881470206372"><ele>78.0</ele><time>2026-04-05T16:39:13Z</time></trkpt><trkpt lat="43.89835875161327" lon="11.108891051050492"><ele>78.0</ele><time>2026-04-05T16:39:15Z</time></trkpt><trkpt lat="43.89844672889013" lon="11.109015503591584"><ele>78.0</ele><time>2026-04-05T16:39:17Z</time></trkpt><trkpt lat="43.898531215128806" lon="11.109039338595366"><ele>77.8</ele><time>2026-04-05T16:39:18Z</time></trkpt><trkpt lat="43.898625884110324" lon="11.1090570944593"><ele>77.6</ele><time>2026-04-05T16:39:19Z</time></trkpt><trkpt lat="43.89873147356737" lon="11.109071427527667"><ele>77.4</ele><time>2026-04-05T16:39:20Z</time></trkpt><trkpt lat="43.89884044726656" lon="11.109077820521525"><ele>77.2</ele><time>2026-04-05T16:39:21Z</time></trkpt><trkpt lat="43.89896949887352" lon="11.109069295817779"><ele>77.0</ele><time>2026-04-05T16:39:22Z</time></trkpt><trkpt lat="43.89909463943756" lon="11.109089954061863"><ele>76.5</ele><time>2026-04-05T16:39:23Z</time></trkpt><trkpt lat="43.89921668303603" lon="11.109094961185823"><ele>76.0</ele><time>2026-04-05T16:39:24Z</time></trkpt><trkpt lat="43.899334811038464" lon="11.109099805852335"><ele>75.5</ele><time>2026-04-05T16:39:25Z</time></trkpt><trkpt lat="43.89945740575813" lon="11.109105249468726"><ele>75.0</ele><time>2026-04-05T16:39:26Z</time></trkpt><trkpt lat="43.899578823221155" lon="11.109110562005375"><ele>74.8</ele><time>2026-04-05T16:39:27Z</time></trkpt><trkpt lat="43.89970433978161" lon="11.109116053893123"><ele>74.6</ele><time>2026-04-05T16:39:28Z</time></trkpt><trkpt lat="43.89982554027891" lon="11.109121356934798"><ele>74.4</ele><time>2026-04-05T16:39:29Z</time></trkpt><trkpt lat="43.8999378038431" lon="11.109126268977697"><ele>74.2</ele><time>2026-04-05T16:39:30Z</time></trkpt><trkpt lat="43.90002441403128" lon="11.109129753920064"><ele>74.0</ele><time>2026-04-05T16:39:31Z</time></trkpt><trkpt lat="43.900111556885" lon="11.109133371376206"><ele>74.0</ele><time>2026-04-05T16:39:32Z</time></trkpt><trkpt lat="43.90019307658175" lon="11.109136755403213"><ele>74.0</ele><time>2026-04-05T16:39:33Z</time></trkpt><trkpt lat="43.90027053106679" lon="11.109103378532486"><ele>74.0</ele><time>2026-04-05T16:39:34Z</time></trkpt><trkpt lat="43.90034216694064" lon="11.109113160893212"><ele>74.0</ele><time>2026-04-05T16:39:35Z</time></trkpt><trkpt lat="43.90041426917359" lon="11.109112085685615"><ele>74.0</ele><time>2026-04-05T16:39:36Z</time></trkpt><trkpt lat="43.90048684452625" lon="11.109122151950974"><ele>74.0</ele><time>2026-04-05T16:39:37Z</time></trkpt><trkpt lat="43.900568414663375" lon="11.109127471595833"><ele>74.0</ele><time>2026-04-05T16:39:38Z</time></trkpt><trkpt lat="43.90064924717093" lon="11.109136379533766"><ele>74.0</ele><time>2026-04-05T16:39:39Z</time></trkpt><trkpt lat="43.9007282855043" lon="11.109149864960264"><ele>74.0</ele><time>2026-04-05T16:39:40Z</time></trkpt><trkpt lat="43.90080355603432" lon="11.109172709803966"><ele>74.0</ele><time>2026-04-05T16:39:41Z</time></trkpt><trkpt lat="43.90086747206107" lon="11.109204319919384"><ele>74.0</ele><time>2026-04-05T16:39:42Z</time></trkpt><trkpt lat="43.90092803136023" lon="11.10923829588799"><ele>74.0</ele><time>2026-04-05T16:39:43Z</time></trkpt><trkpt lat="43.90099051330383" lon="11.109280975602601"><ele>74.0</ele><time>2026-04-05T16:39:44Z</time></trkpt><trkpt lat="43.901057125115855" lon="11.109308191136138"><ele>74.0</ele><time>2026-04-05T16:39:45Z</time></trkpt><trkpt lat="43.90113693265111" lon="11.109288733123554"><ele>74.0</ele><time>2026-04-05T16:39:46Z</time></trkpt><trkpt lat="43.901225779332776" lon="11.109243681785346"><ele>74.0</ele><time>2026-04-05T16:39:47Z</time></trkpt><trkpt lat="43.90131276148344" lon="11.109207881930802"><ele>74.0</ele><time>2026-04-05T16:39:48Z</time></trkpt><trkpt lat="43.90140515775223" lon="11.10918397726306"><ele>74.0</ele><time>2026-04-05T16:39:49Z</time></trkpt><trkpt lat="43.901503549414066" lon="11.109180819493895"><ele>74.0</ele><time>2026-04-05T16:39:50Z</time></trkpt><trkpt lat="43.90160416794976" lon="11.109182105998322"><ele>74.0</ele><time>2026-04-05T16:39:51Z</time></trkpt><trkpt lat="43.90170989750423" lon="11.109185076325582"><ele>74.0</ele><time>2026-04-05T16:39:52Z</time></trkpt><trkpt lat="43.90181287885025" lon="11.109183136538574"><ele>74.0</ele><time>2026-04-05T16:39:53Z</time></trkpt><trkpt lat="43.90191765565124" lon="11.109181627841789"><ele>74.0</ele><time>2026-04-05T16:39:54Z</time></trkpt><trkpt lat="43.90202105023946" lon="11.109186128258623"><ele>74.2</ele><time>2026-04-05T16:39:55Z</time></trkpt><trkpt lat="43.9021244508067" lon="11.109199015007809"><ele>74.4</ele><time>2026-04-05T16:39:56Z</time></trkpt><trkpt lat="43.90222229186013" lon="11.109205532495693"><ele>74.6</ele><time>2026-04-05T16:39:57Z</time></trkpt><trkpt lat="43.902321459078564" lon="11.109209113442668"><ele>74.8</ele><time>2026-04-05T16:39:58Z</time></trkpt><trkpt lat="43.90241572900563" lon="11.10921704009942"><ele>75.0</ele><time>2026-04-05T16:39:59Z</time></trkpt><trkpt lat="43.90249523611707" lon="11.109222009612552"><ele>75.0</ele><time>2026-04-05T16:40:00Z</time></trkpt><trkpt lat="43.902569848852025" lon="11.10922777121698"><ele>75.0</ele><time>2026-04-05T16:40:01Z</time></trkpt><trkpt lat="43.90263741824282" lon="11.109232615365807"><ele>75.0</ele><time>2026-04-05T16:40:02Z</time></trkpt><trkpt lat="43.902758606049815" lon="11.109231053474604"><ele>75.0</ele><time>2026-04-05T16:40:04Z</time></trkpt><trkpt lat="43.90287230967833" lon="11.109235343598407"><ele>75.0</ele><time>2026-04-05T16:40:06Z</time></trkpt><trkpt lat="43.90299137181277" lon="11.109266972465822"><ele>75.0</ele><time>2026-04-05T16:40:08Z</time></trkpt><trkpt lat="43.903057356060195" lon="11.109292028846982"><ele>75.0</ele><time>2026-04-05T16:40:09Z</time></trkpt><trkpt lat="43.90312123687493" lon="11.10929457536331"><ele>75.0</ele><time>2026-04-05T16:40:10Z</time></trkpt><trkpt lat="43.9032324112804" lon="11.109268871541358"><ele>75.0</ele><time>2026-04-05T16:40:12Z</time></trkpt><trkpt lat="43.90336178695842" lon="11.109261283468262"><ele>75.0</ele><time>2026-04-05T16:40:14Z</time></trkpt><trkpt lat="43.90343464506234" lon="11.10926125483444"><ele>75.0</ele><time>2026-04-05T16:40:15Z</time></trkpt><trkpt lat="43.90351161063833" lon="11.109261993937398"><ele>75.42857142857142</ele><time>2026-04-05T16:40:16Z</time></trkpt><trkpt lat="43.90358064845425" lon="11.109265818194103"><ele>75.85714285714286</ele><time>2026-04-05T16:40:17Z</time></trkpt><trkpt lat="43.90364448926539" lon="11.10926725458087"><ele>76.28571428571428</ele><time>2026-04-05T16:40:18Z</time></trkpt><trkpt lat="43.90370942337288" lon="11.109267369826984"><ele>76.71428571428571</ele><time>2026-04-05T16:40:19Z</time></trkpt><trkpt lat="43.903780531532675" lon="11.10927341237852"><ele>77.14285714285714</ele><time>2026-04-05T16:40:20Z</time></trkpt><trkpt lat="43.90386131098448" lon="11.109279893717895"><ele>77.57142857142857</ele><time>2026-04-05T16:40:21Z</time></trkpt><trkpt lat="43.903947084010966" lon="11.109288125144339"><ele>78.0</ele><time>2026-04-05T16:40:22Z</time></trkpt><trkpt lat="43.90403668683247" lon="11.109292745367421"><ele>78.0</ele><time>2026-04-05T16:40:23Z</time></trkpt><trkpt lat="43.90412687669285" lon="11.10929679373993"><ele>78.0</ele><time>2026-04-05T16:40:24Z</time></trkpt><trkpt lat="43.90421930438393" lon="11.109296085825674"><ele>78.0</ele><time>2026-04-05T16:40:25Z</time></trkpt><trkpt lat="43.90430832120258" lon="11.109303532545592"><ele>78.0</ele><time>2026-04-05T16:40:26Z</time></trkpt><trkpt lat="43.90438337276794" lon="11.109304393109346"><ele>78.0</ele><time>2026-04-05T16:40:27Z</time></trkpt><trkpt lat="43.90444910070483" lon="11.109304852559292"><ele>78.0</ele><time>2026-04-05T16:40:28Z</time></trkpt><trkpt lat="43.90456237269757" lon="11.109298263635498"><ele>78.16666666666667</ele><time>2026-04-05T16:40:30Z</time></trkpt><trkpt lat="43.904655594895075" lon="11.109269290324512"><ele>78.33333333333333</ele><time>2026-04-05T16:40:32Z</time></trkpt><trkpt lat="43.904768680183615" lon="11.109257132104496"><ele>78.5</ele><time>2026-04-05T16:40:34Z</time></trkpt><trkpt lat="43.904828920436" lon="11.109283132045505"><ele>78.66666666666666</ele><time>2026-04-05T16:40:35Z</time></trkpt><trkpt lat="43.90490358441171" lon="11.109325788129714"><ele>78.83333333333333</ele><time>2026-04-05T16:40:36Z</time></trkpt><trkpt lat="43.90498602399751" lon="11.109387259086889"><ele>79.0</ele><time>2026-04-05T16:40:37Z</time></trkpt><trkpt lat="43.90507706974639" lon="11.109464816299147"><ele>79.0</ele><time>2026-04-05T16:40:38Z</time></trkpt><trkpt lat="43.90516667339648" lon="11.109565356487098"><ele>79.0</ele><time>2026-04-05T16:40:39Z</time></trkpt><trkpt lat="43.90522167145534" lon="11.109731634196315"><ele>79.0</ele><time>2026-04-05T16:40:40Z</time></trkpt><trkpt lat="43.905286899563684" lon="11.109882469453577"><ele>79.0</ele><time>2026-04-05T16:40:41Z</time></trkpt><trkpt lat="43.905344884735506" lon="11.110033219409324"><ele>79.25</ele><time>2026-04-05T16:40:42Z</time></trkpt><trkpt lat="43.905393399810094" lon="11.110184135458605"><ele>79.5</ele><time>2026-04-05T16:40:43Z</time></trkpt><trkpt lat="43.90546187289613" lon="11.110323704305804"><ele>79.75</ele><time>2026-04-05T16:40:44Z</time></trkpt><trkpt lat="43.90550000489247" lon="11.110465252705527"><ele>80.0</ele><time>2026-04-05T16:40:45Z</time></trkpt><trkpt lat="43.90553709972626" lon="11.110604353425591"><ele>80.2</ele><time>2026-04-05T16:40:46Z</time></trkpt><trkpt lat="43.90557386559397" lon="11.110742346017917"><ele>80.4</ele><time>2026-04-05T16:40:47Z</time></trkpt><trkpt lat="43.90560521287533" lon="11.110884116931286"><ele>80.6</ele><time>2026-04-05T16:40:48Z</time></trkpt><trkpt lat="43.90562955342877" lon="11.111031080583935"><ele>80.8</ele><time>2026-04-05T16:40:49Z</time></trkpt><trkpt lat="43.90565517731016" lon="11.111181031749004"><ele>81.0</ele><time>2026-04-05T16:40:50Z</time></trkpt><trkpt lat="43.905682692619926" lon="11.111335132285005"><ele>81.0</ele><time>2026-04-05T16:40:51Z</time></trkpt><trkpt lat="43.90571003303263" lon="11.111492172300702"><ele>81.0</ele><time>2026-04-05T16:40:52Z</time></trkpt><trkpt lat="43.90573755775249" lon="11.111651348066843"><ele>81.0</ele><time>2026-04-05T16:40:53Z</time></trkpt><trkpt lat="43.90575189581686" lon="11.111828584526465"><ele>81.0</ele><time>2026-04-05T16:40:54Z</time></trkpt><trkpt lat="43.90578034284969" lon="11.1119952422695"><ele>81.0</ele><time>2026-04-05T16:40:55Z</time></trkpt><trkpt lat="43.90580607337648" lon="11.112154080754541"><ele>81.0</ele><time>2026-04-05T16:40:56Z</time></trkpt><trkpt lat="43.90583169814953" lon="11.11230892186983"><ele>81.0</ele><time>2026-04-05T16:40:57Z</time></trkpt><trkpt lat="43.90587083907352" lon="11.11244602766133"><ele>81.0</ele><time>2026-04-05T16:40:58Z</time></trkpt><trkpt lat="43.90588284806756" lon="11.112574278549234"><ele>81.0</ele><time>2026-04-05T16:40:59Z</time></trkpt><trkpt lat="43.905901764607904" lon="11.112688400647531"><ele>81.16666666666667</ele><time>2026-04-05T16:41:00Z</time></trkpt><trkpt lat="43.905919598601805" lon="11.112786903727777"><ele>81.33333333333333</ele><time>2026-04-05T16:41:01Z</time></trkpt><trkpt lat="43.90594442774598" lon="11.112946016671112"><ele>81.5</ele><time>2026-04-05T16:41:03Z</time></trkpt><trkpt lat="43.90596801289463" lon="11.113042105807368"><ele>81.66666666666666</ele><time>2026-04-05T16:41:04Z</time></trkpt><trkpt lat="43.90600979957364" lon="11.113142872565724"><ele>81.83333333333333</ele><time>2026-04-05T16:41:05Z</time></trkpt><trkpt lat="43.90603472976773" lon="11.11326046315294"><ele>82.0</ele><time>2026-04-05T16:41:06Z</time></trkpt><trkpt lat="43.90606761112509" lon="11.113385641034213"><ele>82.5</ele><time>2026-04-05T16:41:07Z</time></trkpt><trkpt lat="43.906106804875705" lon="11.113526743137774"><ele>83.0</ele><time>2026-04-05T16:41:08Z</time></trkpt><trkpt lat="43.90614958816648" lon="11.113676848284744"><ele>83.5</ele><time>2026-04-05T16:41:09Z</time></trkpt><trkpt lat="43.90619602140057" lon="11.113855330878927"><ele>84.0</ele><time>2026-04-05T16:41:10Z</time></trkpt><trkpt lat="43.90625016298586" lon="11.114023336902203"><ele>84.0</ele><time>2026-04-05T16:41:11Z</time></trkpt><trkpt lat="43.9062929741579" lon="11.11420886822696"><ele>84.0</ele><time>2026-04-05T16:41:12Z</time></trkpt><trkpt lat="43.90634866016333" lon="11.114395478182619"><ele>84.0</ele><time>2026-04-05T16:41:13Z</time></trkpt><trkpt lat="43.90640897730066" lon="11.114573869509634"><ele>84.0</ele><time>2026-04-05T16:41:14Z</time></trkpt><trkpt lat="43.90647301781203" lon="11.11475745240161"><ele>83.66666666666667</ele><time>2026-04-05T16:41:15Z</time></trkpt><trkpt lat="43.90653573446072" lon="11.11494995393544"><ele>83.33333333333334</ele><time>2026-04-05T16:41:16Z</time></trkpt><trkpt lat="43.906600982727944" lon="11.115155339319488"><ele>83.0</ele><time>2026-04-05T16:41:17Z</time></trkpt><trkpt lat="43.906668028813925" lon="11.115350130170802"><ele>83.0</ele><time>2026-04-05T16:41:18Z</time></trkpt><trkpt lat="43.9067410380382" lon="11.115515364223551"><ele>83.0</ele><time>2026-04-05T16:41:19Z</time></trkpt><trkpt lat="43.906804088121554" lon="11.115667792003931"><ele>83.0</ele><time>2026-04-05T16:41:20Z</time></trkpt><trkpt lat="43.90688895893825" lon="11.115788261857864"><ele>83.0</ele><time>2026-04-05T16:41:21Z</time></trkpt><trkpt lat="43.90699206467386" lon="11.115891688903542"><ele>83.5</ele><time>2026-04-05T16:41:22Z</time></trkpt><trkpt lat="43.90711237793296" lon="11.115968245290354"><ele>84.0</ele><time>2026-04-05T16:41:23Z</time></trkpt><trkpt lat="43.90724076036131" lon="11.11601156206273"><ele>84.5</ele><time>2026-04-05T16:41:24Z</time></trkpt><trkpt lat="43.9073795667453" lon="11.115987681768477"><ele>85.0</ele><time>2026-04-05T16:41:25Z</time></trkpt><trkpt lat="43.907521132020484" lon="11.11593508288483"><ele>85.5</ele><time>2026-04-05T16:41:26Z</time></trkpt><trkpt lat="43.90766631208167" lon="11.115922590100215"><ele>86.0</ele><time>2026-04-05T16:41:27Z</time></trkpt><trkpt lat="43.90780128898925" lon="11.115880148341551"><ele>86.5</ele><time>2026-04-05T16:41:28Z</time></trkpt><trkpt lat="43.90792260853951" lon="11.115859254364613"><ele>87.0</ele><time>2026-04-05T16:41:29Z</time></trkpt><trkpt lat="43.908016744607664" lon="11.115824344351482"><ele>87.0</ele><time>2026-04-05T16:41:30Z</time></trkpt><trkpt lat="43.90810134707625" lon="11.115821557097133"><ele>87.0</ele><time>2026-04-05T16:41:31Z</time></trkpt><trkpt lat="43.90816914429152" lon="11.115844841162092"><ele>87.0</ele><time>2026-04-05T16:41:32Z</time></trkpt><trkpt lat="43.908243306586286" lon="11.115886499913508"><ele>87.0</ele><time>2026-04-05T16:41:35Z</time></trkpt><trkpt lat="43.90835576177648" lon="11.115939070517433"><ele>87.0</ele><time>2026-04-05T16:41:44Z</time></trkpt><trkpt lat="43.90839645894967" lon="11.11600987687655"><ele>87.0</ele><time>2026-04-05T16:41:45Z</time></trkpt><trkpt lat="43.90846607883771" lon="11.116077142578012"><ele>89.39999999999999</ele><time>2026-04-05T16:41:46Z</time></trkpt><trkpt lat="43.90854151623347" lon="11.116150971652662"><ele>91.8</ele><time>2026-04-05T16:41:47Z</time></trkpt><trkpt lat="43.90861170100544" lon="11.116219659792684"><ele>94.2</ele><time>2026-04-05T16:41:48Z</time></trkpt><trkpt lat="43.90869852289719" lon="11.116304630518083"><ele>96.6</ele><time>2026-04-05T16:41:49Z</time></trkpt><trkpt lat="43.908797405820685" lon="11.116401404764225"><ele>99.0</ele><time>2026-04-05T16:41:50Z</time></trkpt><trkpt lat="43.908904877986494" lon="11.116506583111082"><ele>97.0</ele><time>2026-04-05T16:41:51Z</time></trkpt><trkpt lat="43.909015701537136" lon="11.11661964656715"><ele>95.0</ele><time>2026-04-05T16:41:52Z</time></trkpt><trkpt lat="43.909125747650286" lon="11.116733616161662"><ele>93.0</ele><time>2026-04-05T16:41:53Z</time></trkpt><trkpt lat="43.90925701040194" lon="11.11682657190211"><ele>91.0</ele><time>2026-04-05T16:41:54Z</time></trkpt><trkpt lat="43.909377488079436" lon="11.11694548518665"><ele>97.0</ele><time>2026-04-05T16:41:55Z</time></trkpt><trkpt lat="43.909504463765415" lon="11.117065743845414"><ele>103.0</ele><time>2026-04-05T16:41:56Z</time></trkpt><trkpt lat="43.90962900155972" lon="11.117186421466942"><ele>109.0</ele><time>2026-04-05T16:41:57Z</time></trkpt><trkpt lat="43.90973509499989" lon="11.11732379543843"><ele>110.5</ele><time>2026-04-05T16:41:58Z</time></trkpt><trkpt lat="43.90985520585391" lon="11.117422266820034"><ele>112.0</ele><time>2026-04-05T16:41:59Z</time></trkpt><trkpt lat="43.909941122956305" lon="11.11755705273998"><ele>113.5</ele><time>2026-04-05T16:42:00Z</time></trkpt><trkpt lat="43.91002567803994" lon="11.11769139728282"><ele>115.0</ele><time>2026-04-05T16:42:01Z</time></trkpt><trkpt lat="43.91010231579283" lon="11.11782906736736"><ele>115.0</ele><time>2026-04-05T16:42:02Z</time></trkpt><trkpt lat="43.91017541276712" lon="11.117984077249664"><ele>115.0</ele><time>2026-04-05T16:42:03Z</time></trkpt><trkpt lat="43.91024457206937" lon="11.118142954835156"><ele>115.0</ele><time>2026-04-05T16:42:04Z</time></trkpt><trkpt lat="43.9103095729088" lon="11.118310980521747"><ele>115.0</ele><time>2026-04-05T16:42:05Z</time></trkpt><trkpt lat="43.91037180883675" lon="11.118502343970217"><ele>109.0</ele><time>2026-04-05T16:42:06Z</time></trkpt><trkpt lat="43.9104281533115" lon="11.118719382921691"><ele>103.0</ele><time>2026-04-05T16:42:07Z</time></trkpt><trkpt lat="43.91047700553291" lon="11.118936585027226"><ele>97.0</ele><time>2026-04-05T16:42:08Z</time></trkpt><trkpt lat="43.910529210022766" lon="11.1191308346456"><ele>95.25</ele><time>2026-04-05T16:42:09Z</time></trkpt><trkpt lat="43.910580899164565" lon="11.119302019180443"><ele>93.5</ele><time>2026-04-05T16:42:10Z</time></trkpt><trkpt lat="43.91063676378443" lon="11.119470340295276"><ele>91.75</ele><time>2026-04-05T16:42:11Z</time></trkpt><trkpt lat="43.91069662903078" lon="11.119644495568906"><ele>90.0</ele><time>2026-04-05T16:42:12Z</time></trkpt><trkpt lat="43.91076478383619" lon="11.119832146991138"><ele>90.0</ele><time>2026-04-05T16:42:13Z</time></trkpt><trkpt lat="43.91083632762257" lon="11.12002695297245"><ele>90.0</ele><time>2026-04-05T16:42:14Z</time></trkpt><trkpt lat="43.91091280906631" lon="11.120221802329677"><ele>90.0</ele><time>2026-04-05T16:42:15Z</time></trkpt><trkpt lat="43.91100096630705" lon="11.120410286065926"><ele>93.33333333333334</ele><time>2026-04-05T16:42:16Z</time></trkpt><trkpt lat="43.91111062610014" lon="11.120571976941383"><ele>96.66666666666667</ele><time>2026-04-05T16:42:17Z</time></trkpt><trkpt lat="43.91122330188225" lon="11.120731763097432"><ele>100.0</ele><time>2026-04-05T16:42:18Z</time></trkpt><trkpt lat="43.91134969939069" lon="11.120859293867275"><ele>100.0</ele><time>2026-04-05T16:42:19Z</time></trkpt><trkpt lat="43.91147931735629" lon="11.120967637037301"><ele>100.0</ele><time>2026-04-05T16:42:20Z</time></trkpt><trkpt lat="43.9115884229793" lon="11.121089360198805"><ele>100.0</ele><time>2026-04-05T16:42:21Z</time></trkpt><trkpt lat="43.91169600471387" lon="11.12118670439527"><ele>100.0</ele><time>2026-04-05T16:42:22Z</time></trkpt><trkpt lat="43.911789651553164" lon="11.121291739993639"><ele>103.5</ele><time>2026-04-05T16:42:23Z</time></trkpt><trkpt lat="43.91189337467087" lon="11.121376489199946"><ele>107.0</ele><time>2026-04-05T16:42:24Z</time></trkpt><trkpt lat="43.911964877166746" lon="11.121500025649505"><ele>110.5</ele><time>2026-04-05T16:42:25Z</time></trkpt><trkpt lat="43.91202773634862" lon="11.121625896667442"><ele>114.0</ele><time>2026-04-05T16:42:26Z</time></trkpt><trkpt lat="43.912090763936085" lon="11.121749655800283"><ele>114.0</ele><time>2026-04-05T16:42:27Z</time></trkpt><trkpt lat="43.912159266155385" lon="11.121872022934616"><ele>114.0</ele><time>2026-04-05T16:42:28Z</time></trkpt><trkpt lat="43.91220884399683" lon="11.12201257386555"><ele>114.0</ele><time>2026-04-05T16:42:29Z</time></trkpt><trkpt lat="43.91227499758968" lon="11.122141989984872"><ele>114.0</ele><time>2026-04-05T16:42:30Z</time></trkpt><trkpt lat="43.91234257107843" lon="11.122274184111214"><ele>110.5</ele><time>2026-04-05T16:42:31Z</time></trkpt><trkpt lat="43.912414316016445" lon="11.122414867043949"><ele>107.0</ele><time>2026-04-05T16:42:32Z</time></trkpt><trkpt lat="43.912491967053434" lon="11.122566126125427"><ele>103.5</ele><time>2026-04-05T16:42:33Z</time></trkpt><trkpt lat="43.912580663820954" lon="11.122736616475764"><ele>100.0</ele><time>2026-04-05T16:42:34Z</time></trkpt><trkpt lat="43.912674093499504" lon="11.122914914938782"><ele>107.0</ele><time>2026-04-05T16:42:35Z</time></trkpt><trkpt lat="43.91277218323031" lon="11.1231021063649"><ele>114.0</ele><time>2026-04-05T16:42:36Z</time></trkpt><trkpt lat="43.91286804127697" lon="11.123284274392663"><ele>121.0</ele><time>2026-04-05T16:42:37Z</time></trkpt><trkpt lat="43.91295669127898" lon="11.123452402281963"><ele>121.0</ele><time>2026-04-05T16:42:38Z</time></trkpt><trkpt lat="43.91306570802074" lon="11.123586027288724"><ele>121.0</ele><time>2026-04-05T16:42:39Z</time></trkpt><trkpt lat="43.91314888082677" lon="11.123743108969176"><ele>121.0</ele><time>2026-04-05T16:42:40Z</time></trkpt><trkpt lat="43.91324128712215" lon="11.123909751553976"><ele>121.0</ele><time>2026-04-05T16:42:41Z</time></trkpt><trkpt lat="43.91334142751616" lon="11.124072293590398"><ele>126.66666666666667</ele><time>2026-04-05T16:42:42Z</time></trkpt><trkpt lat="43.91344868723211" lon="11.124229108719215"><ele>132.33333333333334</ele><time>2026-04-05T16:42:43Z</time></trkpt><trkpt lat="43.913563261500336" lon="11.124379142209632"><ele>138.0</ele><time>2026-04-05T16:42:44Z</time></trkpt><trkpt lat="43.91367978660758" lon="11.124528966264085"><ele>138.0</ele><time>2026-04-05T16:42:45Z</time></trkpt><trkpt lat="43.91380438699736" lon="11.124694047825974"><ele>138.0</ele><time>2026-04-05T16:42:46Z</time></trkpt><trkpt lat="43.91393772033387" lon="11.124801446688167"><ele>138.0</ele><time>2026-04-05T16:42:47Z</time></trkpt><trkpt lat="43.91407401741807" lon="11.124881122869493"><ele>130.0</ele><time>2026-04-05T16:42:48Z</time></trkpt><trkpt lat="43.914208729860576" lon="11.12493027687881"><ele>122.0</ele><time>2026-04-05T16:42:49Z</time></trkpt><trkpt lat="43.91435365382417" lon="11.124978844375766"><ele>114.0</ele><time>2026-04-05T16:42:50.075Z</time></trkpt><trkpt lat="43.914409159641146" lon="11.125468390831994"><ele>113.75</ele><time>2026-04-05T16:42:51.055Z</time></trkpt><trkpt lat="43.91451590813634" lon="11.125575106311448"><ele>113.5</ele><time>2026-04-05T16:42:52Z</time></trkpt><trkpt lat="43.91460161357506" lon="11.12568226270075"><ele>113.25</ele><time>2026-04-05T16:42:53Z</time></trkpt><trkpt lat="43.914751482749864" lon="11.125724294914908"><ele>113.0</ele><time>2026-04-05T16:42:54Z</time></trkpt><trkpt lat="43.91497251856697" lon="11.1250673488934"><ele>114.0</ele><time>2026-04-05T16:42:55Z</time></trkpt><trkpt lat="43.91518653877522" lon="11.125085103757009"><ele>115.0</ele><time>2026-04-05T16:42:56Z</time></trkpt><trkpt lat="43.91563109723492" lon="11.12512227054606"><ele>115.0</ele><time>2026-04-05T16:42:58Z</time></trkpt><trkpt lat="43.91581336287548" lon="11.125138577713063"><ele>115.0</ele><time>2026-04-05T16:42:59Z</time></trkpt><trkpt lat="43.91596897252816" lon="11.125153286079671"><ele>115.0</ele><time>2026-04-05T16:43:00Z</time></trkpt><trkpt lat="43.916148338989686" lon="11.125176525297475"><ele>116.0</ele><time>2026-04-05T16:43:01Z</time></trkpt><trkpt lat="43.91632138627195" lon="11.125208706082747"><ele>117.0</ele><time>2026-04-05T16:43:02Z</time></trkpt><trkpt lat="43.91651518677149" lon="11.125258118052317"><ele>118.0</ele><time>2026-04-05T16:43:03Z</time></trkpt><trkpt lat="43.9167007406426" lon="11.12532693978602"><ele>122.0</ele><time>2026-04-05T16:43:04Z</time></trkpt><trkpt lat="43.91688324768287" lon="11.125407764783636"><ele>126.0</ele><time>2026-04-05T16:43:05Z</time></trkpt><trkpt lat="43.917057229458806" lon="11.125496835610472"><ele>130.0</ele><time>2026-04-05T16:43:06Z</time></trkpt><trkpt lat="43.91723345451297" lon="11.125589964192924"><ele>130.0</ele><time>2026-04-05T16:43:07Z</time></trkpt><trkpt lat="43.917400927346826" lon="11.125687975340307"><ele>130.0</ele><time>2026-04-05T16:43:08Z</time></trkpt><trkpt lat="43.91757783412948" lon="11.125761238942637"><ele>130.0</ele><time>2026-04-05T16:43:09Z</time></trkpt><trkpt lat="43.91775480704053" lon="11.12584820521927"><ele>127.33333333333334</ele><time>2026-04-05T16:43:10Z</time></trkpt><trkpt lat="43.91792853617056" lon="11.125923057750486"><ele>124.66666666666666</ele><time>2026-04-05T16:43:11Z</time></trkpt><trkpt lat="43.91809651481666" lon="11.125996747556124"><ele>122.0</ele><time>2026-04-05T16:43:12Z</time></trkpt><trkpt lat="43.91825508276549" lon="11.126051786107949"><ele>126.33333333333333</ele><time>2026-04-05T16:43:13Z</time></trkpt><trkpt lat="43.91842110170331" lon="11.126109438801867"><ele>130.66666666666666</ele><time>2026-04-05T16:43:14Z</time></trkpt><trkpt lat="43.918577403279045" lon="11.12617535520074"><ele>135.0</ele><time>2026-04-05T16:43:15Z</time></trkpt><trkpt lat="43.918736216018644" lon="11.126234565896622"><ele>135.0</ele><time>2026-04-05T16:43:16Z</time></trkpt><trkpt lat="43.918896800952965" lon="11.12629256976822"><ele>135.0</ele><time>2026-04-05T16:43:17Z</time></trkpt><trkpt lat="43.91906085311097" lon="11.126348603319913"><ele>135.0</ele><time>2026-04-05T16:43:18Z</time></trkpt><trkpt lat="43.91921885804832" lon="11.126403099866677"><ele>132.75</ele><time>2026-04-05T16:43:19Z</time></trkpt><trkpt lat="43.91936974941851" lon="11.126453136413046"><ele>130.5</ele><time>2026-04-05T16:43:20Z</time></trkpt><trkpt lat="43.91951169894986" lon="11.126489118691177"><ele>128.25</ele><time>2026-04-05T16:43:21Z</time></trkpt><trkpt lat="43.91965702899561" lon="11.12650180468537"><ele>126.0</ele><time>2026-04-05T16:43:22Z</time></trkpt><trkpt lat="43.91980120218289" lon="11.126500129451163"><ele>126.0</ele><time>2026-04-05T16:43:23Z</time></trkpt><trkpt lat="43.919945740358486" lon="11.126469178609101"><ele>126.0</ele><time>2026-04-05T16:43:24Z</time></trkpt><trkpt lat="43.92008168774933" lon="11.126405966330603"><ele>126.0</ele><time>2026-04-05T16:43:25Z</time></trkpt><trkpt lat="43.920208265177855" lon="11.12633307669692"><ele>126.0</ele><time>2026-04-05T16:43:26Z</time></trkpt><trkpt lat="43.92031845012119" lon="11.126257242744584"><ele>124.0</ele><time>2026-04-05T16:43:27Z</time></trkpt><trkpt lat="43.92042896843554" lon="11.12618152921786"><ele>122.0</ele><time>2026-04-05T16:43:28Z</time></trkpt><trkpt lat="43.92054213678432" lon="11.126119089790055"><ele>120.0</ele><time>2026-04-05T16:43:29Z</time></trkpt><trkpt lat="43.920663807108326" lon="11.126060873578492"><ele>118.0</ele><time>2026-04-05T16:43:30Z</time></trkpt><trkpt lat="43.920785289385314" lon="11.126008672518257"><ele>118.0</ele><time>2026-04-05T16:43:31Z</time></trkpt><trkpt lat="43.92089786695635" lon="11.125968205910803"><ele>118.0</ele><time>2026-04-05T16:43:32Z</time></trkpt><trkpt lat="43.92104465760071" lon="11.125969133663569"><ele>118.0</ele><time>2026-04-05T16:43:33Z</time></trkpt><trkpt lat="43.921163506464524" lon="11.125985922613927"><ele>118.0</ele><time>2026-04-05T16:43:34Z</time></trkpt><trkpt lat="43.92127225704869" lon="11.126011211913054"><ele>119.4</ele><time>2026-04-05T16:43:35Z</time></trkpt><trkpt lat="43.9213660014839" lon="11.126039584636725"><ele>120.80000000000001</ele><time>2026-04-05T16:43:36Z</time></trkpt><trkpt lat="43.92143945332715" lon="11.126061250563266"><ele>122.2</ele><time>2026-04-05T16:43:37Z</time></trkpt><trkpt lat="43.921560890837895" lon="11.126076674179336"><ele>123.6</ele><time>2026-04-05T16:43:39Z</time></trkpt><trkpt lat="43.921602091718114" lon="11.126159300306423"><ele>125.0</ele><time>2026-04-05T16:43:41Z</time></trkpt><trkpt lat="43.921672602612" lon="11.12637124089452"><ele>128.4</ele><time>2026-04-05T16:43:45Z</time></trkpt><trkpt lat="43.92174551565468" lon="11.126381601892465"><ele>131.8</ele><time>2026-04-05T16:43:46Z</time></trkpt><trkpt lat="43.92183571858354" lon="11.12639254990486"><ele>135.2</ele><time>2026-04-05T16:43:47Z</time></trkpt><trkpt lat="43.92194031966458" lon="11.126414493198395"><ele>138.6</ele><time>2026-04-05T16:43:48Z</time></trkpt><trkpt lat="43.922061717063855" lon="11.12644642391466"><ele>142.0</ele><time>2026-04-05T16:43:49Z</time></trkpt><trkpt lat="43.92217626734501" lon="11.126484772131533"><ele>142.0</ele><time>2026-04-05T16:43:50Z</time></trkpt><trkpt lat="43.922300418077135" lon="11.126516788360767"><ele>142.0</ele><time>2026-04-05T16:43:51Z</time></trkpt><trkpt lat="43.922429217134535" lon="11.126552384554703"><ele>142.0</ele><time>2026-04-05T16:43:52Z</time></trkpt><trkpt lat="43.92254436940496" lon="11.126610740716336"><ele>142.0</ele><time>2026-04-05T16:43:53Z</time></trkpt><trkpt lat="43.922653081327034" lon="11.126653193110506"><ele>136.6</ele><time>2026-04-05T16:43:54Z</time></trkpt><trkpt lat="43.92272912539938" lon="11.126688248955404"><ele>131.2</ele><time>2026-04-05T16:43:55Z</time></trkpt><trkpt lat="43.92281713941588" lon="11.126672265129368"><ele>125.8</ele><time>2026-04-05T16:43:56Z</time></trkpt><trkpt lat="43.92290175192854" lon="11.12679937018492"><ele>120.4</ele><time>2026-04-05T16:43:58Z</time></trkpt><trkpt lat="43.9229117140983" lon="11.12690129779482"><ele>115.0</ele><time>2026-04-05T16:43:59Z</time></trkpt><trkpt lat="43.922880340745486" lon="11.127024672455574"><ele>115.0</ele><time>2026-04-05T16:44:00Z</time></trkpt><trkpt lat="43.92288751322637" lon="11.127149236032311"><ele>115.0</ele><time>2026-04-05T16:44:01Z</time></trkpt><trkpt lat="43.92289516278337" lon="11.127293053619905"><ele>115.0</ele><time>2026-04-05T16:44:02Z</time></trkpt><trkpt lat="43.92289044667732" lon="11.12744546825546"><ele>115.0</ele><time>2026-04-05T16:44:03Z</time></trkpt><trkpt lat="43.92287759109648" lon="11.127615941602388"><ele>115.0</ele><time>2026-04-05T16:44:04Z</time></trkpt><trkpt lat="43.92285879702386" lon="11.127768558193557"><ele>114.6</ele><time>2026-04-05T16:44:05Z</time></trkpt><trkpt lat="43.92282930063444" lon="11.127906421695931"><ele>114.2</ele><time>2026-04-05T16:44:06Z</time></trkpt><trkpt lat="43.92281306372742" lon="11.128049627417456"><ele>113.80000000000001</ele><time>2026-04-05T16:44:07Z</time></trkpt><trkpt lat="43.922802831481725" lon="11.128174685614958"><ele>113.4</ele><time>2026-04-05T16:44:08Z</time></trkpt><trkpt lat="43.92279712748336" lon="11.128268334072722"><ele>113.0</ele><time>2026-04-05T16:44:09Z</time></trkpt><trkpt lat="43.92278398646817" lon="11.128407146089627"><ele>113.0</ele><time>2026-04-05T16:44:11Z</time></trkpt><trkpt lat="43.92260620839984" lon="11.128371637907774"><ele>113.0</ele><time>2026-04-05T16:44:14Z</time></trkpt><trkpt lat="43.922524946780825" lon="11.128347220395298"><ele>113.0</ele><time>2026-04-05T16:44:15Z</time></trkpt><trkpt lat="43.92242708009934" lon="11.128293759320275"><ele>113.0</ele><time>2026-04-05T16:44:16Z</time></trkpt><trkpt lat="43.922343951785194" lon="11.128259938307778"><ele>113.4</ele><time>2026-04-05T16:44:17Z</time></trkpt><trkpt lat="43.92224749996332" lon="11.128226910364853"><ele>113.80000000000001</ele><time>2026-04-05T16:44:18Z</time></trkpt><trkpt lat="43.922124286382726" lon="11.128356880455799"><ele>114.2</ele><time>2026-04-05T16:44:19Z</time></trkpt><trkpt lat="43.922025651161924" lon="11.128329003509457"><ele>114.6</ele><time>2026-04-05T16:44:20Z</time></trkpt><trkpt lat="43.92195480517991" lon="11.128307591047912"><ele>115.0</ele><time>2026-04-05T16:44:21Z</time></trkpt><trkpt lat="43.921859114991896" lon="11.128348945043536"><ele>115.0</ele><time>2026-04-05T16:44:23Z</time></trkpt><trkpt lat="43.92183167421732" lon="11.128512219528229"><ele>115.0</ele><time>2026-04-05T16:44:25Z</time></trkpt><trkpt lat="43.92192233420438" lon="11.128576026440628"><ele>115.0</ele><time>2026-04-05T16:44:26Z</time></trkpt><trkpt lat="43.92200568074138" lon="11.128627406538575"><ele>115.0</ele><time>2026-04-05T16:44:27Z</time></trkpt><trkpt lat="43.92210009018742" lon="11.128693034953438"><ele>115.0</ele><time>2026-04-05T16:44:28Z</time></trkpt><trkpt lat="43.922197105185035" lon="11.128767049596448"><ele>115.0</ele><time>2026-04-05T16:44:29Z</time></trkpt><trkpt lat="43.92229650532016" lon="11.12886029788265"><ele>115.0</ele><time>2026-04-05T16:44:30Z</time></trkpt><trkpt lat="43.92240963051666" lon="11.12895056075695"><ele>115.0</ele><time>2026-04-05T16:44:31Z</time></trkpt><trkpt lat="43.9225126624459" lon="11.129034896509125"><ele>115.0</ele><time>2026-04-05T16:44:32Z</time></trkpt><trkpt lat="43.92261412476047" lon="11.129140086649967"><ele>118.0</ele><time>2026-04-05T16:44:33Z</time></trkpt><trkpt lat="43.92272486873574" lon="11.129237617968904"><ele>121.0</ele><time>2026-04-05T16:44:34Z</time></trkpt><trkpt lat="43.92284657404275" lon="11.129344192360088"><ele>124.0</ele><time>2026-04-05T16:44:35Z</time></trkpt><trkpt lat="43.92297044603403" lon="11.12945458476697"><ele>127.0</ele><time>2026-04-05T16:44:36Z</time></trkpt><trkpt lat="43.92310986926561" lon="11.12955430600994"><ele>127.0</ele><time>2026-04-05T16:44:37Z</time></trkpt><trkpt lat="43.92323460707954" lon="11.12967281374107"><ele>127.0</ele><time>2026-04-05T16:44:38Z</time></trkpt><trkpt lat="43.92335048348894" lon="11.129803315370774"><ele>127.0</ele><time>2026-04-05T16:44:39Z</time></trkpt><trkpt lat="43.92346517320481" lon="11.129917494816583"><ele>127.0</ele><time>2026-04-05T16:44:40Z</time></trkpt><trkpt lat="43.92359555227664" lon="11.13000119100497"><ele>131.0</ele><time>2026-04-05T16:44:41Z</time></trkpt><trkpt lat="43.92370878493206" lon="11.130091959792344"><ele>135.0</ele><time>2026-04-05T16:44:42Z</time></trkpt><trkpt lat="43.92382316921247" lon="11.130190491500045"><ele>139.0</ele><time>2026-04-05T16:44:43Z</time></trkpt><trkpt lat="43.923950888727134" lon="11.13024706895759"><ele>143.0</ele><time>2026-04-05T16:44:44Z</time></trkpt><trkpt lat="43.9240663441417" lon="11.130332141115518"><ele>143.0</ele><time>2026-04-05T16:44:45Z</time></trkpt><trkpt lat="43.924183324236765" lon="11.130402829016358"><ele>143.0</ele><time>2026-04-05T16:44:46Z</time></trkpt><trkpt lat="43.9242972818804" lon="11.130491836837413"><ele>143.0</ele><time>2026-04-05T16:44:47Z</time></trkpt><trkpt lat="43.924398736602804" lon="11.130602648024459"><ele>143.0</ele><time>2026-04-05T16:44:48Z</time></trkpt><trkpt lat="43.92450023260075" lon="11.130726172703081"><ele>145.0</ele><time>2026-04-05T16:44:49Z</time></trkpt><trkpt lat="43.92460238425782" lon="11.130850817129845"><ele>147.0</ele><time>2026-04-05T16:44:50Z</time></trkpt><trkpt lat="43.92468258162722" lon="11.130991932313641"><ele>149.0</ele><time>2026-04-05T16:44:51Z</time></trkpt><trkpt lat="43.92475934486545" lon="11.131102603145516"><ele>151.0</ele><time>2026-04-05T16:44:52Z</time></trkpt><trkpt lat="43.92482304225796" lon="11.131192640031173"><ele>151.0</ele><time>2026-04-05T16:44:53Z</time></trkpt><trkpt lat="43.92490607583224" lon="11.131255385148862"><ele>151.0</ele><time>2026-04-05T16:44:54Z</time></trkpt><trkpt lat="43.92500809422861" lon="11.131307762516736"><ele>151.0</ele><time>2026-04-05T16:44:55Z</time></trkpt><trkpt lat="43.92511998261534" lon="11.131341650660795"><ele>151.0</ele><time>2026-04-05T16:44:56Z</time></trkpt><trkpt lat="43.92524550614879" lon="11.13135893990095"><ele>151.0</ele><time>2026-04-05T16:44:57Z</time></trkpt><trkpt lat="43.925371864135506" lon="11.131362502706324"><ele>151.0</ele><time>2026-04-05T16:44:58Z</time></trkpt><trkpt lat="43.92550303321402" lon="11.13133005529352"><ele>151.0</ele><time>2026-04-05T16:44:59Z</time></trkpt><trkpt lat="43.925643539832194" lon="11.131293440972293"><ele>151.0</ele><time>2026-04-05T16:45:00Z</time></trkpt><trkpt lat="43.925792467796455" lon="11.131246961562105"><ele>151.0</ele><time>2026-04-05T16:45:01Z</time></trkpt><trkpt lat="43.925960556305895" lon="11.131207834111695"><ele>155.33333333333334</ele><time>2026-04-05T16:45:02Z</time></trkpt><trkpt lat="43.92612565271312" lon="11.131146905659756"><ele>159.66666666666666</ele><time>2026-04-05T16:45:03Z</time></trkpt><trkpt lat="43.926299514339945" lon="11.131098362921797"><ele>164.0</ele><time>2026-04-05T16:45:04Z</time></trkpt><trkpt lat="43.92647120343649" lon="11.131041282139755"><ele>164.0</ele><time>2026-04-05T16:45:05Z</time></trkpt><trkpt lat="43.92664239684101" lon="11.130993859816515"><ele>164.0</ele><time>2026-04-05T16:45:06Z</time></trkpt><trkpt lat="43.926810583505016" lon="11.13101513734293"><ele>164.0</ele><time>2026-04-05T16:45:07Z</time></trkpt><trkpt lat="43.92697646087347" lon="11.131002338087391"><ele>166.66666666666666</ele><time>2026-04-05T16:45:08Z</time></trkpt><trkpt lat="43.92713076779541" lon="11.130958206052192"><ele>169.33333333333334</ele><time>2026-04-05T16:45:09Z</time></trkpt><trkpt lat="43.927280583077824" lon="11.130913995809584"><ele>172.0</ele><time>2026-04-05T16:45:10Z</time></trkpt><trkpt lat="43.92742258957344" lon="11.130852835818771"><ele>172.0</ele><time>2026-04-05T16:45:11Z</time></trkpt><trkpt lat="43.927556672514015" lon="11.130793036667196"><ele>172.0</ele><time>2026-04-05T16:45:12Z</time></trkpt><trkpt lat="43.927683723002325" lon="11.130807719002105"><ele>172.0</ele><time>2026-04-05T16:45:13Z</time></trkpt><trkpt lat="43.927805591652756" lon="11.130846231252317"><ele>172.0</ele><time>2026-04-05T16:45:14Z</time></trkpt><trkpt lat="43.927924012757416" lon="11.130934168256019"><ele>173.75</ele><time>2026-04-05T16:45:15Z</time></trkpt><trkpt lat="43.92803608256805" lon="11.131044822498326"><ele>175.5</ele><time>2026-04-05T16:45:16Z</time></trkpt><trkpt lat="43.928128508996345" lon="11.131180239699686"><ele>177.25</ele><time>2026-04-05T16:45:17Z</time></trkpt><trkpt lat="43.92818975477734" lon="11.131335803293508"><ele>179.0</ele><time>2026-04-05T16:45:18Z</time></trkpt><trkpt lat="43.92824191202944" lon="11.131512647207826"><ele>182.75</ele><time>2026-04-05T16:45:19Z</time></trkpt><trkpt lat="43.92829868665847" lon="11.131710284840807"><ele>186.5</ele><time>2026-04-05T16:45:20Z</time></trkpt><trkpt lat="43.92833899439959" lon="11.131898495372392"><ele>190.25</ele><time>2026-04-05T16:45:21Z</time></trkpt><trkpt lat="43.928368234905804" lon="11.132070730623328"><ele>194.0</ele><time>2026-04-05T16:45:22Z</time></trkpt><trkpt lat="43.92837236708597" lon="11.132225933273904"><ele>194.0</ele><time>2026-04-05T16:45:23Z</time></trkpt><trkpt lat="43.92833770954813" lon="11.132378681282706"><ele>194.0</ele><time>2026-04-05T16:45:24Z</time></trkpt><trkpt lat="43.92827545664111" lon="11.132537738695671"><ele>194.0</ele><time>2026-04-05T16:45:25Z</time></trkpt><trkpt lat="43.92819177347616" lon="11.132696694177023"><ele>194.0</ele><time>2026-04-05T16:45:26Z</time></trkpt><trkpt lat="43.92810524246885" lon="11.132855826673312"><ele>195.25</ele><time>2026-04-05T16:45:27Z</time></trkpt><trkpt lat="43.9280116299762" lon="11.132997866578394"><ele>196.5</ele><time>2026-04-05T16:45:28Z</time></trkpt><trkpt lat="43.92792378157065" lon="11.133117072889778"><ele>197.75</ele><time>2026-04-05T16:45:29Z</time></trkpt><trkpt lat="43.927839960315545" lon="11.133205758466328"><ele>199.0</ele><time>2026-04-05T16:45:30Z</time></trkpt><trkpt lat="43.92773793395192" lon="11.133210014965076"><ele>201.0</ele><time>2026-04-05T16:45:31Z</time></trkpt><trkpt lat="43.92762458157472" lon="11.133249530202864"><ele>203.0</ele><time>2026-04-05T16:45:32Z</time></trkpt><trkpt lat="43.927493441301465" lon="11.133268545392268"><ele>205.0</ele><time>2026-04-05T16:45:33Z</time></trkpt><trkpt lat="43.927355311838724" lon="11.133283533572568"><ele>207.0</ele><time>2026-04-05T16:45:34Z</time></trkpt><trkpt lat="43.927211146351496" lon="11.133286119034262"><ele>211.5</ele><time>2026-04-05T16:45:35Z</time></trkpt><trkpt lat="43.92707428691174" lon="11.133291385437152"><ele>216.0</ele><time>2026-04-05T16:45:36Z</time></trkpt><trkpt lat="43.92695690086564" lon="11.133321457309961"><ele>220.5</ele><time>2026-04-05T16:45:37Z</time></trkpt><trkpt lat="43.926858152907485" lon="11.133393778087404"><ele>225.0</ele><time>2026-04-05T16:45:38Z</time></trkpt><trkpt lat="43.92677643275521" lon="11.133497944886592"><ele>225.0</ele><time>2026-04-05T16:45:39Z</time></trkpt><trkpt lat="43.92671932790745" lon="11.133626017137304"><ele>225.0</ele><time>2026-04-05T16:45:40Z</time></trkpt><trkpt lat="43.92668297311774" lon="11.133706597430175"><ele>225.0</ele><time>2026-04-05T16:45:41Z</time></trkpt><trkpt lat="43.926732868330845" lon="11.133843712554386"><ele>225.0</ele><time>2026-04-05T16:45:43Z</time></trkpt><trkpt lat="43.92683323380358" lon="11.133843251121636"><ele>225.0</ele><time>2026-04-05T16:45:44Z</time></trkpt><trkpt lat="43.92692314385534" lon="11.133817830121618"><ele>225.0</ele><time>2026-04-05T16:45:46Z</time></trkpt><trkpt lat="43.92698928642042" lon="11.133815372114155"><ele>225.0</ele><time>2026-04-05T16:45:48Z</time></trkpt><trkpt lat="43.9271096435026" lon="11.13382064418261"><ele>225.0</ele><time>2026-04-05T16:45:50Z</time></trkpt><trkpt lat="43.9271603003064" lon="11.133888731089595"><ele>225.0</ele><time>2026-04-05T16:45:51Z</time></trkpt><trkpt lat="43.927225354336706" lon="11.133969910258704"><ele>225.0</ele><time>2026-04-05T16:45:52Z</time></trkpt><trkpt lat="43.927275922330246" lon="11.134066826135834"><ele>225.0</ele><time>2026-04-05T16:45:53Z</time></trkpt><trkpt lat="43.927305743795635" lon="11.134178794218538"><ele>229.4</ele><time>2026-04-05T16:45:54Z</time></trkpt><trkpt lat="43.9273459676494" lon="11.134261095282454"><ele>233.8</ele><time>2026-04-05T16:45:55Z</time></trkpt><trkpt lat="43.927344118699" lon="11.134360589707923"><ele>238.2</ele><time>2026-04-05T16:45:56Z</time></trkpt><trkpt lat="43.92724424673393" lon="11.134488556500155"><ele>242.6</ele><time>2026-04-05T16:45:58Z</time></trkpt><trkpt lat="43.92715312670696" lon="11.13451677671857"><ele>247.0</ele><time>2026-04-05T16:45:59Z</time></trkpt><trkpt lat="43.927058861513494" lon="11.134568400787536"><ele>247.0</ele><time>2026-04-05T16:46:00Z</time></trkpt><trkpt lat="43.92697875570617" lon="11.134645367720314"><ele>247.0</ele><time>2026-04-05T16:46:01Z</time></trkpt><trkpt lat="43.926875643629245" lon="11.134705663019997"><ele>247.0</ele><time>2026-04-05T16:46:02Z</time></trkpt><trkpt lat="43.92678754349628" lon="11.134799512546458"><ele>247.0</ele><time>2026-04-05T16:46:03Z</time></trkpt><trkpt lat="43.92669974648688" lon="11.13489666640871"><ele>247.0</ele><time>2026-04-05T16:46:04Z</time></trkpt><trkpt lat="43.92662386401258" lon="11.134987648252105"><ele>248.2</ele><time>2026-04-05T16:46:05Z</time></trkpt><trkpt lat="43.9265293575786" lon="11.13500105039914"><ele>249.39999999999998</ele><time>2026-04-05T16:46:06Z</time></trkpt><trkpt lat="43.92642679720376" lon="11.134975004368949"><ele>250.60000000000002</ele><time>2026-04-05T16:46:07Z</time></trkpt><trkpt lat="43.92632460091787" lon="11.134911684035789"><ele>251.8</ele><time>2026-04-05T16:46:08Z</time></trkpt><trkpt lat="43.92622776223649" lon="11.134827395183166"><ele>253.0</ele><time>2026-04-05T16:46:09Z</time></trkpt><trkpt lat="43.92614151218752" lon="11.134722989046216"><ele>253.0</ele><time>2026-04-05T16:46:10Z</time></trkpt><trkpt lat="43.92605811296045" lon="11.134598171766726"><ele>253.0</ele><time>2026-04-05T16:46:11Z</time></trkpt><trkpt lat="43.9259893775383" lon="11.13449063250164"><ele>253.0</ele><time>2026-04-05T16:46:12Z</time></trkpt><trkpt lat="43.925939054822315" lon="11.134430161037281"><ele>253.0</ele><time>2026-04-05T16:46:13Z</time></trkpt><trkpt lat="43.92584334439362" lon="11.134423773857979"><ele>253.0</ele><time>2026-04-05T16:46:15Z</time></trkpt><trkpt lat="43.92580065068615" lon="11.134605724978051"><ele>253.0</ele><time>2026-04-05T16:46:17Z</time></trkpt><trkpt lat="43.92588714658682" lon="11.134708817255829"><ele>253.0</ele><time>2026-04-05T16:46:18Z</time></trkpt><trkpt lat="43.9259501143828" lon="11.134839899431793"><ele>253.0</ele><time>2026-04-05T16:46:19Z</time></trkpt><trkpt lat="43.92601114664104" lon="11.134973463781257"><ele>253.0</ele><time>2026-04-05T16:46:20Z</time></trkpt><trkpt lat="43.926057014194534" lon="11.135119827763804"><ele>257.2</ele><time>2026-04-05T16:46:21Z</time></trkpt><trkpt lat="43.92607573766854" lon="11.135269480189486"><ele>261.4</ele><time>2026-04-05T16:46:22Z</time></trkpt><trkpt lat="43.92611784814014" lon="11.135389999527932"><ele>265.59999999999997</ele><time>2026-04-05T16:46:23Z</time></trkpt><trkpt lat="43.92614294970165" lon="11.135488246938536"><ele>269.8</ele><time>2026-04-05T16:46:24Z</time></trkpt><trkpt lat="43.92624501809622" lon="11.13554271858613"><ele>274.0</ele><time>2026-04-05T16:46:25Z</time></trkpt><trkpt lat="43.92634431616141" lon="11.135604314678682"><ele>274.0</ele><time>2026-04-05T16:46:26Z</time></trkpt><trkpt lat="43.92645550905916" lon="11.135647695704387"><ele>274.0</ele><time>2026-04-05T16:46:27Z</time></trkpt><trkpt lat="43.9265737909429" lon="11.135663206781352"><ele>274.0</ele><time>2026-04-05T16:46:28Z</time></trkpt><trkpt lat="43.92669181647921" lon="11.135638403684121"><ele>274.0</ele><time>2026-04-05T16:46:29Z</time></trkpt><trkpt lat="43.926806679468655" lon="11.135664348460292"><ele>274.8</ele><time>2026-04-05T16:46:30Z</time></trkpt><trkpt lat="43.926896348172185" lon="11.135714792635087"><ele>275.59999999999997</ele><time>2026-04-05T16:46:31Z</time></trkpt><trkpt lat="43.9269760516433" lon="11.13580753274727"><ele>276.4</ele><time>2026-04-05T16:46:32Z</time></trkpt><trkpt lat="43.927038556945476" lon="11.135895188760836"><ele>277.2</ele><time>2026-04-05T16:46:33Z</time></trkpt><trkpt lat="43.92710260831875" lon="11.136032515180217"><ele>278.0</ele><time>2026-04-05T16:46:34Z</time></trkpt><trkpt lat="43.9271327596739" lon="11.13613693912609"><ele>278.0</ele><time>2026-04-05T16:46:35Z</time></trkpt><trkpt lat="43.927150383222795" lon="11.136260828343364"><ele>278.0</ele><time>2026-04-05T16:46:36Z</time></trkpt><trkpt lat="43.927177061586335" lon="11.136375428392608"><ele>278.0</ele><time>2026-04-05T16:46:37Z</time></trkpt><trkpt lat="43.927198100241505" lon="11.136466273693612"><ele>278.0</ele><time>2026-04-05T16:46:38Z</time></trkpt><trkpt lat="43.92722385361593" lon="11.136594549470466"><ele>278.0</ele><time>2026-04-05T16:46:40Z</time></trkpt><trkpt lat="43.927128858642504" lon="11.136562641995214"><ele>278.0</ele><time>2026-04-05T16:46:43Z</time></trkpt><trkpt lat="43.92710332923483" lon="11.136468800944137"><ele>278.0</ele><time>2026-04-05T16:46:44Z</time></trkpt><trkpt lat="43.927022209855956" lon="11.136321434909783"><ele>278.0</ele><time>2026-04-05T16:46:46Z</time></trkpt><trkpt lat="43.92697103035855" lon="11.136260029643825"><ele>278.0</ele><time>2026-04-05T16:46:47Z</time></trkpt><trkpt lat="43.926902880840025" lon="11.136156398364882"><ele>278.0</ele><time>2026-04-05T16:46:49Z</time></trkpt><trkpt lat="43.926799138649955" lon="11.136156758601075"><ele>278.0</ele><time>2026-04-05T16:46:50Z</time></trkpt><trkpt lat="43.92670632359848" lon="11.136150939412538"><ele>280.8</ele><time>2026-04-05T16:46:51Z</time></trkpt><trkpt lat="43.926598676736795" lon="11.136174014762334"><ele>283.6</ele><time>2026-04-05T16:46:52Z</time></trkpt><trkpt lat="43.926500859743115" lon="11.136220262255021"><ele>286.4</ele><time>2026-04-05T16:46:53Z</time></trkpt><trkpt lat="43.926400769156515" lon="11.136255804669533"><ele>289.2</ele><time>2026-04-05T16:46:54Z</time></trkpt><trkpt lat="43.92628874848535" lon="11.136272263432371"><ele>292.0</ele><time>2026-04-05T16:46:55Z</time></trkpt><trkpt lat="43.92616925965022" lon="11.136279446356532"><ele>292.0</ele><time>2026-04-05T16:46:56Z</time></trkpt><trkpt lat="43.92606211552195" lon="11.136237950513603"><ele>292.0</ele><time>2026-04-05T16:46:57Z</time></trkpt><trkpt lat="43.92596927730053" lon="11.136189299074003"><ele>292.0</ele><time>2026-04-05T16:46:58Z</time></trkpt><trkpt lat="43.92588478425947" lon="11.136117944939388"><ele>292.0</ele><time>2026-04-05T16:46:59Z</time></trkpt><trkpt lat="43.92581499655021" lon="11.136015879443642"><ele>292.0</ele><time>2026-04-05T16:47:00Z</time></trkpt><trkpt lat="43.92577521652544" lon="11.135878502804415"><ele>293.0</ele><time>2026-04-05T16:47:01Z</time></trkpt><trkpt lat="43.92575726417878" lon="11.135726257410147"><ele>294.0</ele><time>2026-04-05T16:47:02Z</time></trkpt><trkpt lat="43.925732864823715" lon="11.135564440743872"><ele>295.0</ele><time>2026-04-05T16:47:03Z</time></trkpt><trkpt lat="43.92567631123133" lon="11.13540714193891"><ele>296.0</ele><time>2026-04-05T16:47:04Z</time></trkpt><trkpt lat="43.92560065658066" lon="11.135250504224729"><ele>296.0</ele><time>2026-04-05T16:47:05Z</time></trkpt><trkpt lat="43.92553856048897" lon="11.135096756037843"><ele>296.0</ele><time>2026-04-05T16:47:06Z</time></trkpt><trkpt lat="43.92550256774315" lon="11.134930496848195"><ele>296.0</ele><time>2026-04-05T16:47:07Z</time></trkpt><trkpt lat="43.92547502504656" lon="11.134775307041378"><ele>296.0</ele><time>2026-04-05T16:47:08Z</time></trkpt><trkpt lat="43.9254366484218" lon="11.134633311572054"><ele>291.6</ele><time>2026-04-05T16:47:09Z</time></trkpt><trkpt lat="43.925376393079596" lon="11.13450531980657"><ele>287.20000000000005</ele><time>2026-04-05T16:47:10Z</time></trkpt><trkpt lat="43.925314648084495" lon="11.13438063508959"><ele>282.79999999999995</ele><time>2026-04-05T16:47:11Z</time></trkpt><trkpt lat="43.925254136976356" lon="11.134281163255345"><ele>278.4</ele><time>2026-04-05T16:47:12Z</time></trkpt><trkpt lat="43.92517620674529" lon="11.134183132936785"><ele>274.0</ele><time>2026-04-05T16:47:13Z</time></trkpt><trkpt lat="43.92508342872722" lon="11.134095714007309"><ele>274.75</ele><time>2026-04-05T16:47:14Z</time></trkpt><trkpt lat="43.924981882146035" lon="11.13402859741104"><ele>275.5</ele><time>2026-04-05T16:47:15Z</time></trkpt><trkpt lat="43.92485934662169" lon="11.13398428735138"><ele>276.25</ele><time>2026-04-05T16:47:16Z</time></trkpt><trkpt lat="43.92473826219731" lon="11.133970560194188"><ele>277.0</ele><time>2026-04-05T16:47:17Z</time></trkpt><trkpt lat="43.9245972285438" lon="11.133967375493892"><ele>277.0</ele><time>2026-04-05T16:47:18Z</time></trkpt><trkpt lat="43.92446604900308" lon="11.13390415274355"><ele>277.0</ele><time>2026-04-05T16:47:19Z</time></trkpt><trkpt lat="43.92434755381646" lon="11.133827096462268"><ele>277.0</ele><time>2026-04-05T16:47:20Z</time></trkpt><trkpt lat="43.924242498045025" lon="11.133729874812646"><ele>277.0</ele><time>2026-04-05T16:47:21Z</time></trkpt><trkpt lat="43.92413313397784" lon="11.133645227483955"><ele>279.75</ele><time>2026-04-05T16:47:22Z</time></trkpt><trkpt lat="43.924027325303896" lon="11.133565465811422"><ele>282.5</ele><time>2026-04-05T16:47:23Z</time></trkpt><trkpt lat="43.92391274420271" lon="11.133501865829658"><ele>285.25</ele><time>2026-04-05T16:47:24Z</time></trkpt><trkpt lat="43.92380043874436" lon="11.133439105904376"><ele>288.0</ele><time>2026-04-05T16:47:25Z</time></trkpt><trkpt lat="43.92369950326171" lon="11.133377648918184"><ele>288.0</ele><time>2026-04-05T16:47:26Z</time></trkpt><trkpt lat="43.92360799276437" lon="11.13331910342692"><ele>288.0</ele><time>2026-04-05T16:47:27Z</time></trkpt><trkpt lat="43.923519023092794" lon="11.133261746782846"><ele>288.0</ele><time>2026-04-05T16:47:28Z</time></trkpt><trkpt lat="43.92342622979918" lon="11.133202408658995"><ele>288.0</ele><time>2026-04-05T16:47:29Z</time></trkpt><trkpt lat="43.923339776712524" lon="11.133153555016268"><ele>288.0</ele><time>2026-04-05T16:47:30Z</time></trkpt><trkpt lat="43.923256763345506" lon="11.133101237871768"><ele>284.0</ele><time>2026-04-05T16:47:31Z</time></trkpt><trkpt lat="43.923175327065984" lon="11.133066400769298"><ele>280.0</ele><time>2026-04-05T16:47:32Z</time></trkpt><trkpt lat="43.92309801962285" lon="11.133017474271806"><ele>276.0</ele><time>2026-04-05T16:47:33Z</time></trkpt><trkpt lat="43.92301205627831" lon="11.132988906727006"><ele>272.0</ele><time>2026-04-05T16:47:34Z</time></trkpt><trkpt lat="43.92292577381869" lon="11.132962082369295"><ele>268.0</ele><time>2026-04-05T16:47:35Z</time></trkpt><trkpt lat="43.922832614525575" lon="11.132962534957528"><ele>264.0</ele><time>2026-04-05T16:47:36Z</time></trkpt><trkpt lat="43.92273744401212" lon="11.132980986958326"><ele>264.0</ele><time>2026-04-05T16:47:37Z</time></trkpt><trkpt lat="43.92264649298945" lon="11.132963571070244"><ele>264.0</ele><time>2026-04-05T16:47:38Z</time></trkpt><trkpt lat="43.92255867037759" lon="11.132972848283465"><ele>264.0</ele><time>2026-04-05T16:47:39Z</time></trkpt><trkpt lat="43.92248054010408" lon="11.132905377249031"><ele>264.0</ele><time>2026-04-05T16:47:40Z</time></trkpt><trkpt lat="43.9223864983445" lon="11.132875409380055"><ele>264.0</ele><time>2026-04-05T16:47:41Z</time></trkpt><trkpt lat="43.92231439685081" lon="11.132832215025147"><ele>264.0</ele><time>2026-04-05T16:47:42Z</time></trkpt><trkpt lat="43.922243283070024" lon="11.132826476872138"><ele>267.1666666666667</ele><time>2026-04-05T16:47:43Z</time></trkpt><trkpt lat="43.92217131788573" lon="11.132859524883647"><ele>270.3333333333333</ele><time>2026-04-05T16:47:44Z</time></trkpt><trkpt lat="43.922101548433446" lon="11.13291479637476"><ele>273.5</ele><time>2026-04-05T16:47:45Z</time></trkpt><trkpt lat="43.922016409254375" lon="11.132936107067108"><ele>276.66666666666663</ele><time>2026-04-05T16:47:46Z</time></trkpt><trkpt lat="43.92193478164567" lon="11.132995443101567"><ele>279.8333333333333</ele><time>2026-04-05T16:47:47Z</time></trkpt><trkpt lat="43.9218386637633" lon="11.133027635669311"><ele>283.0</ele><time>2026-04-05T16:47:48Z</time></trkpt><trkpt lat="43.9217267516172" lon="11.133058750298659"><ele>283.25</ele><time>2026-04-05T16:47:49Z</time></trkpt><trkpt lat="43.92160631488777" lon="11.133086478555239"><ele>283.5</ele><time>2026-04-05T16:47:50Z</time></trkpt><trkpt lat="43.92147798559228" lon="11.133118011253604"><ele>283.75</ele><time>2026-04-05T16:47:51Z</time></trkpt><trkpt lat="43.92135113203751" lon="11.133150121035799"><ele>284.0</ele><time>2026-04-05T16:47:52Z</time></trkpt><trkpt lat="43.92121878572213" lon="11.133179392761742"><ele>284.0</ele><time>2026-04-05T16:47:53Z</time></trkpt><trkpt lat="43.921076198424466" lon="11.133176143609678"><ele>284.0</ele><time>2026-04-05T16:47:54Z</time></trkpt><trkpt lat="43.92093583646543" lon="11.133219427996886"><ele>284.0</ele><time>2026-04-05T16:47:55Z</time></trkpt><trkpt lat="43.920792606075764" lon="11.133240149292899"><ele>284.0</ele><time>2026-04-05T16:47:56Z</time></trkpt><trkpt lat="43.920657001300675" lon="11.133267043508237"><ele>287.59999999999997</ele><time>2026-04-05T16:47:57Z</time></trkpt><trkpt lat="43.920534884026274" lon="11.133292567238525"><ele>291.2</ele><time>2026-04-05T16:47:58Z</time></trkpt><trkpt lat="43.92042604344567" lon="11.133313576081497"><ele>294.79999999999995</ele><time>2026-04-05T16:47:59Z</time></trkpt><trkpt lat="43.92031768557558" lon="11.133331542045815"><ele>298.4</ele><time>2026-04-05T16:48:00Z</time></trkpt><trkpt lat="43.92021088910239" lon="11.133338959513644"><ele>302.0</ele><time>2026-04-05T16:48:01Z</time></trkpt><trkpt lat="43.920111829318124" lon="11.133296010796457"><ele>302.2</ele><time>2026-04-05T16:48:02Z</time></trkpt><trkpt lat="43.92000639474973" lon="11.133278439971601"><ele>302.4</ele><time>2026-04-05T16:48:03Z</time></trkpt><trkpt lat="43.91990334697436" lon="11.133209465468699"><ele>302.6</ele><time>2026-04-05T16:48:04Z</time></trkpt><trkpt lat="43.919801522749935" lon="11.133197000152297"><ele>302.8</ele><time>2026-04-05T16:48:05Z</time></trkpt><trkpt lat="43.91970596464973" lon="11.13319770874932"><ele>303.0</ele><time>2026-04-05T16:48:06Z</time></trkpt><trkpt lat="43.919600103733245" lon="11.133193050550435"><ele>303.0</ele><time>2026-04-05T16:48:07Z</time></trkpt><trkpt lat="43.919488070706976" lon="11.133248106211063"><ele>303.0</ele><time>2026-04-05T16:48:08Z</time></trkpt><trkpt lat="43.91935654918906" lon="11.133260863578846"><ele>303.0</ele><time>2026-04-05T16:48:09Z</time></trkpt><trkpt lat="43.91922636254089" lon="11.133282648981394"><ele>303.0</ele><time>2026-04-05T16:48:10Z</time></trkpt><trkpt lat="43.91910140814972" lon="11.133314405921842"><ele>303.8</ele><time>2026-04-05T16:48:11Z</time></trkpt><trkpt lat="43.91898821439239" lon="11.133309003429106"><ele>304.6</ele><time>2026-04-05T16:48:12Z</time></trkpt><trkpt lat="43.91888133101641" lon="11.13326206109284"><ele>305.4</ele><time>2026-04-05T16:48:13Z</time></trkpt><trkpt lat="43.91877314338592" lon="11.133255203197374"><ele>306.2</ele><time>2026-04-05T16:48:14Z</time></trkpt><trkpt lat="43.918678438918285" lon="11.13323318845327"><ele>307.0</ele><time>2026-04-05T16:48:15Z</time></trkpt><trkpt lat="43.918587747564644" lon="11.133213696882454"><ele>302.8333333333333</ele><time>2026-04-05T16:48:16Z</time></trkpt><trkpt lat="43.91851885559681" lon="11.133204309773484"><ele>298.66666666666663</ele><time>2026-04-05T16:48:17Z</time></trkpt><trkpt lat="43.91842614703448" lon="11.133092358702516"><ele>294.5</ele><time>2026-04-05T16:48:19Z</time></trkpt><trkpt lat="43.91837316819234" lon="11.13304012979331"><ele>290.3333333333333</ele><time>2026-04-05T16:48:20Z</time></trkpt><trkpt lat="43.91831604389579" lon="11.132974772331293"><ele>286.1666666666667</ele><time>2026-04-05T16:48:21Z</time></trkpt><trkpt lat="43.91826233120959" lon="11.132892998251043"><ele>282.0</ele><time>2026-04-05T16:48:22Z</time></trkpt><trkpt lat="43.91820297079118" lon="11.132800614803696"><ele>282.0</ele><time>2026-04-05T16:48:23Z</time></trkpt><trkpt lat="43.91814436634231" lon="11.1327080652003"><ele>282.0</ele><time>2026-04-05T16:48:24Z</time></trkpt><trkpt lat="43.91809186024647" lon="11.132620088305828"><ele>282.0</ele><time>2026-04-05T16:48:25Z</time></trkpt><trkpt lat="43.91802722249493" lon="11.132496630553975"><ele>282.0</ele><time>2026-04-05T16:48:27Z</time></trkpt><trkpt lat="43.917982864721374" lon="11.132382312143177"><ele>282.0</ele><time>2026-04-05T16:48:30Z</time></trkpt><trkpt lat="43.917925379202195" lon="11.132255899005916"><ele>278.3333333333333</ele><time>2026-04-05T16:48:32Z</time></trkpt><trkpt lat="43.91788688749815" lon="11.132185339278012"><ele>274.6666666666667</ele><time>2026-04-05T16:48:33Z</time></trkpt><trkpt lat="43.917841141610566" lon="11.132124817281275"><ele>271.0</ele><time>2026-04-05T16:48:34Z</time></trkpt><trkpt lat="43.91775930005404" lon="11.131989791424253"><ele>267.33333333333337</ele><time>2026-04-05T16:48:36Z</time></trkpt><trkpt lat="43.91768510551891" lon="11.131884916243383"><ele>263.6666666666667</ele><time>2026-04-05T16:48:38Z</time></trkpt><trkpt lat="43.91761760295803" lon="11.131819196893046"><ele>260.0</ele><time>2026-04-05T16:48:40.001Z</time></trkpt><trkpt lat="43.91757236868207" lon="11.131744786809206"><ele>262.1666666666667</ele><time>2026-04-05T16:48:42.001Z</time></trkpt><trkpt lat="43.91753995405024" lon="11.131668684994125"><ele>264.33333333333337</ele><time>2026-04-05T16:48:44.001Z</time></trkpt><trkpt lat="43.91752470596623" lon="11.131563734777403"><ele>266.5</ele><time>2026-04-05T16:48:47.001Z</time></trkpt><trkpt lat="43.91742847024138" lon="11.131506562416382"><ele>268.6666666666667</ele><time>2026-04-05T16:48:50.001Z</time></trkpt><trkpt lat="43.91733877327399" lon="11.131512604561484"><ele>270.8333333333333</ele><time>2026-04-05T16:48:52.001Z</time></trkpt><trkpt lat="43.917243161389564" lon="11.131521337718643"><ele>273.0</ele><time>2026-04-05T16:48:54.001Z</time></trkpt><trkpt lat="43.91713020320046" lon="11.1315362484248"><ele>247.0</ele><time>2026-04-05T16:48:56Z</time></trkpt><trkpt lat="43.91702670030863" lon="11.131575581405345"><ele>273.0</ele><time>2026-04-05T16:48:58Z</time></trkpt><trkpt lat="43.9169235101315" lon="11.13159876943263"><ele>273.0</ele><time>2026-04-05T16:49:00Z</time></trkpt><trkpt lat="43.916836080842316" lon="11.131604898050506"><ele>273.0</ele><time>2026-04-05T16:49:02Z</time></trkpt><trkpt lat="43.91675525734345" lon="11.131627243294814"><ele>273.0</ele><time>2026-04-05T16:49:05Z</time></trkpt></trkseg></trk></gpx>